[[{"header":{"parameterUnit":"m.s-1","parameterCategory":1,"la1":31.0,"la2":29.5877,"lo1":-88.7671,"lo2":-86.6584,"dy":0.0162,"dx":0.0185,"nx":115,"ny":88,"refTime":"2024-03-20T18:00:00:Z","depth":0,"parameterNumber":2,"parameterNumberName":"U-component_of_WINDS"},"data":[0.0,0.0,0.0,0.0,0.0,0.0,0.0,0.0,0.0,0.0,0.0,0.0,0.0,0.0,0.0,0.0,0.0,0.0,0.0,0.0,0.0,0.0,0.0,0.0,0.0,0.0,0.0,0.0,0.0,0.0,0.0,0.0,0.0,0.0,0.0,0.0,0.0,0.0,0.0,0.0,0.0,0.0,0.0,0.0,0.0,0.0,0.0,0.0,0.0,0.0,0.0,0.0,0.0,0.0,0.0,0.0,0.0,0.0,0.0,0.0,0.0,0.0,0.0,0.0,0.0,0.0,0.0,0.0,0.0,0.0,0.0,0.0,0.0,0.0,0.0,0.0,0.0,0.0,0.0,0.0,0.0,0.0,0.0,0.0,0.0,0.0,0.0,0.0,0.0,0.0,0.0,0.0,0.0,0.0,0.0,0.0,0.0,0.0,0.0,0.0,0.0,0.0,0.0,0.0,0.0,0.0,0.0,0.0,0.0,0.0,0.0,0.0,0.0,0.0,0.0,0.0,0.0,0.0,0.0,0.0,0.0,0.0,0.0,0.0,0.0,0.0,0.0,0.0,0.0,0.0,0.0,0.0,0.0,0.0,0.0,0.0,0.0,0.0,0.0,0.0,0.0,0.0,0.0,0.0,0.0,0.0,0.0,0.0,0.0,0.0,0.0,0.0,0.0,0.0,0.0,0.0,0.0,0.0,0.0,0.0,0.0,0.0,0.0,0.0,0.0,0.0,0.0,0.0,0.0,0.0,0.0,0.0,0.0,0.0,0.0,0.0,0.0,0.0,0.0,0.0,0.0,0.0,0.0,0.0,0.0,0.0,0.0,0.0,0.0,0.0,0.0,0.0,0.0,0.0,0.0,0.0,0.0,0.0,0.0,0.0,0.0,0.0,0.0,0.0,0.0,0.0,0.0,0.0,0.0,0.0,0.0,0.0,0.0,0.0,0.0,0.0,0.0,0.0,0.0,0.0,0.0,0.0,0.0,0.0,0.0,0.0,0.0,0.0,0.0,0.0,0.0,0.0,0.0,0.0,0.0,0.0,0.0,0.0,0.0,0.0,0.0,0.0,0.0,0.0,0.0,0.0,0.0,0.0,0.0,0.0,0.0,0.0,0.0,0.0,0.0,0.0,0.0,0.0,0.0,0.0,0.0,0.0,0.0,0.0,0.0,0.0,0.0,0.0,0.0,0.0,0.0,0.0,0.0,0.0,0.0,0.0,0.0,0.0,0.0,0.0,0.0,0.0,0.0,0.0,0.0,0.0,0.0,0.0,0.0,0.0,0.0,0.0,0.0,0.0,0.0,0.0,0.0,0.0,0.0,0.0,0.0,0.0,0.0,0.0,0.0,0.0,0.0,0.0,0.0,0.0,0.0,0.0,0.0,0.0,0.0,0.0,0.0,0.0,0.0,0.0,0.0,0.0,0.0,0.0,0.0,0.0,0.0,0.0,0.0,0.0,0.0,0.0,0.0,0.0,0.0,0.0,0.0,0.0,0.0,0.0,0.0,0.0,0.0,0.0,0.0,0.0,0.0,0.0,0.0,0.0,0.0,0.0,0.0,0.0,0.0,0.0,0.0,0.0,0.0,0.0,0.0,0.0,0.0,0.0,0.0,0.0,0.0,0.0,0.0,0.0,0.0,0.0,0.0,0.0,0.0,0.0,0.0,0.0,0.0,0.0,0.0,0.0,0.0,0.0,0.0,0.0,0.0,0.0,0.0,0.0,0.0,0.0,0.0,0.0,0.0,0.0,0.0,0.0,0.0,0.0,0.0,0.0,0.0,0.0,0.0,0.0,0.0,0.0,0.0,0.0,0.0,0.0,0.0,0.0,0.0,0.0,0.0,0.0,0.0,0.0,0.0,0.0,0.0,0.0,0.0,0.0,0.0,0.0,0.0,0.0,0.0,0.0,0.0,0.0,0.0,0.0,0.0,0.0,0.0,0.0,0.0,0.0,0.0,0.0,0.0,0.0,0.0,0.0,0.0,0.0,0.0,0.0,0.0,0.0,0.0,0.0,0.0,0.0,0.0,0.0,0.0,0.0,0.0,0.0,0.0,0.0,0.0,0.0,0.0,0.0,0.0,0.0,0.0,0.0,0.0,0.0,0.0,0.0,0.0,0.0,0.0,0.0,0.0,0.0,0.0,0.0,0.0,0.0,0.0,0.0,0.0,0.0,0.0,0.0,0.0,0.0,0.0,0.0,0.0,0.0,0.0,0.0,0.0,0.0,0.0,0.0,0.0,0.0,0.0,0.0,0.0,0.0,0.0,0.0,0.0,0.0,0.0,0.0,0.0,0.0,0.0,0.0,0.0,0.0,0.0,0.0,0.0,0.0,0.0,0.0,0.0,0.0,0.0,0.0,0.0,0.0,0.0,0.0,0.0,0.0,0.0,0.0,0.0,0.0,0.0,0.0,0.0,0.0,0.0,0.0,0.0,0.0,0.0,0.0,0.0,0.0,0.0,0.0,0.0,0.0,0.0,0.0,0.0,0.0,0.0,0.0,0.0,0.0,0.0,0.0,0.0,0.0,0.0,0.0,0.0,0.0,0.0,0.0,0.0,0.0,0.0,0.0,0.0,0.0,0.0,0.0,0.0,0.0,0.0,0.0,0.0,0.0,0.0,0.0,0.0,0.0,0.0,0.0,0.0,0.0,0.0,0.0,0.0,0.0,0.0,0.0,0.0,0.0,0.0,0.0,0.0,0.0,0.0,0.0,0.0,0.0,0.0,0.0,0.0,0.0,0.0,0.0,0.0,0.0,0.0,0.0,0.0,0.0,0.0,0.0,0.0,0.0,0.0,0.0,0.0,0.0,0.0,0.0,0.0,0.0,0.0,0.0,0.0,0.0,0.0,0.0,0.0,0.0,0.0,0.0,0.0,0.0,0.0,0.0,0.0,0.0,0.0,0.0,0.0,0.0,0.0,0.0,0.0,0.0,0.0,0.0,0.0,0.0,0.0,0.0,0.0,0.0,0.0,0.0,0.0,0.0,0.0,0.0,0.0,0.0,0.0,0.0,0.0,0.0,0.0,0.0,0.0,0.0,0.0,0.0,0.0,0.0,0.0,0.0,0.0,0.0,0.0,0.0,0.0,0.0,0.0,0.0,0.0,0.0,0.0,0.0,0.0,0.0,0.0,0.0,0.0,0.0,0.0,0.0,0.0,0.0,0.0,0.0,0.0,0.0,0.0,0.0,0.0,0.0,0.0,0.0,0.0,0.0,0.0,0.0,0.0,0.0,0.0,0.0,0.0,0.0,0.0,0.0,0.0,0.0,0.0,0.0,0.0,0.0,0.0,0.0,0.0,0.0,0.0,0.0,0.0,0.0,0.0,0.0,0.0,0.0,0.0,0.0,0.0,0.0,0.0,0.0,0.0,0.0,0.0,0.0,0.0,0.0,0.0,0.0,0.0,0.0,0.0,0.0,0.0,0.0,0.0,0.0,0.0,0.0,0.0,0.0,0.0,0.0,0.0,0.0,0.0,0.0,0.0,0.0,0.0,0.0,0.0,0.0,0.0,0.0,0.0,0.0,0.0,0.0,0.0,0.0,0.0,0.0,0.0,0.0,0.0,0.0,0.0,0.0,0.0,0.0,0.0,0.0,0.0,0.0,0.0,0.0,0.0,0.0,0.0,0.0,0.0,0.0,0.0,0.0,0.0,0.0,0.0,0.0,0.0,0.0,0.0,0.0,0.0,0.0,0.0,0.0,0.0,0.0,0.0,0.0,0.0,0.0,0.0,0.0,0.0,0.0,0.0,0.0,0.0,0.0,0.0,0.0,0.0,0.0,0.0,0.0,0.0,0.0,0.0,0.0,0.0,0.0,0.0,0.0,0.0,0.0,0.0,0.0,0.0,0.0,0.0,0.0,0.0,0.0,0.0,0.0,0.0,0.0,0.0,0.0,0.0,0.0,0.0,0.0,0.0,0.0,0.0,0.0,0.0,0.0,0.0,0.0,0.0,0.0,0.0,0.0,0.0,0.0,0.0,0.0,0.0,0.0,0.0,0.0,0.0,0.0,0.0,0.0,0.0,0.0,0.0,0.0,0.0,0.0,0.0,0.0,0.0,0.0,0.0,0.0,0.0,0.0,0.0,0.0,0.0,0.0,0.0,0.0,0.0,0.0,0.0,0.0,0.0,0.0,0.0,0.0,0.0,0.0,0.0,0.0,0.0,0.0,0.0,0.0,0.0,0.0,0.0,0.0,0.0,0.0,0.0,0.0,0.0,0.0,0.0,0.0,0.0,0.0,0.0,0.0,0.0,0.0,0.0,0.0,0.5398,0.0,0.0,0.0,0.0,0.0,0.0,0.0,0.0,0.0,0.0,0.0,0.0,0.0,0.0,0.0,0.0,0.0,0.0,0.0,0.0,0.0,0.0,0.0,0.0,0.0,0.0,0.0,0.0,0.0,0.0,0.0,0.0,0.0,0.0,0.0,0.0,0.0,0.0,0.0,0.0,0.0,0.0,0.0,0.0,0.0,0.0,0.0,0.0,0.0,0.0,0.0,0.0,0.0,0.0,0.0,0.0,0.0,0.0,0.0,0.0,0.0,0.0,0.0,0.0,0.0,0.0,0.0,0.0,0.0,0.0,0.0,0.0,0.0,0.0,0.0,0.0,0.0,0.0,0.0,0.0,0.0,0.0,0.0,0.0,0.0,0.0,0.0,0.0,0.0,0.0,0.0,0.0,0.0,0.0,0.0,0.0,0.0,0.0,0.0,0.0,0.0,0.0,0.0,0.0,0.0,0.0,0.0,0.0,0.0,0.0,0.5195,0.5407,0.5398,0.5418,0.5446,0.0,0.0,0.0,0.0,0.0,0.0,0.0,0.0,0.0,0.0,0.0,0.0,0.0,0.0,0.0,0.0,0.0,0.0,0.0,0.0,0.0,0.0,0.0,0.0,0.0,0.0,0.0,0.0,0.0,0.0,0.0,0.0,0.0,0.0,0.0,0.0,0.0,0.0,0.0,0.0,0.0,0.0,0.0,0.0,0.0,0.0,0.0,0.0,0.0,0.0,0.0,0.0,0.0,0.0,0.0,0.0,0.0,0.0,0.0,0.0,0.0,0.0,0.0,0.0,0.0,0.0,0.0,0.0,0.0,0.0,0.0,0.0,0.0,0.0,0.0,0.0,0.0,0.0,0.0,0.0,0.0,0.0,0.0,0.0,0.0,0.0,0.0,0.0,0.0,0.0,0.0,0.0,0.0,0.0,0.0,0.0,0.0,0.0,0.0,0.0,0.0,0.0,0.0,0.0,0.0,0.0,0.0,0.0,0.0,0.0,0.0,0.0,0.5553,0.5529,0.5402,0.0,0.0,0.0,0.0,0.0,0.0,0.0,0.0,0.0,0.0,0.0,0.0,0.0,0.0,0.0,0.0,0.0,0.0,0.0,0.0,0.0,0.0,0.0,0.0,0.0,0.0,0.0,0.0,0.0,0.0,0.0,0.0,0.0,0.0,0.0,0.0,0.0,0.0,0.0,0.0,0.0,0.0,0.0,0.0,0.0,0.0,0.0,0.0,0.0,0.0,0.0,0.0,0.0,0.0,0.0,0.0,0.0,0.0,0.0,0.0,0.0,0.0,0.0,0.0,0.0,0.0,0.0,0.0,0.0,0.0,0.0,0.0,0.0,0.0,0.0,0.0,0.0,0.0,0.0,0.0,0.0,0.0,0.0,0.0,0.0,0.0,0.0,0.0,0.0,0.0,0.0,0.0,0.0,0.0,0.0,0.0,0.0,0.0,0.0,0.0,0.0,0.0,0.0,0.0,0.0,0.0,0.0,0.0,0.0,0.0,0.5843,0.5513,0.5909,0.0,0.5171,0.0,0.0,0.0,0.0,0.0,0.0,0.0,0.0,0.0,0.0,0.0,0.0,0.0,0.0,0.0,0.0,0.0,0.0,0.0,0.0,0.0,0.0,0.0,0.0,0.0,0.0,0.0,0.0,0.0,0.0,0.0,0.0,0.0,0.0,0.0,0.0,0.0,0.0,0.0,0.0,0.0,0.0,0.0,0.0,0.0,0.0,0.0,0.0,0.0,0.0,0.0,0.0,0.0,0.0,0.0,0.0,0.0,0.0,0.0,0.0,0.0,0.0,0.0,0.0,0.0,0.0,0.0,0.0,0.0,0.0,0.0,0.0,0.0,0.0,0.0,0.0,0.0,0.0,0.0,0.0,0.0,0.0,0.0,0.0,0.0,0.0,0.0,0.0,0.0,0.0,0.0,0.0,0.0,0.0,0.0,0.0,0.0,0.0,0.0,0.0,0.0,0.0,0.0,0.0,0.0,0.0,0.0,0.0,0.0,0.0,0.6202,0.6046,0.6097,0.5781,0.0,0.0,0.0,0.0,0.0,0.0,0.0,0.0,0.0,0.0,0.0,0.0,0.0,0.0,0.0,0.0,0.0,0.0,0.0,0.0,0.0,0.0,0.0,0.0,0.0,0.0,0.0,0.0,0.0,0.0,0.0,0.0,0.0,0.0,0.0,0.0,0.0,0.0,0.0,0.0,0.0,0.0,0.0,0.0,0.0,0.0,0.0,0.0,0.0,0.0,0.0,0.0,0.0,0.0,0.0,0.0,0.0,0.0,0.0,0.0,0.0,0.0,0.0,0.0,0.0,0.0,0.0,0.0,0.0,0.0,0.0,0.0,0.0,0.0,0.0,0.0,0.0,0.0,0.0,0.0,0.0,0.0,0.0,0.0,0.0,0.0,0.0,0.0,0.0,0.0,0.0,0.0,0.0,0.0,0.0,0.0,0.0,0.0,0.0,0.0,0.0,0.0,0.0,0.0,0.0,0.0,0.0,0.0,0.0,0.0,0.6074,0.6408,0.6392,0.6092,0.5588,0.4917,0.0,0.0,0.0,0.0,0.0,0.0,0.0,0.0,0.0,0.0,0.0,0.0,0.0,0.0,0.0,0.0,0.0,0.0,0.0,0.0,0.0,0.0,0.0,0.0,0.0,0.0,0.0,0.0,0.0,0.0,0.0,0.0,0.0,0.0,0.0,0.0,0.0,0.0,0.0,0.0,0.0,0.0,0.0,0.0,0.0,0.0,0.0,0.0,0.0,0.0,0.0,0.0,0.0,0.0,0.0,0.0,0.0,0.0,0.0,0.0,0.0,0.0,0.0,0.0,0.0,0.0,0.0,0.0,0.0,0.0,0.0,0.0,0.0,0.0,0.0,0.0,0.0,0.0,0.0,0.0,0.0,0.0,0.0,0.0,0.0,0.0,0.0,0.0,0.0,0.0,0.0,0.0,0.0,0.0,0.0,0.0,0.0,0.0,0.0,0.0,0.0,0.0,0.0,0.0,0.0,0.0,0.0,0.0,0.5601,0.6178,0.647,0.6386,0.5778,0.5273,0.0,0.0,0.0,0.0,0.0,0.0,0.0,0.0,0.0,0.0,0.0,0.0,0.0,0.0,0.0,0.0,0.0,0.0,0.0,0.0,0.0,0.0,0.0,0.0,0.0,0.0,0.0,0.0,0.0,0.0,0.0,0.0,0.0,0.0,0.0,0.0,0.0,0.0,0.0,0.0,0.0,0.0,0.0,0.0,0.0,0.0,0.0,0.0,0.0,0.0,0.0,0.0,0.0,0.0,0.0,0.0,0.0,0.0,0.0,0.0,0.0,0.0,0.0,0.0,0.0,0.0,0.0,0.0,0.0,0.0,0.0,0.0,0.0,0.0,0.0,0.0,0.0,0.0,0.0,0.0,0.0,0.0,0.0,0.0,0.0,0.0,0.0,0.0,0.0,0.0,0.0,0.0,0.0,0.0,0.0,0.0,0.0,0.0,0.0,0.0,0.0,0.0,0.0,0.0,0.0,0.0,0.0,0.0,0.0,0.5815,0.6589,0.6832,0.6472,0.6301,0.5817,0.0,0.0,0.0,0.0,0.0,0.0,0.0,0.0,0.0,0.0,0.0,0.0,0.0,0.0,0.0,0.0,0.0,0.0,0.0,0.0,0.0,0.0,0.0,0.0,0.0,0.0,0.0,0.0,0.0,0.0,0.0,0.0,0.0,0.0,0.0,0.0,0.0,0.0,0.0,0.0,0.0,0.0,0.0,0.0,0.0,0.0,0.0,0.0,0.0,0.0,0.0,0.0,0.0,0.0,0.0,0.0,0.0,0.0,0.0,0.0,0.0,0.0,0.0,0.0,0.0,0.0,0.0,0.0,0.0,0.0,0.0,0.0,0.0,0.0,0.0,0.0,0.0,0.0,0.0,0.0,0.0,0.0,0.0,0.0,0.0,0.0,0.0,0.0,0.0,0.0,0.0,0.0,0.0,0.0,0.0,0.0,0.0,0.0,0.0,0.0,0.0,0.0,0.0,0.0,0.0,0.0,0.0,0.0,0.0,0.6253,0.0,0.698,0.6777,0.6597,0.6063,0.0,0.0,0.0,0.0,0.0,0.0,0.0,0.0,0.0,0.0,0.0,0.0,0.0,0.0,0.0,0.0,0.0,0.0,0.0,0.0,0.0,0.0,0.0,0.0,0.0,0.0,0.0,0.0,0.0,0.0,0.0,0.0,0.0,0.0,0.0,0.0,0.0,0.0,0.0,0.0,0.0,0.0,0.0,0.0,0.0,0.0,0.0,0.0,0.0,0.0,0.0,0.0,0.0,0.0,0.0,0.0,0.0,0.0,0.0,0.0,0.0,0.0,0.0,0.0,0.0,0.0,0.0,0.0,0.0,0.0,0.0,0.0,0.0,0.0,0.0,0.0,0.0,0.0,0.0,0.0,0.0,0.0,0.0,0.0,0.0,0.0,0.0,0.0,0.0,0.0,0.0,0.0,0.0,0.0,0.0,0.0,0.0,0.0,0.0,0.0,0.0,0.0,0.0,0.0,0.0,0.0,0.0,0.0,0.63,0.6965,0.6824,0.6967,0.7257,0.6568,0.5965,0.0,0.0,0.0,0.0,0.0,0.0,0.0,0.0,0.0,0.0,0.0,0.0,0.0,0.0,0.0,0.0,0.0,0.0,0.0,0.0,0.0,0.0,0.0,0.0,0.0,0.0,0.0,0.0,0.0,0.0,0.0,0.0,0.0,0.0,0.0,0.0,0.0,0.0,0.0,0.0,0.0,0.0,0.0,0.0,0.0,0.0,0.0,0.0,0.0,0.0,0.0,0.0,0.0,0.0,0.0,0.0,0.0,0.0,0.0,0.0,0.0,0.0,0.0,0.0,0.0,0.0,0.0,0.0,0.0,0.0,0.0,0.0,0.0,0.0,0.0,0.0,0.0,0.0,0.0,0.0,0.0,0.0,0.0,0.0,0.0,0.0,0.0,0.0,0.0,0.0,0.0,0.0,0.0,0.0,0.0,0.0,0.0,0.0,0.0,0.0,0.0,0.0,0.0,0.0,0.0,0.0,0.0,0.0,0.0,0.7547,0.7755,0.7714,0.7382,0.7224,0.6732,0.0,0.0,0.0,0.0,0.0,0.0,0.0,0.0,0.0,0.0,0.0,0.0,0.0,0.0,0.0,0.0,0.0,0.0,0.0,0.0,0.0,0.0,0.0,0.0,0.0,0.0,0.0,0.0,0.0,0.0,0.0,0.0,0.0,0.0,0.0,0.0,0.0,0.0,0.0,0.0,0.0,0.0,0.0,0.0,0.0,0.0,0.0,0.0,0.0,0.0,0.0,0.0,0.0,0.0,0.0,0.0,0.0,0.0,0.0,0.0,0.0,0.0,0.0,0.0,0.0,0.0,0.0,0.0,0.0,0.0,0.0,0.0,0.0,0.0,0.0,0.0,0.0,0.0,0.0,0.0,0.0,0.0,0.0,0.0,0.0,0.0,0.0,0.0,0.0,0.0,0.0,0.0,0.0,0.0,0.0,0.0,0.0,0.0,0.0,0.0,0.0,0.0,0.0,0.0,0.0,0.0,0.0,0.0,0.0,0.8771,0.8733,0.8555,0.8277,0.8021,0.7416,0.6376,0.0,0.0,0.0,0.0,0.0,0.0,0.0,0.0,0.0,0.0,0.0,0.0,0.0,0.0,0.0,0.0,0.0,0.0,0.0,0.0,0.0,0.0,0.0,0.0,0.0,0.0,0.0,0.0,0.0,0.0,0.0,0.0,0.0,0.0,0.0,0.0,0.0,0.0,0.0,0.0,0.0,0.0,0.0,0.0,0.0,0.0,0.0,0.0,0.0,0.0,0.0,0.0,0.0,0.0,0.0,0.0,0.0,0.0,0.0,0.0,0.0,0.0,0.0,0.0,0.0,0.0,0.0,0.0,0.0,0.0,0.0,0.0,0.0,0.0,0.0,0.0,0.0,0.0,0.0,0.0,0.0,0.0,0.0,0.0,0.0,0.0,0.0,0.0,0.0,0.0,0.0,0.0,0.0,0.0,0.0,0.0,0.0,0.0,0.0,0.0,0.0,0.0,0.0,0.0,0.0,0.0,0.0,0.0,1.043,0.9717,0.9482,0.9723,0.8901,0.8049,0.0,0.0,0.0,0.0,0.0,0.0,0.0,0.0,0.0,0.0,0.0,0.0,0.0,0.0,0.0,0.0,0.0,0.0,0.0,0.0,0.0,0.0,0.0,0.0,0.0,0.0,0.0,0.0,0.0,0.0,0.0,0.0,0.0,0.0,0.0,0.0,0.0,0.0,0.0,0.0,0.0,0.0,0.0,0.0,0.0,0.0,0.0,0.0,0.0,0.0,0.0,0.0,0.0,0.0,0.0,0.0,0.0,0.0,0.0,0.0,0.0,0.0,0.0,0.0,0.0,0.0,0.0,0.0,0.0,0.0,0.0,0.0,0.0,0.0,0.0,0.0,0.0,0.0,0.0,0.0,0.0,0.0,0.0,0.0,0.0,0.0,0.0,0.0,0.0,0.0,0.0,0.0,0.0,0.0,0.0,0.0,0.0,0.0,0.0,0.0,0.0,0.0,0.0,0.0,0.0,0.0,0.0,0.0,0.0,1.0964,1.1068,1.0877,1.037,0.9419,0.8588,0.0,0.0,0.0,0.0,0.0,0.0,0.0,0.0,0.0,0.0,0.0,0.0,0.0,0.0,0.0,0.0,0.0,0.0,0.0,0.0,0.0,0.0,0.0,0.0,0.0,0.0,0.0,0.0,0.0,0.0,0.0,0.0,0.0,0.0,0.0,0.0,0.0,0.0,0.0,0.0,0.0,0.0,0.0,0.0,0.0,0.0,0.0,0.0,0.0,0.0,0.0,0.0,0.0,0.0,0.0,0.0,0.0,0.0,0.0,0.0,0.0,0.0,0.0,0.0,0.0,0.0,0.0,0.0,0.0,0.0,0.0,0.0,0.0,0.0,0.0,0.0,0.0,0.0,0.0,0.0,0.0,0.0,0.0,0.0,0.0,0.0,0.0,0.0,0.0,0.0,0.0,0.0,0.0,0.0,0.0,0.0,0.0,0.0,0.0,0.0,0.0,0.0,0.0,0.0,0.0,0.0,0.0,0.0,1.1128,1.1661,1.1953,1.1778,1.1115,0.9996,0.9023,0.0,0.0,0.0,0.0,0.0,0.0,0.0,0.0,0.0,0.0,0.0,0.0,0.0,0.0,0.0,0.0,0.0,0.0,0.0,0.0,0.0,0.0,0.0,0.0,0.0,0.0,0.0,0.0,0.0,0.0,0.0,0.0,0.0,0.0,0.0,0.0,0.0,0.0,0.0,0.0,0.0,0.0,0.0,0.0,0.0,0.0,0.0,0.0,0.0,0.0,0.0,0.0,0.0,0.0,0.0,0.0,0.0,0.0,0.0,0.0,0.0,0.0,0.0,0.0,0.0,0.0,0.0,0.0,0.0,0.0,0.0,0.0,0.0,0.0,0.0,0.0,0.0,0.0,0.0,0.0,0.0,0.0,0.0,0.0,0.0,0.0,0.0,0.0,0.0,0.0,0.0,0.0,0.0,0.0,0.0,0.0,0.0,0.0,0.0,0.0,0.0,0.0,0.0,0.0,0.0,0.0,0.0,0.0,1.1773,1.2353,1.2435,1.2251,1.181,1.0497,0.9379,0.0,0.0,0.0,0.0,0.0,0.0,0.0,0.0,0.0,0.0,0.0,0.0,0.0,0.0,0.0,0.0,0.0,0.0,0.0,0.0,0.0,0.0,0.0,0.0,0.0,0.0,0.0,0.0,0.0,0.0,0.0,0.0,0.0,0.0,0.0,0.0,0.0,0.0,0.0,0.0,0.0,0.0,0.0,0.0,0.0,0.0,0.0,0.0,0.0,0.0,0.0,0.0,0.0,0.0,0.0,0.0,0.0,0.0,0.0,0.0,0.0,0.0,0.0,0.0,0.0,0.0,0.0,0.0,0.0,0.0,0.0,0.0,0.0,0.0,0.0,0.0,0.0,0.0,0.0,0.0,0.0,0.0,0.0,0.0,0.0,0.0,0.0,0.0,0.0,0.0,0.0,0.0,0.0,0.0,0.0,0.0,0.0,0.0,0.0,0.0,0.0,0.0,0.0,0.0,0.0,0.0,0.0,0.0,1.1808,1.2734,1.2449,1.2196,1.2027,1.0487,0.9408,0.0,0.0,0.0,0.0,0.0,0.0,0.0,0.0,0.0,0.0,0.0,0.0,0.0,0.0,0.0,0.0,0.0,0.0,0.0,0.0,0.0,0.0,0.0,0.0,0.0,0.0,0.0,0.0,0.0,0.0,0.0,0.0,0.0,0.0,0.0,0.0,0.0,0.0,0.0,0.0,0.0,0.0,0.0,0.0,0.0,0.0,0.0,0.0,0.8344,0.0,0.0,0.0,0.0,0.0,0.0,0.0,0.0,0.0,0.0,0.0,0.0,0.0,0.0,0.0,0.0,0.0,0.0,0.0,0.0,0.0,0.0,0.0,0.0,0.0,0.0,0.0,0.0,0.0,0.0,0.0,0.0,0.0,0.0,0.0,0.0,0.0,0.0,0.0,0.0,0.0,0.0,0.0,0.0,0.0,0.0,0.0,0.0,0.0,0.0,0.0,0.0,0.0,0.0,0.0,0.0,0.0,0.0,0.0,1.2193,1.3125,1.2688,1.2283,1.1929,1.0184,0.9062,0.0,0.0,0.0,0.0,0.0,0.0,0.0,0.0,0.0,0.0,0.0,0.0,0.0,0.0,0.0,0.0,0.0,0.0,0.0,0.0,0.0,0.0,0.0,0.0,0.0,0.0,0.0,0.0,0.0,0.0,0.0,0.0,0.0,0.0,0.0,0.0,0.0,0.0,0.0,0.0,0.0,0.0,0.0,0.0,0.0,0.0,0.0,0.0,0.0,0.0,0.0,0.0,0.0,0.0,0.0,0.0,0.0,0.0,0.0,0.0,0.0,0.0,0.0,0.0,0.0,0.0,0.0,0.0,0.0,0.0,0.0,0.0,0.0,0.0,0.0,0.0,0.0,0.0,0.0,0.0,0.0,0.0,0.0,0.0,0.0,0.0,0.0,0.0,0.0,0.0,0.0,0.0,0.0,0.0,0.0,0.0,0.0,0.0,0.0,0.0,0.0,0.0,0.0,0.0,0.0,0.0,0.0,1.1987,1.2685,1.3489,1.2943,1.238,1.1796,0.9844,0.8626,0.8297,0.0,0.0,0.0,0.0,0.0,0.0,0.0,0.0,0.0,0.0,0.0,0.0,0.0,0.0,0.0,0.0,0.0,0.0,0.0,0.0,0.0,0.0,0.0,0.0,0.0,0.0,0.0,0.0,0.0,0.0,0.0,0.0,0.0,0.0,0.0,0.0,0.0,0.0,0.6912,0.8126,0.0,0.0,0.0,0.0,0.0,0.0,0.0,0.0,0.9698,0.0,0.0,0.0,0.0,0.0,0.0,0.0,0.0,0.0,0.0,0.0,0.0,0.0,0.0,0.0,0.0,0.0,0.0,0.0,0.0,0.0,0.0,0.0,0.0,0.0,0.0,0.0,0.0,0.0,0.0,0.0,0.0,0.0,0.0,0.0,0.0,0.0,0.0,0.0,0.0,0.0,0.0,0.0,0.0,0.0,0.0,0.0,0.0,0.0,0.0,0.0,0.0,0.0,0.0,0.0,0.0,1.1403,1.2161,1.2916,1.3707,1.2795,1.2144,1.1846,0.977,0.8376,0.7824,0.0,0.0,0.0,0.0,0.0,0.0,0.0,0.0,0.0,0.0,0.0,0.0,0.0,0.0,0.0,0.0,0.0,0.0,0.0,0.0,0.0,0.0,0.0,0.0,0.0,0.0,0.0,0.0,0.0,0.0,0.0,0.0,0.0,0.0,0.0,0.0,0.0,0.0,0.0,0.8569,0.9285,0.0,0.0,0.0,0.0,0.0,0.0,0.0,0.0,1.0313,0.0,0.0,0.0,0.0,0.0,0.0,0.0,0.0,0.0,0.0,0.0,0.0,0.0,0.0,0.0,0.0,0.0,0.0,0.0,0.0,0.0,0.0,0.0,0.0,0.0,0.0,0.0,0.0,0.0,0.0,0.0,0.0,0.0,0.0,0.0,0.0,0.0,0.0,0.0,0.0,0.0,0.0,0.0,0.0,0.0,0.0,0.0,0.0,0.0,0.0,0.0,0.0,0.0,0.0,0.0,1.1263,1.234,1.3084,1.3403,1.272,1.2142,1.1655,0.9479,0.8079,0.0,0.0,0.0,0.0,0.0,0.0,0.0,0.0,0.0,0.0,0.0,0.0,0.0,0.0,0.0,0.0,0.0,0.0,0.0,0.0,0.0,0.0,0.0,0.0,0.0,0.0,0.0,0.0,0.0,0.0,0.0,0.0,0.0,0.0,0.0,0.0,0.0,0.0,0.0,0.0,0.9219,0.9735,1.0053,0.0,0.0,0.0,0.0,0.0,0.0,1.102,1.1065,0.0,0.0,0.0,0.0,0.0,0.0,0.0,0.0,0.0,0.0,0.0,0.0,0.0,0.0,0.0,0.0,0.0,0.0,0.0,0.0,0.0,0.0,0.0,0.0,0.0,0.0,0.0,0.0,0.0,0.0,0.0,0.0,0.0,0.0,0.0,0.0,0.0,0.0,0.0,0.0,0.0,0.0,0.0,0.0,0.0,0.0,0.0,0.0,0.0,0.0,0.0,0.0,0.0,0.0,0.0,1.1192,1.2554,1.3225,1.3145,1.269,1.2115,1.1401,0.9222,0.7868,0.0,0.0,0.0,0.0,0.0,0.0,0.0,0.0,0.0,0.0,0.0,0.0,0.0,0.0,0.0,0.0,0.0,0.0,0.0,0.0,0.0,0.0,0.0,0.0,0.0,0.0,0.0,0.0,0.0,0.0,0.0,0.0,0.0,0.0,0.0,0.0,0.0,0.0,0.0,0.0,0.0,1.0386,1.0424,1.0605,0.0,0.0,0.0,0.0,1.1737,1.1803,0.0,0.0,0.0,0.0,0.0,0.0,0.0,0.0,0.0,0.0,0.0,0.0,0.0,0.0,0.0,0.0,0.0,0.0,0.0,0.0,0.0,0.0,0.0,0.0,0.0,0.0,0.0,0.0,0.0,0.0,0.0,0.0,0.0,0.0,0.0,0.0,0.0,0.0,0.0,0.0,0.0,0.0,0.0,0.0,0.0,0.0,0.0,0.0,0.0,0.0,0.0,0.0,0.0,0.0,0.0,0.0,1.1388,1.2751,1.3431,1.3335,1.2635,1.1898,1.1147,0.9165,0.7886,0.0,0.0,0.0,0.0,0.0,0.0,0.0,0.0,0.0,0.0,0.0,0.0,0.0,0.0,0.0,0.0,0.0,0.0,0.0,0.0,0.0,0.0,0.0,0.0,0.0,0.0,0.0,0.0,0.0,0.0,0.0,0.0,0.0,0.0,0.0,0.0,0.0,0.0,0.0,0.0,0.0,1.1249,1.1276,1.1783,1.216,0.0,0.0,1.2574,1.2554,1.2623,0.0,0.0,0.0,0.0,0.0,0.0,0.0,0.0,0.0,0.0,0.0,0.0,0.0,0.0,0.0,0.0,0.0,0.0,0.0,0.0,0.0,0.0,0.0,0.0,0.0,0.0,0.0,0.0,0.0,0.0,0.0,0.0,0.0,0.0,0.0,0.0,0.0,0.0,0.0,0.0,0.0,0.0,0.0,0.0,0.0,0.0,0.0,0.0,0.0,0.0,0.0,0.0,0.0,0.0,0.0,1.0847,1.1357,1.2661,1.331,1.3209,1.2394,1.1638,1.0953,0.8982,0.7762,0.0,0.0,0.0,0.0,0.0,0.0,0.0,0.0,0.0,0.0,0.0,0.0,0.0,0.0,0.0,0.0,0.0,0.0,0.0,0.0,0.0,0.0,0.0,0.0,0.0,0.0,0.0,0.0,0.0,0.0,0.0,0.0,0.0,0.0,0.0,0.0,0.0,0.0,0.0,0.0,0.0,0.0,1.2096,1.243,0.0,0.0,0.0,1.3888,1.3851,0.0,0.0,0.0,0.0,0.0,0.0,0.0,0.0,0.0,0.0,0.0,0.0,0.0,0.0,0.0,0.0,0.0,0.0,0.0,0.0,0.0,0.0,0.0,0.0,0.0,0.0,0.0,0.0,0.0,0.0,0.0,0.0,0.0,0.0,0.0,0.0,0.0,0.0,0.0,0.0,0.0,0.0,0.0,0.0,0.0,0.0,0.0,0.0,0.0,0.0,0.0,0.0,0.0,0.0,0.0,0.0,0.0,1.1514,1.2559,1.3097,1.3085,1.2159,1.1375,1.0747,0.8923,0.0,0.0,0.0,0.0,0.0,0.0,0.0,0.0,0.0,0.0,0.0,0.0,0.0,0.0,0.0,0.0,0.0,0.0,0.0,0.0,0.0,0.0,0.0,0.0,0.0,0.0,0.0,0.6105,0.0,0.0,0.0,0.0,0.0,0.0,0.0,0.0,0.0,0.0,0.0,0.0,0.0,0.0,1.2678,1.3126,1.3539,1.3946,0.0,0.0,1.5314,1.5248,1.5059,1.452,0.0,0.0,0.0,0.0,0.0,0.0,0.0,0.0,0.0,0.0,0.0,0.0,0.0,0.0,0.0,0.0,0.0,0.0,0.0,0.0,0.0,0.0,0.0,0.0,0.0,0.0,0.0,0.0,0.0,0.0,0.0,0.0,0.0,0.0,0.0,0.0,0.0,0.0,0.0,0.0,0.0,0.0,0.0,0.0,0.0,0.0,0.0,0.0,0.0,0.0,0.0,0.0,0.0,0.0,0.0,1.2032,1.2565,1.2944,1.3131,1.196,1.111,1.0611,0.9076,0.7995,0.0,0.0,0.0,0.0,0.0,0.0,0.0,0.0,0.0,0.0,0.0,0.0,0.0,0.0,0.0,0.0,0.0,0.0,0.0,0.0,0.0,0.0,0.0,0.0,0.0,0.0,0.0,0.0,0.0,0.0,0.0,0.0,0.0,0.0,0.0,0.0,0.0,0.0,0.0,0.0,0.0,1.45,1.4487,1.5643,1.6508,0.0,0.0,1.6807,1.6673,1.6031,1.5263,1.4424,0.0,0.0,0.0,0.0,0.0,0.0,0.0,0.0,0.0,0.0,0.0,0.0,0.0,0.0,0.0,0.0,0.0,0.0,0.0,0.0,0.0,0.0,0.0,0.0,0.0,0.0,0.0,0.0,0.0,0.0,0.0,0.0,0.0,0.0,0.0,0.0,0.0,0.0,0.0,0.0,0.0,0.0,0.0,0.0,0.0,0.0,0.0,0.0,0.0,0.0,0.0,0.0,0.0,1.0856,1.2081,1.2443,1.2801,1.3126,1.1957,1.1045,1.049,0.9072,0.809,0.0,0.0,0.0,0.0,0.0,0.0,0.0,0.0,0.0,0.0,0.0,0.0,0.0,0.0,0.0,0.0,0.0,0.0,0.0,0.0,0.0,0.0,0.0,0.0,0.0,0.0,0.0,0.0,0.8209,0.8632,0.9002,0.0,0.0,0.0,0.0,0.0,0.0,0.0,0.0,0.0,0.0,1.5004,1.5851,1.6477,0.0,0.0,1.7498,1.7489,1.7329,1.6634,1.5692,1.4485,1.3575,0.0,0.0,0.0,0.0,0.0,0.0,0.0,0.0,0.0,0.0,0.0,0.0,0.0,0.0,0.0,0.0,0.0,0.0,0.0,0.0,0.0,0.0,0.0,0.0,0.0,0.0,0.0,0.0,0.0,0.0,0.0,0.0,0.0,0.0,0.0,0.0,0.0,0.0,0.0,0.0,0.0,0.0,0.0,0.0,0.0,0.0,0.0,0.0,0.0,0.0,0.0,0.0,1.0947,1.2177,1.232,1.2579,1.2979,1.1841,1.0931,1.025,0.9131,0.8309,0.0,0.0,0.0,0.0,0.0,0.0,0.0,0.0,0.0,0.0,0.0,0.0,0.0,0.0,0.0,0.0,0.0,0.0,0.0,0.0,0.0,0.0,0.0,0.0,0.0,0.0,0.0,0.0,0.8725,0.9032,0.9456,0.0,0.0,0.0,0.0,0.0,0.0,0.0,0.0,0.0,0.0,1.5856,1.6833,1.7244,1.7641,1.8075,1.8159,1.8104,1.7899,1.7023,1.6047,1.5118,0.0,0.0,0.0,0.0,0.0,0.0,0.0,0.0,0.0,0.0,0.0,0.0,0.0,0.0,0.0,0.0,0.0,0.0,0.0,0.0,0.0,0.0,0.0,0.0,0.0,0.0,0.0,0.0,0.0,0.0,0.8947,0.0,0.0,0.0,0.0,0.0,0.0,0.0,0.0,0.0,0.0,0.0,0.0,0.0,0.0,0.0,0.0,0.0,0.0,0.0,0.0,0.0,0.0,0.0,1.2361,1.219,1.2232,1.2494,1.1585,1.0731,0.9941,0.9366,0.8642,0.7737,0.0,0.0,0.0,0.0,0.0,0.0,0.0,0.0,0.0,0.0,0.0,0.0,0.0,0.0,0.0,0.0,0.0,0.0,0.0,0.0,0.0,0.0,0.0,0.0,0.0,0.0,0.9257,0.9394,0.948,0.0,0.0,0.0,0.0,0.0,0.0,0.0,0.0,0.0,0.0,1.6037,1.7344,1.7395,1.8172,1.8684,1.8655,1.8722,1.8703,1.8485,1.7246,1.64,0.0,0.0,0.0,0.0,0.0,0.0,0.0,0.0,0.0,0.0,0.0,0.0,0.0,0.0,0.0,0.0,0.0,0.0,0.0,0.0,0.0,0.0,0.0,0.0,0.0,0.0,0.0,0.9004,0.9004,0.0,0.0,0.0,0.0,0.0,0.0,0.0,0.0,0.0,0.0,0.0,1.0929,1.0802,0.0,0.0,0.0,0.0,0.0,0.0,0.0,0.0,0.0,0.0,0.0,0.0,1.1071,1.2064,1.1878,1.1926,1.22,1.1339,1.0494,0.979,0.9158,0.8551,0.7927,0.0,0.0,0.0,0.0,0.0,0.0,0.0,0.0,0.0,0.0,0.0,0.0,0.0,0.0,0.0,0.0,0.0,0.0,0.0,0.0,0.0,0.0,0.0,0.0,0.0,0.9445,0.0,0.0,0.0,0.0,0.0,0.0,0.0,0.0,0.0,0.0,0.0,1.4651,1.5724,1.6589,1.7381,1.8042,1.8392,1.8625,0.0,0.0,0.0,0.0,0.0,0.0,0.0,0.0,0.0,0.0,0.0,0.0,0.0,0.0,1.6758,1.5937,1.5793,1.5738,1.5548,0.0,0.0,0.0,0.0,0.0,0.0,0.0,0.0,0.0,0.0,0.0,0.0,0.0,0.0,0.0,0.0,0.9902,0.0,0.0,0.0,0.0,0.0,0.0,0.0,0.0,1.171,1.2113,1.2238,1.2124,1.2044,0.0,1.1888,1.1154,0.0,0.0,0.0,0.0,0.0,0.0,0.0,0.0,1.1151,1.1891,1.1731,1.1714,1.1836,1.1105,1.0362,0.9687,0.8998,0.8503,0.8252,0.8318,0.8396,0.0,0.0,0.0,0.0,0.0,0.0,0.0,0.0,0.0,0.0,0.0,0.0,0.0,0.0,0.0,0.0,0.0,0.0,0.0,0.0,0.0,0.0,0.0,1.0218,0.0,0.0,0.0,0.0,0.0,0.0,0.0,0.0,0.0,1.4415,1.485,1.5456,1.6418,1.6988,1.7556,1.8206,0.0,0.0,0.0,0.0,0.0,0.0,0.0,1.7434,1.7466,1.6818,1.6501,1.706,1.7351,1.7679,1.8139,0.0,0.0,1.7069,1.6906,1.6858,1.6684,1.6715,1.6814,1.6987,1.7255,1.7502,0.0,0.0,0.0,0.0,0.0,0.0,0.0,0.0,1.1626,1.1605,0.0,1.1616,0.0,0.0,0.0,0.0,0.0,0.0,0.0,0.0,1.2703,1.3122,1.3441,1.3093,1.292,1.2903,1.2474,1.2026,1.1593,1.0811,0.0,0.0,0.0,0.0,0.0,0.0,1.1602,1.1799,1.1698,1.1597,1.1472,1.0947,1.0308,0.9596,0.8864,0.8585,0.8694,0.8472,0.8464,0.8694,0.8532,0.0,0.0,0.0,0.0,0.0,0.0,0.0,0.0,0.0,0.0,0.0,0.0,0.0,0.0,0.0,0.0,0.0,0.0,0.0,0.0,1.1,0.0,0.0,0.0,0.0,0.0,0.0,0.0,0.0,0.0,0.0,1.4542,1.5492,1.6233,1.6329,0.0,0.0,0.0,0.0,1.8234,1.822,1.8721,1.9013,1.877,1.8642,1.8643,1.8844,0.0,0.0,1.8468,1.856,1.8633,1.8761,1.8797,1.8692,1.8477,1.837,1.8225,1.7822,1.7804,1.7946,1.8205,1.8695,1.9207,1.2788,0.0,0.0,0.0,0.0,1.2277,1.2406,1.2524,1.2535,1.2512,1.2512,1.2533,0.0,0.0,0.0,0.0,0.0,0.0,1.3085,1.3002,1.3407,1.3638,1.3647,1.3519,1.3462,1.3472,1.3322,1.3036,1.2615,1.2355,1.1866,1.1191,0.0,0.0,0.0,0.0,1.1797,1.1774,1.1397,1.1161,1.1065,1.0421,0.9741,0.9109,0.8755,0.872,0.904,0.913,0.9176,0.9193,0.9006,0.0,0.0,0.0,0.0,0.0,0.0,0.0,0.0,0.0,0.0,0.0,0.0,0.0,0.0,0.0,0.0,0.0,0.0,0.0,1.07,1.1469,1.1746,0.0,0.0,0.0,0.0,0.0,0.0,0.0,0.0,0.0,1.5363,1.5723,1.6196,0.0,0.0,1.7478,1.7706,1.8176,1.8482,1.8562,0.0,0.0,0.0,1.8983,1.8835,1.8889,1.9259,1.9542,1.9572,1.994,2.0232,2.0246,1.9914,1.9645,1.9649,1.9167,1.8781,1.8702,1.883,1.8992,1.9179,1.9585,1.9963,1.4869,1.426,1.3821,1.3655,1.3665,1.3831,1.39,1.3887,1.3887,1.3802,1.3659,1.3655,1.3376,1.2964,1.2964,0.0,0.0,0.0,1.4134,1.4062,1.4497,1.4524,1.424,1.4217,1.4049,1.3732,1.3732,1.3518,1.3065,1.3078,1.2822,1.2301,0.0,0.0,1.1667,1.1925,1.1964,1.1757,1.1541,1.126,1.0861,1.0019,0.932,0.8849,0.875,0.8818,0.9043,0.9221,0.9333,0.9352,0.9215,0.8996,0.0,0.0,0.0,0.0,0.0,0.0,0.0,0.0,0.0,0.0,0.0,0.7837,0.0,0.0,0.0,0.0,0.9923,1.0794,1.1603,1.2122,0.0,0.0,0.0,0.0,0.0,0.0,0.0,1.4667,1.5311,1.5889,1.6306,1.6458,1.6591,1.6842,1.7228,1.7562,1.7753,0.0,1.8724,1.8777,1.9203,1.9507,1.9488,1.9484,1.9539,1.9689,2.008,2.046,2.0609,2.0924,2.1114,2.1075,2.0835,2.0622,2.0714,2.0143,1.9672,1.9716,1.9793,1.9969,2.0236,2.0557,2.0804,1.6472,1.6392,1.5449,1.5014,1.4995,1.5337,1.5488,1.5503,1.5493,1.5293,1.4951,1.4955,1.4683,1.4229,1.421,0.0,1.4559,1.5046,1.5204,1.5201,1.5651,1.5503,1.4943,1.4943,1.4569,1.3852,1.3838,1.3662,1.3322,1.3304,1.3281,1.3204,1.2413,1.182,1.1486,1.2048,1.2149,1.175,1.1922,1.1581,1.0701,0.9697,0.9045,0.8729,0.8847,0.8897,0.8841,0.8979,0.912,0.9264,0.9218,0.9035,0.871,0.0,0.0,0.0,0.0,0.0,0.0,0.0,0.0,0.0,0.0,0.0,0.0,0.0,0.0,0.0,1.095,0.0,1.2728,1.2898,0.0,0.0,0.0,1.4122,1.4548,1.4788,1.5138,1.5618,0.0,0.0,1.7274,0.0,1.7296,1.6878,1.7476,1.7939,1.7939,1.851,1.8935,1.8958,1.939,1.9705,1.9734,2.001,2.0373,2.0677,2.0809,2.0943,2.1419,2.1545,2.1556,2.157,2.1518,2.1469,2.1496,2.1102,2.0844,2.0666,2.0585,2.072,2.1159,2.1388,2.1602,1.6955,1.7223,1.7074,1.6728,1.6248,1.6346,1.6395,1.6385,1.6395,1.6342,1.6239,1.6239,1.5934,1.5393,1.5226,1.5119,1.5045,1.5517,1.5523,1.5151,1.5256,1.4989,1.448,1.4455,1.437,1.4183,1.4191,1.422,1.4269,1.4269,1.3951,1.3375,1.3139,1.2894,1.2596,1.2715,1.252,1.2005,1.1609,1.0867,0.9783,0.9279,0.9,0.8945,0.8964,0.9071,0.9255,0.9293,0.918,0.8945,0.9005,0.8882,0.8555,0.8494,0.0,0.0,0.0,0.0,0.0,0.0,0.0,0.0,0.0,0.8503,0.9098,0.0,0.9404,0.0,1.1104,1.2373,1.35,1.3731,0.0,0.0,1.4223,1.435,1.4575,1.5057,1.5383,1.5462,1.6369,1.7135,1.7502,1.7827,1.7964,1.7862,1.8088,1.8293,1.835,1.8896,1.928,1.9318,1.9718,2.0103,2.0153,2.0181,2.0296,2.0683,2.1071,2.1495,2.202,2.2121,2.2121,2.2069,2.1771,2.1574,2.1672,2.1238,2.1004,2.1056,2.0847,2.0698,2.1033,2.129,2.1556,1.7306,1.7591,1.7669,1.7495,1.7142,1.7235,1.7229,1.7138,1.7138,1.6983,1.6728,1.6536,1.6246,1.5854,1.5726,1.5584,1.5439,1.5682,1.5558,1.5154,1.5146,1.4816,1.4211,1.4203,1.4113,1.3941,1.3949,1.3999,1.4115,1.4123,1.3892,1.3434,1.3301,1.3121,1.2907,1.2766,1.2402,1.1834,1.1126,1.0378,0.9644,0.9167,0.8903,0.8903,0.8903,0.9015,0.9211,0.9224,0.9102,0.8856,0.8838,0.8742,0.8585,0.8566,0.8662,0.0,0.0,0.0,0.0,0.0,0.0,0.0,0.0,0.0,0.0,0.0,1.0283,0.0,1.2057,1.2976,1.381,1.3999,1.4237,1.4576,1.471,1.4876,1.5182,1.5571,1.5803,1.5807,1.6696,1.7505,1.8016,1.8368,1.8656,1.8869,1.8981,1.8941,1.8801,1.9217,1.9584,1.9597,1.9838,2.0054,2.0131,2.0042,2.0217,2.0906,2.1294,2.1746,2.2508,2.2671,2.2659,2.2633,2.2478,2.2364,2.2425,2.1953,2.1591,2.1613,2.1262,2.095,2.0983,2.124,2.1554,1.7382,1.7581,1.7642,1.7622,1.7593,1.7844,1.7852,1.7672,1.7638,1.7328,1.6802,1.6428,1.6146,1.5942,1.5926,1.5814,1.5632,1.564,1.5446,1.5107,1.508,1.4696,1.4024,1.3989,1.3815,1.3473,1.3466,1.349,1.3482,1.3482,1.3484,1.3438,1.3149,1.2889,1.2651,1.2426,1.201,1.139,1.0566,1.0064,0.98,0.9146,0.8791,0.8791,0.8791,0.8844,0.8969,0.8969,0.8929,0.8856,0.8695,0.8648,0.8731,0.8834,0.8935,0.0,0.9346,0.0,0.0,0.0,0.0,0.0,0.0,0.0,0.0,1.0773,1.1406,1.2859,1.326,1.3617,1.4003,1.4191,1.4492,1.5028,1.5202,1.5481,1.6024,1.6209,1.6298,1.6389,1.6997,1.7773,1.867,1.897,1.9284,1.9648,1.9723,1.9547,1.9246,1.9497,1.9786,1.9811,1.9811,1.9849,1.9837,1.9824,2.015,2.1118,2.1444,2.1859,2.2784,2.3032,2.3083,2.3098,2.3192,2.3339,2.3418,2.2832,2.2397,2.2335,2.1755,2.1231,2.1144,2.1338,2.164,1.6636,1.6987,1.7321,1.7303,1.7072,1.743,1.7571,1.7529,1.7365,1.7129,1.6858,1.6629,1.6413,1.6233,1.6103,1.5783,1.5291,1.5291,1.5014,1.4533,1.4389,1.4063,1.3613,1.3433,1.3331,1.3255,1.3266,1.3345,1.3488,1.3488,1.3355,1.3113,1.3028,1.264,1.1953,0.0,0.0,0.0,1.0245,0.9759,0.9333,0.8971,0.8791,0.8791,0.8791,0.0,0.8844,0.8857,0.8762,0.8583,0.8644,0.0,0.0,0.0,0.0,0.0,0.0,0.0,0.0,0.0,0.0,0.0,1.1203,1.1226,1.1478,1.1742,1.2308,1.3292,1.3608,1.4048,1.4797,1.5087,1.5321,1.5548,1.5637,1.5929,1.6561,1.6668,1.6751,1.6932,1.7857,1.8697,1.9281,1.9558,1.9673,1.9773,1.9798,1.9761,1.966,1.9723,1.9811,1.9811,1.9811,1.9811,1.9811,1.9811,2.0037,2.0691,2.1231,2.1733,2.2332,2.2844,2.3095,2.3108,2.3256,2.3448,2.3514,2.3136,2.2729,2.2696,2.2099,2.1556,2.1375,2.1471,2.1662,1.6384,0.0,1.6846,1.6815,0.0,1.678,1.6771,1.6626,1.672,1.6595,1.635,1.614,1.593,1.5736,1.5586,1.5196,1.4651,1.4651,1.4346,1.3811,1.3702,1.3455,1.3065,1.2955,1.2845,1.2764,1.2771,1.2801,1.2893,1.29,1.2816,1.2669,1.249,1.2218,1.1894,1.1588,1.1219,1.0705,1.0107,0.9678,0.9452,0.9018,0.8791,0.8791,0.0,0.0,0.0,0.0,0.0,0.0,0.0,0.0,0.0,0.0,0.0,1.0355,1.0781,1.1112,1.1393,1.1722,1.2015,1.223,1.2621,1.2704,1.2416,1.2972,1.3643,1.4359,1.45,1.4883,1.5725,1.5961,1.6115,1.6315,1.6373,1.6539,1.6848,1.6967,1.7123,1.7485,1.813,1.8806,1.9372,1.9616,1.9695,1.9708,1.976,1.9798,1.9811,1.9811,1.9811,1.9811,1.9811,1.9811,1.9811,1.9811,2.0012,2.0591,2.1143,2.1683,2.2207,2.2746,2.3095,2.3123,2.333,2.3461,2.3218,2.3007,2.2762,2.2418,2.2035,2.1725,2.1614,2.1698,2.1853,1.6121,1.6453,1.6332,1.6234,1.6174,1.6091,1.5837,1.5489,0.0,0.0,0.0,1.5492,1.5286,1.5079,1.4834,1.4434,1.3959,1.3863,1.3587,1.3113,1.3076,1.2901,1.2652,1.2614,1.2457,1.2273,1.2248,1.2222,1.2194,1.2187,1.2194,1.2168,1.1931,1.1839,1.1919,1.1448,1.1053,1.0764,1.012,0.9733,0.9687,0.9212,0.8958,0.8958,0.8911,0.8858,0.8871,0.8818,0.8724,0.8571,0.8701,0.8838,0.8949,0.9475,0.9979,1.045,1.0931,1.1316,1.158,1.2101,1.2625,1.3088,1.3805,1.3965,1.335,1.4021,1.4705,1.5278,1.5325,1.5634,1.6388,1.6535,1.6636,1.6884,1.6934,1.6982,1.7088,1.7223,1.7489,1.796,1.833,1.8687,1.9164,1.9421,1.9591,1.9591,1.9695,1.9773,1.9798,1.9811,1.9811,1.9811,1.9811,1.9811,1.9811,1.9811,2.0012,2.0402,2.1042,2.1644,2.2108,2.2684,2.3058,2.3095,2.3363,2.3309,2.2927,2.2764,2.2538,2.2045,2.1831,2.1747,2.1807,2.1914,2.2044,1.5374,1.5581,1.5743,1.5637,1.538,1.5535,1.5183,1.4568,1.5031,1.5298,1.5359,1.5084,1.4874,1.4662,1.4223,1.3816,1.3396,1.2975,1.2785,0.0,1.2578,1.2601,1.2752,1.2602,1.2375,1.2139,1.2139,1.2011,1.18,1.1781,1.1781,1.1774,1.1742,1.1601,1.1412,1.1212,1.098,1.0709,1.0276,0.9933,0.9701,0.962,0.9566,0.9567,0.9291,0.9151,0.913,0.8911,0.8791,0.8777,0.8992,0.9237,0.9495,1.003,1.0609,1.1126,1.1648,1.206,1.2322,1.2959,1.3503,1.3909,1.44,1.4523,1.4182,1.4245,1.4539,1.501,1.5289,1.5517,1.5889,1.6276,1.649,1.653,1.6695,1.6996,1.7426,1.7626,1.788,1.8367,1.8748,1.8893,1.9002,1.9263,1.946,1.9565,1.9578,1.9669,1.9734,1.9811,1.9811,1.9811,1.9811,1.9811,1.9811,1.9811,1.9861,1.9912,2.0815,2.1518,2.1631,2.2483,2.3045,2.3095,2.3263,2.3198,2.2831,2.2571,2.2273,2.1977,2.1677,2.1545,2.1712,2.1864,2.2018,1.4615,1.4706,1.4796,1.4733,1.4606,1.4512,1.4272,1.3981,1.3925,1.4118,1.4389,1.4194,1.3952,1.371,1.3423,1.305,1.2616,1.2434,1.2286,1.2192,1.2126,1.2017,1.1922,1.1834,1.1575,1.1245,1.124,1.1126,1.0921,1.1005,1.0991,1.0924,1.1093,1.1126,1.0983,1.1024,1.1021,1.0919,1.0536,1.0236,0.9941,0.9766,0.9701,0.9708,0.9385,0.9176,0.9176,0.8945,0.8791,0.8791,0.9048,0.929,0.9504,1.0128,1.0705,1.1175,1.1911,1.2473,1.2824,1.3684,1.4301,1.4469,1.4883,1.5063,1.4924,1.4904,1.5072,1.546,1.5773,1.6047,1.6329,1.6677,1.692,1.6999,1.7185,1.7381,1.7615,1.7781,1.7955,1.819,1.8491,1.8666,1.8666,1.8972,1.9198,1.9277,1.9382,1.9525,1.9578,1.9591,1.963,1.9747,1.9811,1.9811,1.9798,1.9811,1.9811,1.9811,2.0752,2.1393,2.1543,2.2397,2.2995,2.3085,2.3056,2.276,2.2325,2.2037,2.1747,2.1363,2.1345,2.1352,2.1471,2.164,2.1902,1.4018,1.4027,1.3956,1.3956,1.3902,1.355,1.3395,1.3348,1.2805,1.2749,1.3059,1.3146,1.3019,1.2772,1.2552,1.2266,1.1932,1.1792,1.1657,1.1534,1.154,1.1346,1.1091,1.107,1.0838,1.0489,1.0443,1.0317,1.0152,1.0338,1.0376,1.0242,1.0485,1.0583,1.0597,1.0846,1.0963,1.0997,1.0883,1.0665,1.0321,1.0042,0.9895,0.9875,0.9593,0.9404,0.9383,0.9145,0.8998,0.9018,0.922,0.9428,0.9621,1.0246,1.081,1.1291,1.2092,1.2807,1.3359,1.4227,1.4792,1.4889,1.5206,1.541,1.542,1.542,1.5536,1.5826,1.6083,1.6375,1.6638,1.6927,1.7197,1.734,1.7465,1.749,1.7551,1.7648,1.7747,1.776,1.8032,1.8259,1.8354,1.8625,1.8893,1.9025,1.9198,1.9343,1.9394,1.9407,1.9499,1.9643,1.9747,1.976,1.9734,1.9695,1.9695,1.9708,2.0632,2.1245,2.1586,2.2324,2.2902,2.292,2.2711,2.2296,2.1704,2.1438,2.1186,2.0819,2.0847,2.102,2.1169,2.1363,2.1676,1.3812,1.3773,1.354,1.3451,1.3381,1.2967,1.2686,1.245,1.1771,1.137,1.1385,1.2116,1.2323,1.2061,1.1644,1.1423,1.1329,1.0872,1.069,1.0726,1.0716,1.07,1.0647,1.0646,1.0512,1.026,1.0214,1.0062,0.9837,1.0065,1.0212,1.017,1.0057,1.0067,1.026,1.0628,1.0795,1.0743,1.124,1.1321,1.0935,1.0644,1.0512,1.0521,1.0187,1.0018,0.9978,0.976,0.9614,0.9614,0.9737,0.9951,1.0208,1.0697,1.1208,1.1765,1.2422,1.3177,1.4091,1.4457,1.4791,1.5129,1.5289,1.5391,1.5405,1.5396,1.5493,1.5677,1.5855,1.6095,1.6392,1.6566,1.6722,1.686,1.6994,1.7053,1.7067,1.7165,1.7259,1.7259,1.7537,1.7808,1.795,1.8247,1.8597,1.8906,1.9053,1.9198,1.9302,1.9329,1.9329,1.9447,1.9604,1.9643,1.9512,1.9447,1.946,1.9546,2.0319,2.0944,2.1366,2.2031,2.279,2.2345,2.2243,2.1835,2.1317,2.0957,2.0847,2.0616,2.0548,2.0598,2.0922,2.1106,2.1399,1.307,1.2905,1.266,1.25,1.2318,1.2134,1.1819,1.1424,1.1138,1.0711,1.031,1.0643,1.0861,1.0982,1.0797,1.0654,1.0521,1.0307,1.0227,1.0248,1.0253,1.0173,1.0028,1.0011,0.9899,0.9682,0.9677,0.9545,0.9333,0.9389,0.9478,0.9597,0.9556,0.9644,0.9846,1.0138,1.0405,1.0752,1.096,1.1143,1.1283,1.1006,1.0767,1.0579,1.0267,1.0105,1.0072,0.9854,0.9701,0.9708,0.9818,0.9991,1.0164,1.0623,1.1112,1.1672,1.2684,1.3601,1.4378,1.4691,1.4907,1.5073,1.5132,1.5167,1.5167,1.5201,1.5274,1.5396,1.5522,1.571,1.5972,1.6181,1.6328,1.6385,1.6499,1.6584,1.6588,1.6641,1.6698,1.6825,1.7022,1.7281,1.7534,1.7868,1.8247,1.8572,1.8706,1.8786,1.8894,1.8921,1.8921,1.8947,1.9067,1.9225,1.9329,1.938,1.9355,1.9491,2.0008,2.0553,2.074,2.1265,2.1751,2.1613,2.1379,2.1137,2.0774,2.0416,2.0231,2.0207,2.0334,2.0372,2.0611,2.0698,2.0908,1.2353,1.2092,1.1882,1.1672,1.148,1.1252,1.0971,1.0589,1.0334,0.9889,0.9429,0.9363,0.9469,0.974,0.9873,0.9855,0.9717,0.9685,0.9618,0.9565,0.952,0.9379,0.9144,0.9144,0.906,0.8929,0.8903,0.8853,0.8726,0.8715,0.8835,0.903,0.9083,0.9244,0.9493,0.9674,1.0038,1.058,1.0635,1.0882,1.1249,1.1123,1.0906,1.0695,1.041,1.0234,1.0249,1.0048,0.9941,0.9956,1.0045,1.0157,1.0298,1.0704,1.1216,1.1855,1.2931,1.3784,1.4282,1.4606,1.4808,1.4858,1.4897,1.4941,1.4985,1.5034,1.516,1.5324,1.549,1.5692,1.5682,1.5875,1.6009,1.6038,1.6138,1.6181,1.6206,1.6181,1.6253,1.6396,1.6538,1.6751,1.7113,1.7465,1.7838,1.8125,1.8218,1.8275,1.8412,1.8466,1.8466,1.8452,1.852,1.8707,1.9092,1.9065,1.9092,1.9253,1.9617,2.0006,2.0104,2.0611,2.0892,2.0923,2.0451,2.0159,2.011,1.9855,1.9759,1.9875,2.0003,2.0131,2.0283,2.0309,2.0422,1.1877,1.1595,1.1331,1.1186,1.1146,1.0464,1.0168,1.004,0.9165,0.8715,0.8683,0.8496,0.8403,0.8505,0.8905,0.9044,0.9035,0.8949,0.8781,0.8554,0.8412,0.8182,0.7966,0.7966,0.801,0.8098,0.8094,0.8149,0.8231,0.8254,0.8357,0.862,0.8632,0.8864,0.9224,0.9304,0.9615,1.016,1.0375,1.0572,1.0761,1.0904,1.0951,1.093,1.0711,1.0557,1.0573,1.0575,1.0539,1.0562,1.0512,1.0604,1.0777,1.1083,1.1689,1.2587,1.3188,1.359,1.3836,1.4085,1.4309,1.4493,1.4604,1.4773,1.4909,1.4987,1.5162,1.5535,1.5858,1.5994,1.5767,1.5801,1.5844,1.5906,1.5919,1.5944,1.5914,1.5889,1.5914,1.5976,1.611,1.6357,1.6765,1.705,1.7368,1.7629,1.7725,1.781,1.803,1.8098,1.8098,1.8098,1.8125,1.8234,1.8533,1.8612,1.8572,1.871,1.909,1.9493,1.9863,2.0175,2.0252,2.0289,2.0055,1.9802,1.9553,1.9459,1.9525,1.9604,1.9733,1.9849,1.9939,2.0105,2.0195,1.0732,1.0314,1.0216,1.0068,0.9887,0.9624,0.9425,0.9217,0.8895,0.8622,0.8476,0.8407,0.8261,0.8119,0.8293,0.8422,0.8531,0.8505,0.8383,0.8219,0.8151,0.8046,0.7904,0.79,0.79,0.79,0.79,0.7918,0.8003,0.8011,0.805,0.8166,0.8276,0.8438,0.8635,0.8914,0.9237,0.9601,0.9807,1.0119,1.0517,1.0488,1.0599,1.0953,1.0783,1.0656,1.0656,1.0629,1.0586,1.0586,1.0586,1.0672,1.0816,1.1232,1.1778,1.2413,1.2843,1.317,1.3444,1.3655,1.3791,1.3868,1.4109,1.4349,1.4554,1.4795,1.5076,1.5444,1.5834,1.5955,1.5933,1.6004,1.6051,1.5883,1.5944,1.5901,1.5659,1.559,1.5633,1.5774,1.5937,1.6185,1.6343,1.6627,1.6881,1.7099,1.72,1.7315,1.7468,1.7523,1.7534,1.7559,1.7559,1.7576,1.7675,1.8043,1.8245,1.8336,1.8569,1.8721,1.901,1.9154,1.9241,1.933,1.929,1.9324,1.9051,1.925,1.9303,1.9395,1.9512,1.9552,1.9603,1.9746,1.9849,0.9669,0.9348,0.9348,0.9253,0.9084,0.8981,0.8829,0.8676,0.8577,0.8432,0.8287,0.8262,0.8162,0.8013,0.7988,0.8059,0.817,0.816,0.8101,0.8,0.7899,0.782,0.7741,0.7679,0.7632,0.7632,0.765,0.7628,0.7654,0.7724,0.7768,0.7775,0.7997,0.8137,0.8238,0.8506,0.8834,0.9122,0.925,0.9598,1.0095,0.9971,1.0121,1.0616,1.0592,1.0575,1.0717,1.0738,1.0777,1.077,1.0819,1.0932,1.1111,1.1466,1.1899,1.2307,1.268,1.3004,1.3263,1.3427,1.3536,1.3599,1.3801,1.4,1.4217,1.4644,1.5006,1.5259,1.5582,1.5813,1.5996,1.6206,1.6252,1.5986,1.5933,1.5821,1.5516,1.5361,1.5337,1.5454,1.5667,1.584,1.5912,1.6196,1.6385,1.6542,1.6659,1.6744,1.6881,1.6923,1.6934,1.6948,1.6934,1.6962,1.7064,1.734,1.7629,1.7761,1.7902,1.8027,1.8179,1.8263,1.8344,1.8398,1.8491,1.8598,1.8759,1.8987,1.9106,1.9184,1.925,1.929,1.9355,1.9407,1.955,0.8825,0.88,0.88,0.8775,0.873,0.8531,0.8407,0.8357,0.8134,0.8063,0.8038,0.8013,0.8038,0.7988,0.7988,0.8,0.8005,0.7917,0.7842,0.7822,0.7592,0.7492,0.7454,0.7298,0.7197,0.7187,0.7139,0.7139,0.7187,0.7389,0.7507,0.7547,0.7757,0.7954,0.8171,0.8219,0.845,0.8727,0.8752,0.8975,0.9478,0.9364,0.955,1.0117,1.0116,1.0284,1.0739,1.0917,1.1009,1.1096,1.124,1.1468,1.1594,1.1774,1.2053,1.2421,1.2785,1.3051,1.3236,1.3379,1.3498,1.3646,1.3768,1.3867,1.4065,1.4555,1.4926,1.4967,1.5202,1.5562,1.5957,1.614,1.6207,1.6169,1.5914,1.5718,1.5531,1.5252,1.5024,1.5098,1.5289,1.5381,1.5464,1.5691,1.5923,1.6028,1.6128,1.621,1.6339,1.6381,1.6324,1.6349,1.6396,1.6467,1.6538,1.6648,1.6885,1.7107,1.7256,1.7415,1.7634,1.7758,1.7868,1.7936,1.8111,1.8207,1.8315,1.852,1.8654,1.8759,1.8866,1.8996,1.9039,1.9104,1.9336,0.8435,0.8262,0.8233,0.8262,0.8233,0.8162,0.8113,0.8137,0.8013,0.7988,0.7988,0.7988,0.7988,0.7988,0.7988,0.7988,0.7985,0.7934,0.7888,0.7811,0.7712,0.7614,0.7512,0.7396,0.7222,0.7131,0.7117,0.7117,0.7117,0.7187,0.7231,0.7279,0.7481,0.7657,0.7742,0.7888,0.8098,0.8166,0.8081,0.8241,0.8655,0.8561,0.8827,0.9482,0.957,0.9803,1.0346,1.0584,1.08,1.1076,1.1166,1.1344,1.1635,1.173,1.1918,1.2248,1.2383,1.2586,1.2839,1.2947,1.3071,1.3255,1.3458,1.3677,1.3871,1.4272,1.4596,1.4688,1.4908,1.5178,1.5435,1.5656,1.5817,1.6049,1.6066,1.5803,1.5386,1.5121,1.5038,1.5049,1.5108,1.5152,1.5196,1.5352,1.5439,1.5512,1.5672,1.5846,1.5889,1.5947,1.6019,1.6019,1.6034,1.612,1.633,1.6535,1.6775,1.6982,1.7076,1.717,1.7316,1.7421,1.749,1.7637,1.7793,1.792,1.802,1.8169,1.8375,1.8431,1.8575,1.8637,1.8662,1.8903,1.9241,0.8162,0.7988,0.7988,0.7988,0.7988,0.7988,0.7988,0.7988,0.7988,0.7988,0.7988,0.7988,0.7988,0.7988,0.7988,0.7988,0.7988,0.7988,0.7962,0.7868,0.7824,0.776,0.7665,0.7549,0.7396,0.7251,0.7205,0.7171,0.7117,0.7117,0.7117,0.7143,0.7279,0.7367,0.737,0.7613,0.7753,0.7749,0.7647,0.7742,0.7966,0.7864,0.8116,0.8732,0.8846,0.9208,0.9801,1.0077,1.045,1.1025,1.1309,1.1592,1.1898,1.194,1.2056,1.2284,1.2354,1.2483,1.2713,1.2802,1.2818,1.2983,1.3155,1.3319,1.3491,1.3775,1.3985,1.4101,1.431,1.4561,1.4776,1.4963,1.5203,1.5428,1.5691,1.5568,1.5052,1.4759,1.4673,1.468,1.471,1.4725,1.4769,1.4931,1.499,1.5049,1.5264,1.5439,1.5449,1.5508,1.561,1.5753,1.5856,1.6004,1.6222,1.6457,1.6687,1.688,1.7039,1.7173,1.7309,1.7364,1.7432,1.7674,1.7864,1.8057,1.8163,1.8281,1.844,1.8399,1.8399,1.8708,1.8922,1.906,1.9354,0.7988,0.7988,0.7988,0.7988,0.7988,0.7988,0.7988,0.7988,0.7988,0.7988,0.7988,0.7988,0.7988,0.7988,0.7988,0.7988,0.7988,0.7988,0.7985,0.7962,0.7881,0.7824,0.7773,0.7662,0.7539,0.7393,0.7379,0.7304,0.7124,0.7117,0.7117,0.7117,0.7117,0.7117,0.7187,0.737,0.7499,0.749,0.7401,0.7443,0.7631,0.7352,0.7454,0.8044,0.8121,0.8465,0.9155,0.961,1.0173,1.1019,1.1618,1.1985,1.2216,1.2298,1.2348,1.2499,1.2579,1.2654,1.2828,1.2831,1.2863,1.2911,1.295,1.2918,1.3029,1.32,1.3302,1.3339,1.3583,1.3855,1.4047,1.4209,1.441,1.4583,1.4953,1.4873,1.4397,1.4158,1.4177,1.4207,1.4189,1.413,1.4145,1.4374,1.4543,1.4642,1.4793,1.4901,1.5069,1.5175,1.5284,1.5497,1.5794,1.5998,1.6251,1.6645,1.6865,1.6995,1.716,1.7311,1.7313,1.7333,1.7328,1.7609,1.7901,1.8102,1.817,1.8182,1.828,1.8319,1.8518,1.8944,1.9078,1.9068,1.9353,0.7988,0.7988,0.7988,0.7988,0.7988,0.7988,0.7988,0.7988,0.7988,0.7988,0.7988,0.7988,0.7988,0.7988,0.7988,0.7988,0.7988,0.7988,0.7988,0.7985,0.7955,0.7885,0.7807,0.7749,0.7621,0.7437,0.7406,0.7292,0.7127,0.7117,0.7117,0.7117,0.7117,0.7117,0.7139,0.7187,0.7209,0.7168,0.6978,0.7009,0.7123,0.6918,0.6992,0.7392,0.758,0.7983,0.867,0.9558,1.0349,1.1055,1.1669,1.2009,1.2077,1.2206,1.2316,1.2378,1.2397,1.247,1.2636,1.2691,1.2746,1.29,1.2863,1.2918,1.2918,1.2936,1.2973,1.301,1.3101,1.3236,1.3393,1.3503,1.3674,1.398,1.4312,1.4401,1.4205,1.3995,1.3907,1.4005,1.383,1.3595,1.3467,1.3651,1.3914,1.4066,1.424,1.4472,1.4754,1.5053,1.5244,1.5673,1.5971,1.6122,1.6357,1.6786,1.7057,1.7158,1.7337,1.7578,1.747,1.7304,1.7279,1.7353,1.7708,1.7957,1.7802,1.7708,1.7904,1.8274,1.8376,1.864,1.8668,1.8704,1.9199,0.7817,0.7817,0.769,0.7665,0.7665,0.7789,0.7817,0.7842,0.7963,0.7988,0.7988,0.7988,0.7988,0.7988,0.7988,0.7988,0.7988,0.7988,0.7988,0.7988,0.7985,0.7962,0.7898,0.7878,0.7753,0.7519,0.7488,0.7343,0.7154,0.7117,0.7117,0.7117,0.7117,0.7117,0.7117,0.7117,0.7117,0.7066,0.6837,0.676,0.684,0.6605,0.6662,0.693,0.7157,0.7576,0.8399,0.933,1.0199,1.0962,1.1521,1.1818,1.2003,1.2095,1.2206,1.2286,1.2305,1.2353,1.2452,1.247,1.2526,1.2624,1.2661,1.2636,1.2636,1.2636,1.2654,1.2654,1.2709,1.282,1.2936,1.3028,1.3174,1.3397,1.3596,1.378,1.3922,1.3656,1.3533,1.3488,1.3292,1.2988,1.2706,1.3097,1.3449,1.3733,1.4044,1.4323,1.4647,1.4961,1.5287,1.5651,1.6073,1.626,1.6555,1.6957,1.719,1.729,1.7407,1.7676,1.7649,1.7439,1.7563,1.7632,1.7722,1.7767,1.776,1.7802,1.8098,1.8341,1.8299,1.839,1.8517,1.8579,1.9086,0.7568,0.7543,0.7288,0.721,0.7263,0.7466,0.7618,0.7668,0.7892,0.7988,0.7988,0.7988,0.7988,0.7988,0.7988,0.7988,0.7988,0.7988,0.7988,0.7988,0.7988,0.7975,0.7968,0.7983,0.7824,0.7617,0.7594,0.7388,0.7188,0.7117,0.7117,0.7117,0.7117,0.7117,0.7117,0.7117,0.7117,0.7073,0.6888,0.6736,0.6706,0.6507,0.6477,0.6602,0.6907,0.7442,0.825,0.9051,0.9846,1.0943,1.1223,1.1558,1.1892,1.1966,1.2095,1.2249,1.2305,1.2305,1.2298,1.2323,1.2323,1.2342,1.2342,1.2305,1.2342,1.236,1.236,1.2378,1.2464,1.2556,1.2604,1.2725,1.2772,1.2835,1.2835,1.3035,1.3369,1.3229,1.2948,1.2905,1.2631,1.2406,1.2413,1.2735,1.33,1.342,1.3728,1.4039,1.4386,1.4717,1.5089,1.5511,1.5949,1.6412,1.6755,1.712,1.729,1.7427,1.7508,1.7653,1.7782,1.7761,1.7996,1.8073,1.7932,1.7999,1.8148,1.8261,1.8345,1.8388,1.8369,1.8534,1.8722,1.8721,1.9025,0.7288,0.7288,0.7235,0.721,0.7235,0.749,0.7593,0.7593,0.7892,0.7988,0.7988,0.7988,0.7988,0.7988,0.7988,0.7988,0.7988,0.7988,0.7988,0.7988,0.7988,0.7988,0.7988,0.7988,0.7854,0.7668,0.76,0.7411,0.7192,0.7127,0.7117,0.7117,0.7117,0.7117,0.7117,0.7117,0.7117,0.7087,0.6938,0.6814,0.6702,0.6556,0.6455,0.6459,0.6857,0.745,0.814,0.8884,0.9644,1.0312,1.0869,1.1316,1.1706,1.191,1.2083,1.2231,1.2305,1.2305,1.2305,1.2305,1.2305,1.2305,1.2305,1.2305,1.2305,1.2305,1.2305,1.2305,1.2353,1.2365,1.2343,1.2193,1.2231,1.2283,1.2167,1.2113,1.2357,1.2606,1.26,1.2446,1.2403,1.2391,1.2335,1.2546,1.2931,1.3116,1.3417,1.3735,1.4083,1.4451,1.4846,1.5244,1.5748,1.6182,1.6478,1.6874,1.7168,1.734,1.7478,1.7581,1.7684,1.7803,1.794,1.8008,1.8003,1.811,1.8221,1.8178,1.8135,1.8276,1.8371,1.8438,1.8539,1.8667,1.8785,0.6811,0.6836,0.6836,0.6839,0.6889,0.7241,0.7416,0.749,0.7842,0.7988,0.7988,0.7988,0.7988,0.7988,0.7988,0.7988,0.7988,0.7988,0.7988,0.7988,0.7988,0.7988,0.7988,0.8,0.7891,0.7712,0.7628,0.7461,0.7292,0.7154,0.7117,0.7117,0.7117,0.7117,0.7117,0.7117,0.7117,0.7068,0.6982,0.686,0.6776,0.6678,0.6609,0.6586,0.6878,0.7311,0.7814,0.8479,0.9151,0.9771,1.0368,1.1018,1.1577,1.1799,1.2003,1.2249,1.2305,1.2305,1.2305,1.2305,1.2305,1.2305,1.2305,1.2305,1.2305,1.2305,1.2305,1.2305,1.2291,1.2258,1.2118,1.2015,1.1926,1.1779,1.1685,1.1594,1.1741,1.2106,1.243,1.2299,1.2262,1.2239,1.2282,1.2494,1.2647,1.2907,1.3189,1.3492,1.3839,1.4212,1.4508,1.4937,1.5464,1.5877,1.6158,1.6517,1.6942,1.7141,1.7314,1.7426,1.7556,1.7649,1.7752,1.782,1.7906,1.8008,1.8076,1.8008,1.8008,1.811,1.8195,1.8228,1.8279,1.8398,1.8472,0.6309,0.6337,0.6387,0.6412,0.6537,0.6989,0.726,0.7363,0.7789,0.7988,0.7988,0.7988,0.7988,0.7988,0.7988,0.7988,0.7988,0.7988,0.7988,0.7988,0.7988,0.7988,0.7988,0.8,0.7956,0.7838,0.7716,0.755,0.7393,0.7248,0.7161,0.7131,0.7117,0.7117,0.7117,0.7117,0.7117,0.7078,0.7019,0.6928,0.6866,0.679,0.6747,0.676,0.6853,0.7087,0.7521,0.8051,0.8613,0.9246,0.9809,1.0588,1.1298,1.1706,1.1873,1.2268,1.2305,1.2305,1.2305,1.2305,1.2305,1.2305,1.2305,1.2305,1.2305,1.2305,1.2305,1.2305,1.2291,1.2191,1.1935,1.1808,1.1654,1.1423,1.1312,1.1279,1.136,1.1638,1.2054,1.236,1.2275,1.2191,1.2261,1.2391,1.2529,1.2685,1.2959,1.3255,1.3583,1.3884,1.415,1.4484,1.4965,1.5691,1.6026,1.6394,1.6786,1.6986,1.7159,1.7254,1.735,1.7443,1.7537,1.7691,1.7777,1.7879,1.7957,1.7974,1.7974,1.7991,1.8025,1.811,1.8144,1.8161,1.8202,0.5862,0.6089,0.6314,0.6514,0.6767,0.7064,0.7338,0.7568,0.7867,0.7988,0.7988,0.7988,0.7988,0.7988,0.7988,0.7988,0.7988,0.7988,0.7988,0.7988,0.7988,0.7988,0.7988,0.7988,0.7965,0.7946,0.782,0.7648,0.7474,0.7362,0.7258,0.7148,0.7117,0.7117,0.7117,0.7117,0.7117,0.7117,0.7077,0.6997,0.6938,0.687,0.681,0.6764,0.6821,0.7014,0.734,0.7732,0.826,0.8984,0.9463,1.0143,1.0887,1.1409,1.1836,1.2169,1.2286,1.2305,1.2305,1.2305,1.2305,1.2305,1.2305,1.2305,1.2305,1.2305,1.2305,1.2305,1.2285,1.2184,1.1933,1.1708,1.139,1.1129,1.0925,1.0814,1.0904,1.1246,1.1695,1.206,1.2137,1.2213,1.2279,1.234,1.2462,1.257,1.2736,1.29,1.3119,1.3411,1.3684,1.4021,1.44,1.5204,1.5938,1.6324,1.6682,1.683,1.6968,1.7012,1.7116,1.7193,1.7287,1.7434,1.7588,1.7716,1.7811,1.7872,1.7906,1.7881,1.794,1.7991,1.7974,1.7957,1.7998,0.5564,0.5839,0.6364,0.6667,0.6845,0.7244,0.749,0.7646,0.7867,0.7988,0.7988,0.7988,0.7988,0.7988,0.7988,0.7988,0.7988,0.7988,0.7988,0.7988,0.7988,0.7988,0.7988,0.7988,0.7988,0.7993,0.7922,0.7814,0.7621,0.7457,0.7362,0.7265,0.7168,0.7117,0.7117,0.7117,0.7117,0.7117,0.7092,0.7065,0.7009,0.6955,0.686,0.6846,0.6857,0.6965,0.7107,0.7549,0.7981,0.8522,0.9108,0.9822,1.0513,1.1111,1.1614,1.2046,1.2231,1.2305,1.2305,1.2305,1.2305,1.2305,1.2305,1.2305,1.2305,1.2305,1.2305,1.2305,1.2291,1.2184,1.1915,1.1586,1.1309,1.1022,1.0771,1.0713,1.0851,1.1196,1.1523,1.1855,1.2087,1.2246,1.2281,1.2356,1.242,1.2489,1.2551,1.2636,1.2728,1.2973,1.3266,1.3775,1.4209,1.4945,1.5709,1.6132,1.6473,1.6656,1.6812,1.6856,1.6908,1.702,1.7055,1.7133,1.7314,1.7527,1.7606,1.7666,1.7727,1.7762,1.7745,1.7735,1.7752,1.7769,1.7828,0.5413,0.5834,0.6517,0.687,0.702,0.7397,0.7646,0.7718,0.7892,0.7988,0.7988,0.7988,0.7988,0.7988,0.7988,0.7988,0.7988,0.7988,0.7988,0.7988,0.7988,0.7988,0.7988,0.7988,0.7988,0.7988,0.8003,0.7932,0.7756,0.7576,0.7447,0.7345,0.7192,0.7117,0.7117,0.7117,0.7117,0.7117,0.7117,0.7117,0.7065,0.6994,0.693,0.6913,0.6968,0.6936,0.7022,0.7374,0.7739,0.8175,0.8765,0.9506,1.0172,1.0719,1.1242,1.1781,1.2095,1.2231,1.2305,1.2305,1.2305,1.2305,1.2305,1.2305,1.2305,1.2305,1.2305,1.2305,1.2298,1.2178,1.194,1.1663,1.141,1.1149,1.0952,1.0851,1.1082,1.1339,1.1583,1.187,1.2131,1.2258,1.2291,1.2298,1.2378,1.2378,1.2434,1.2452,1.2544,1.2636,1.2984,1.3575,1.4137,1.4802,1.5408,1.5868,1.6184,1.6412,1.6621,1.6751,1.6812,1.6874,1.6926,1.6978,1.7116,1.7296,1.7375,1.7478,1.7573,1.759,1.7522,1.7512,1.7598,1.7649,1.7691,0.5641,0.6337,0.6667,0.707,0.7469,0.7572,0.7746,0.7939,0.7963,0.7988,0.7988,0.7988,0.7988,0.7988,0.7988,0.7988,0.7988,0.7988,0.7988,0.7988,0.7988,0.7988,0.7988,0.7988,0.7988,0.7988,0.7988,0.7925,0.7824,0.7662,0.7525,0.741,0.7255,0.7117,0.7117,0.7117,0.7117,0.7117,0.7117,0.7117,0.7114,0.7093,0.7061,0.7043,0.7001,0.6981,0.7084,0.7324,0.7561,0.7832,0.842,0.898,0.9476,1.0161,1.0812,1.1372,1.1799,1.212,1.2249,1.2305,1.2305,1.2305,1.2305,1.2305,1.2305,1.2305,1.2305,1.2305,1.2305,1.2204,1.2002,1.1862,1.165,1.1476,1.1252,1.1263,1.1392,1.1516,1.1737,1.1904,1.2164,1.2251,1.2305,1.2305,1.2305,1.2305,1.2305,1.2342,1.2397,1.2526,1.2764,1.3375,1.3902,1.4543,1.507,1.5532,1.5868,1.6132,1.6368,1.6595,1.6656,1.6691,1.683,1.6899,1.7003,1.7089,1.7193,1.7296,1.7426,1.7426,1.734,1.7392,1.7495,1.7529,1.7554,0.6089,0.6437,0.7017,0.7372,0.7596,0.7768,0.7892,0.7963,0.7988,0.7988,0.7988,0.7988,0.7988,0.7988,0.7988,0.7988,0.7988,0.7988,0.7988,0.7988,0.7988,0.7988,0.7988,0.7988,0.7988,0.7988,0.7985,0.7996,0.7878,0.7763,0.7645,0.7522,0.735,0.7221,0.7158,0.7124,0.7117,0.7117,0.7117,0.7117,0.7117,0.7117,0.7117,0.7117,0.7031,0.705,0.7079,0.7193,0.742,0.7719,0.8231,0.8742,0.9272,0.9855,1.0436,1.1018,1.1428,1.1836,1.2231,1.2286,1.2305,1.2305,1.2305,1.2305,1.2305,1.2305,1.2305,1.2305,1.2305,1.2231,1.2109,1.1975,1.1848,1.169,1.1566,1.161,1.1663,1.175,1.1915,1.2044,1.2153,1.2233,1.2305,1.2305,1.2305,1.2305,1.2305,1.2305,1.2397,1.2507,1.2801,1.3211,1.3695,1.4194,1.4687,1.5159,1.5541,1.5823,1.6096,1.6289,1.6412,1.6517,1.6604,1.6691,1.6734,1.6855,1.6976,1.7089,1.7168,1.7168,1.7151,1.7202,1.7254,1.7331,1.74,0.6689,0.6764,0.7344,0.7646,0.7693,0.7942,0.7988,0.7988,0.7988,0.7988,0.7988,0.7988,0.7988,0.7988,0.7988,0.7988,0.7988,0.7988,0.7988,0.7988,0.7988,0.7988,0.7988,0.7988,0.7988,0.7988,0.7988,0.8003,0.7976,0.7895,0.777,0.7655,0.7502,0.7387,0.7263,0.7208,0.7181,0.7117,0.7117,0.7117,0.7117,0.7117,0.7117,0.7117,0.7107,0.7045,0.7,0.7174,0.7439,0.7662,0.8064,0.8578,0.9153,0.9701,1.0225,1.0808,1.1256,1.1683,1.2067,1.2268,1.2286,1.2305,1.2305,1.2305,1.2305,1.2305,1.2305,1.2305,1.2305,1.2305,1.2265,1.2109,1.2049,1.1948,1.183,1.187,1.1928,1.1995,1.2044,1.2151,1.2226,1.2246,1.2305,1.2305,1.2305,1.2305,1.2305,1.2305,1.2378,1.247,1.2691,1.3028,1.3375,1.3786,1.4147,1.4623,1.506,1.5434,1.5709,1.5903,1.5991,1.6184,1.6342,1.6403,1.6455,1.656,1.6673,1.6778,1.6908,1.6978,1.703,1.6978,1.6995,1.7089,1.7218,0.7519,0.7522,0.7572,0.7743,0.7967,0.7988,0.7988,0.7988,0.7988,0.7988,0.7988,0.7988,0.7988,0.7988,0.7988,0.7988,0.7988,0.7988,0.7988,0.7988,0.7988,0.7988,0.7988,0.7988,0.7988,0.7988,0.7988,0.7988,0.7985,0.7965,0.7888,0.7773,0.7655,0.7597,0.7509,0.7397,0.7305,0.7212,0.7188,0.7158,0.7148,0.7119,0.7112,0.7121,0.7117,0.711,0.7104,0.7285,0.745,0.7591,0.797,0.8396,0.8962,0.9496,1.0042,1.0648,1.1124,1.1566,1.196,1.2185,1.2286,1.2305,1.2305,1.2305,1.2305,1.2305,1.2305,1.2305,1.2305,1.2305,1.2305,1.2278,1.2223,1.2158,1.2078,1.2104,1.2138,1.2171,1.2231,1.2285,1.2305,1.2305,1.2305,1.2305,1.2305,1.2305,1.2305,1.2305,1.2323,1.2415,1.2519,1.2764,1.3028,1.332,1.3546,1.3982,1.4443,1.4802,1.5106,1.5319,1.5505,1.5709,1.5903,1.6044,1.6088,1.6219,1.6342,1.6464,1.6604,1.6821,1.6891,1.6778,1.6856,1.7003,1.7107,0.7696,0.7842,0.7842,0.7917,0.7988,0.7988,0.7988,0.7988,0.7988,0.7988,0.7988,0.7988,0.7988,0.7988,0.7988,0.7988,0.7988,0.7988,0.7988,0.7988,0.7988,0.7988,0.7988,0.7988,0.7988,0.7988,0.7988,0.7988,0.7988,0.7988,0.7968,0.7895,0.7773,0.7678,0.7597,0.7556,0.7475,0.7438,0.74,0.7383,0.7288,0.7275,0.7219,0.7102,0.7117,0.7117,0.7117,0.7187,0.735,0.7578,0.7882,0.829,0.8766,0.928,0.9849,1.0461,1.0917,1.1396,1.1843,1.2061,1.2164,1.2286,1.2305,1.2318,1.2338,1.2305,1.2305,1.2305,1.2305,1.2305,1.2305,1.2305,1.2285,1.2305,1.2305,1.2305,1.2305,1.2305,1.2358,1.2385,1.2338,1.2305,1.2305,1.2305,1.2305,1.2305,1.2305,1.2305,1.2323,1.236,1.2452,1.2519,1.2783,1.301,1.3236,1.3564,1.3866,1.4191,1.4515,1.4713,1.4918,1.5114,1.531,1.5497,1.5691,1.5771,1.5894,1.6088,1.6281,1.6499,1.6569,1.656,1.6691,1.6864,1.6951,0.7842,0.7988,0.7988,0.7988,0.7988,0.7988,0.7988,0.7988,0.7988,0.7988,0.7988,0.7988,0.7988,0.7988,0.7988,0.7988,0.7988,0.7988,0.7988,0.7988,0.7988,0.7988,0.7988,0.7988,0.7988,0.7988,0.7988,0.7988,0.7988,0.7988,0.7978,0.7948,0.7912,0.7804,0.7743,0.7682,0.7645,0.7607,0.7587,0.7583,0.7464,0.7457,0.7389,0.7248,0.7224,0.7161,0.7137,0.7165,0.7319,0.7577,0.7874,0.8178,0.863,0.9114,0.9599,1.0124,1.0648,1.1155,1.1591,1.2104,1.2295,1.2519,1.2498,1.2472,1.2437,1.2365,1.2305,1.2305,1.2305,1.2305,1.2305,1.2305,1.2305,1.2305,1.2305,1.2305,1.2305,1.2311,1.2398,1.2484,1.247,1.2505,1.2652,1.2672,1.2492,1.2432,1.2305,1.2305,1.2305,1.2342,1.2378,1.2434,1.2526,1.2753,1.2973,1.3083,1.3222,1.3612,1.3902,1.409,1.4289,1.4505,1.4739,1.4927,1.5115,1.5275,1.5364,1.5409,1.5771,1.6184,1.6254,1.6359,1.6447,1.6604,1.6691,0.7988,0.7988,0.7988,0.7988,0.7988,0.7988,0.7988,0.7988,0.7988,0.7988,0.7988,0.7988,0.7988,0.7988,0.7988,0.7988,0.7988,0.7988,0.7988,0.7988,0.7988,0.7988,0.7988,0.7988,0.7988,0.7988,0.7988,0.7988,0.7988,0.7988,0.7988,0.7988,0.7955,0.7938,0.7976,0.7851,0.7743,0.7631,0.7634,0.7628,0.7597,0.7617,0.7532,0.7427,0.7355,0.7275,0.721,0.7127,0.7319,0.768,0.7834,0.8207,0.8734,0.9205,0.9594,0.9958,1.0517,1.0937,1.1263,1.224,1.2659,1.2772,1.271,1.2726,1.2704,1.2557,1.2371,1.2425,1.235,1.2311,1.2305,1.2305,1.2305,1.2318,1.2325,1.2392,1.2405,1.2518,1.2645,1.2738,1.2771,1.2864,1.3046,1.3086,1.2806,1.2605,1.2385,1.2338,1.2412,1.241,1.2481,1.2452,1.2489,1.2489,1.2636,1.247,1.2592,1.3003,1.3339,1.3557,1.3746,1.3946,1.4173,1.4371,1.4497,1.4605,1.4633,1.4669,1.5115,1.5559,1.6026,1.6184,1.6272,1.6325,1.6412,0.7988,0.7988,0.7988,0.7988,0.7988,0.7988,0.7988,0.7988,0.7988,0.7988,0.7988,0.7988,0.7988,0.7988,0.7988,0.7988,0.7988,0.7988,0.7988,0.7988,0.7988,0.7988,0.7988,0.7988,0.7988,0.7988,0.7988,0.7988,0.7988,0.7988,0.7988,0.7988,0.7988,0.7988,0.8003,0.7949,0.7902,0.7878,0.7864,0.7827,0.7729,0.7733,0.7672,0.7529,0.7464,0.7386,0.7288,0.7198,0.7366,0.7694,0.7827,0.8186,0.8644,0.906,0.9396,0.9782,1.0289,1.0611,1.117,1.195,1.2478,1.2698,1.2883,1.2916,1.3007,1.2852,1.2731,1.2591,1.2477,1.2405,1.2305,1.2311,1.2325,1.2383,1.2437,1.2591,1.2691,1.2866,1.3013,1.302,1.3073,1.31,1.3233,1.3387,1.3193,1.3093,1.2933,1.282,1.2853,1.2725,1.2695,1.2583,1.2541,1.2427,1.236,1.2357,1.2414,1.2785,1.299,1.3101,1.3266,1.3448,1.3576,1.3755,1.3841,1.3917,1.4125,1.4332,1.4544,1.4927,1.5374,1.5715,1.5744,1.5884,1.6095,0.7917,0.7988,0.7988,0.7988,0.7988,0.7988,0.7988,0.7988,0.7988,0.7988,0.7988,0.7988,0.7988,0.7988,0.7988,0.7988,0.7988,0.7988,0.7988,0.7988,0.7988,0.7988,0.7988,0.7988,0.7988,0.7988,0.7988,0.7988,0.7988,0.7988,0.7988,0.7988,0.7988,0.7988,0.7985,0.7978,0.7975,0.7983,0.7966,0.7946,0.7888,0.7872,0.7797,0.7692,0.759,0.7512,0.7447,0.7413,0.7418,0.766,0.7919,0.8194,0.8542,0.8845,0.913,0.9498,0.9951,1.0332,1.095,1.1488,1.2014,1.2447,1.2747,1.3019,1.3174,1.3074,1.3013,1.2885,1.2705,1.2652,1.2586,1.2585,1.2585,1.2639,1.2712,1.2898,1.2953,1.312,1.3253,1.3287,1.3347,1.3373,1.346,1.3547,1.3581,1.3547,1.3507,1.3407,1.326,1.3092,1.2938,1.2857,1.2704,1.2596,1.2484,1.243,1.2506,1.2638,1.2748,1.285,1.2838,1.3003,1.3078,1.3199,1.3441,1.3662,1.3862,1.4063,1.4267,1.4445,1.4695,1.4971,1.5153,1.5374,1.5598,0.7771,0.7963,0.7988,0.7988,0.7988,0.7988,0.7988,0.7988,0.7988,0.7988,0.7988,0.7988,0.7988,0.7988,0.7988,0.7988,0.7988,0.7988,0.7988,0.7988,0.7988,0.7988,0.7988,0.7988,0.7988,0.7988,0.7988,0.7988,0.7988,0.7988,0.7988,0.7988,0.7988,0.7988,0.7988,0.7988,0.7988,0.7988,0.7985,0.7971,0.7966,0.7979,0.7908,0.7834,0.7763,0.7689,0.7637,0.7649,0.7808,0.7993,0.8169,0.8374,0.8576,0.8788,0.8872,0.9108,0.9607,1.0077,1.0549,1.1025,1.1467,1.1982,1.2531,1.2926,1.3233,1.3279,1.3287,1.3187,1.3035,1.3094,1.3107,1.3074,1.304,1.308,1.3127,1.3187,1.3207,1.3327,1.3453,1.3534,1.3614,1.3707,1.3854,1.3935,1.3828,1.3848,1.3788,1.3694,1.3547,1.3333,1.3206,1.3153,1.2993,1.2786,1.2699,1.2699,1.2718,1.2894,1.2727,1.2741,1.2687,1.2761,1.2982,1.3182,1.3279,1.3449,1.3667,1.3834,1.3954,1.4132,1.4295,1.4411,1.4652,1.4752,1.4946,0.7743,0.7988,0.7988,0.7988,0.7988,0.7988,0.7988,0.7988,0.7988,0.7988,0.7988,0.7988,0.7988,0.7988,0.7988,0.7988,0.7988,0.7988,0.7988,0.7988,0.7988,0.7988,0.7988,0.7988,0.7988,0.7988,0.7988,0.7988,0.7988,0.7988,0.7988,0.7988,0.7988,0.7988,0.7988,0.7988,0.7988,0.7988,0.7988,0.7988,0.7988,0.7988,0.7966,0.7932,0.7868,0.7804,0.7804,0.7886,0.8056,0.822,0.8363,0.853,0.8724,0.873,0.8718,0.8911,0.9305,0.9694,1.0103,1.0294,1.0701,1.137,1.1886,1.2466,1.2972,1.3364,1.3434,1.3267,1.3164,1.3165,1.3118,1.3106,1.318,1.328,1.3353,1.3453,1.3486,1.3641,1.3761,1.3801,1.3881,1.3908,1.4096,1.4089,1.3981,1.4069,1.4063,1.3949,1.3821,1.3627,1.3507,1.3447,1.338,1.3213,1.3153,1.314,1.3113,1.3099,1.2919,1.2832,1.2943,1.3028,1.3096,1.3222,1.3394,1.3459,1.3518,1.3706,1.3916,1.3849,1.3979,1.4035,1.4117,1.4264,1.4497,0.7593,0.7839,0.7967,0.7988,0.7988,0.7988,0.7988,0.7988,0.7988,0.7988,0.7988,0.7988,0.7988,0.7988,0.7988,0.7988,0.7988,0.7988,0.7988,0.7988,0.7988,0.7988,0.7988,0.7988,0.7988,0.7988,0.7988,0.7988,0.7988,0.7988,0.7988,0.7988,0.7988,0.7988,0.7988,0.7988,0.7988,0.7988,0.7988,0.7988,0.7988,0.7988,0.7988,0.7971,0.7902,0.793,0.8021,0.8137,0.8334,0.8557,0.8703,0.8729,0.8801,0.8688,0.8634,0.8806,0.8999,0.9257,0.9537,0.9907,1.0299,1.0727,1.1198,1.1644,1.2367,1.2908,1.3029,1.3042,1.3075,1.3081,1.3053,1.3051,1.3221,1.3391,1.3523,1.3683,1.3832,1.3981,1.4049,1.4076,1.4089,1.4083,1.4109,1.4109,1.4109,1.4109,1.4109,1.4069,1.4009,1.3895,1.3828,1.3801,1.3761,1.3687,1.3621,1.3507,1.3427,1.3327,1.3153,1.3113,1.3227,1.3253,1.3253,1.3393,1.3588,1.3655,1.3729,1.3811,1.3953,1.3877,1.3828,1.3913,1.3957,1.3977,1.4227,0.7363,0.7643,0.7892,0.7988,0.7988,0.7988,0.7988,0.7988,0.7988,0.7988,0.7988,0.7988,0.7988,0.7988,0.7988,0.7988,0.7988,0.7988,0.7988,0.7988,0.7988,0.7988,0.7988,0.7988,0.7988,0.7988,0.7988,0.7988,0.7988,0.7988,0.7988,0.7988,0.7988,0.7988,0.7988,0.7988,0.7988,0.7988,0.7988,0.7988,0.7988,0.7988,0.7988,0.7988,0.8028,0.8099,0.834,0.8535,0.8729,0.894,0.9048,0.9016,0.8832,0.8706,0.8651,0.863,0.8806,0.8933,0.9152,0.9498,0.9777,1.0164,1.0554,1.0901,1.1521,1.2427,1.2678,1.2462,1.2413,1.2574,1.2599,1.287,1.3106,1.3336,1.354,1.3682,1.3827,1.3985,1.4083,1.4109,1.4109,1.4109,1.4109,1.4109,1.4109,1.4109,1.4109,1.4109,1.4096,1.4041,1.4035,1.4021,1.3975,1.3915,1.3895,1.3781,1.3681,1.3561,1.342,1.3413,1.3534,1.3487,1.3387,1.3601,1.3809,1.3943,1.4017,1.404,1.3979,1.3898,1.3871,1.391,1.3892,1.3877,1.4006,0.7363,0.7618,0.7892,0.7988,0.7988,0.7988,0.7988,0.7988,0.7988,0.7988,0.7988,0.7988,0.7988,0.7988,0.7988,0.7988,0.7988,0.7988,0.7988,0.7988,0.7988,0.7988,0.7988,0.7988,0.7988,0.7988,0.7988,0.7988,0.7988,0.7988,0.7988,0.7988,0.7988,0.7988,0.7988,0.7988,0.7988,0.7988,0.7988,0.7988,0.7988,0.7988,0.7988,0.7988,0.8013,0.8137,0.8365,0.8622,0.8867,0.9118,0.926,0.9117,0.8844,0.8792,0.872,0.8641,0.8685,0.8787,0.8932,0.9143,0.9367,0.9689,1.0038,1.025,1.0792,1.1768,1.2139,1.1827,1.1763,1.1977,1.2235,1.2604,1.2966,1.3243,1.3519,1.3652,1.38,1.3955,1.4088,1.4109,1.4109,1.4109,1.4109,1.4109,1.4109,1.4109,1.4109,1.4109,1.4109,1.4089,1.4089,1.4062,1.4068,1.4063,1.4063,1.4029,1.3881,1.3881,1.3808,1.3814,1.3848,1.3781,1.3734,1.3874,1.4056,1.4082,1.4109,1.4083,1.4022,1.3948,1.3948,1.3981,1.4008,1.4007,1.4047,0.7288,0.7466,0.7839,0.7988,0.7988,0.7988,0.7988,0.7988,0.7988,0.7988,0.7988,0.7988,0.7988,0.7988,0.7988,0.7988,0.7988,0.7988,0.7988,0.7988,0.7988,0.7988,0.7988,0.7988,0.7988,0.7988,0.7988,0.7988,0.7988,0.7988,0.7988,0.7988,0.7988,0.7988,0.7988,0.7988,0.7988,0.7988,0.7988,0.7988,0.7988,0.7988,0.7988,0.7988,0.8038,0.8159,0.8382,0.8655,0.8931,0.9157,0.9316,0.9315,0.9119,0.8999,0.8909,0.882,0.8777,0.8718,0.8839,0.8939,0.9033,0.9336,0.9546,0.9791,0.982,1.0668,1.1073,1.0874,1.1187,1.1429,1.1698,1.2042,1.2513,1.2854,1.32,1.3462,1.3758,1.4039,1.4109,1.4109,1.4109,1.4109,1.4109,1.4109,1.4109,1.4109,1.4109,1.4109,1.4109,1.4109,1.4109,1.4109,1.4109,1.4109,1.4089,1.4089,1.4063,1.4089,1.4109,1.4056,1.3982,1.4042,1.4096,1.4075,1.4075,1.4103,1.4109,1.4109,1.4109,1.4035,1.4041,1.4089,1.4109,1.4109,1.411,0.726,0.7363,0.7814,0.7988,0.7988,0.7988,0.7988,0.7988,0.7988,0.7988,0.7988,0.7988,0.7988,0.7988,0.7988,0.7988,0.7988,0.7988,0.7988,0.7988,0.7988,0.7988,0.7988,0.7988,0.7988,0.7988,0.7988,0.7988,0.7988,0.7988,0.7988,0.7988,0.7988,0.7988,0.7988,0.7988,0.7988,0.7988,0.7988,0.7988,0.7988,0.7988,0.7988,0.7988,0.8013,0.8137,0.8382,0.863,0.8882,0.9165,0.9352,0.9364,0.9343,0.9201,0.9104,0.9019,0.8922,0.8869,0.8882,0.8939,0.8952,0.9035,0.9187,0.9301,0.935,0.9586,0.9992,1.027,1.0584,1.0856,1.1127,1.1521,1.2015,1.2513,1.2903,1.3334,1.3722,1.4067,1.4088,1.4088,1.4109,1.4109,1.4109,1.4109,1.4109,1.4109,1.4109,1.4109,1.4109,1.4109,1.4109,1.4109,1.4109,1.4109,1.4109,1.4109,1.4109,1.4109,1.4109,1.4109,1.4109,1.4109,1.4109,1.4109,1.4109,1.4109,1.4109,1.4109,1.4109,1.4109,1.4109,1.4109,1.4109,1.4109,1.4109,0.7462,0.7867,0.7963,0.7988,0.7988,0.7988,0.7988,0.7988,0.7988,0.7988,0.7988,0.7988,0.7988,0.7988,0.7988,0.7988,0.7988,0.7988,0.7988,0.7988,0.7988,0.7988,0.7988,0.7988,0.7988,0.7988,0.7988,0.7988,0.7988,0.7988,0.7988,0.7988,0.7988,0.7988,0.7988,0.7988,0.7988,0.7988,0.7988,0.7988,0.7988,0.7988,0.7988,0.7988,0.7988,0.8187,0.8361,0.846,0.8762,0.9122,0.9391,0.9417,0.9413,0.9364,0.9295,0.9213,0.9092,0.9056,0.9049,0.9046,0.9042,0.9038,0.9174,0.9221,0.9254,0.9309,0.9579,0.9636,0.9917,1.019,1.0502,1.1035,1.1521,1.2149,1.2625,1.32,1.3695,1.3934,1.4067,1.4088,1.4109,1.4109,1.4109,1.4109,1.4109,1.4109,1.4109,1.4109,1.4109,1.4109,1.4109,1.4109,1.4109,1.4109,1.4109,1.4109,1.4109,1.4109,1.4109,1.4109,1.4109,1.4109,1.4109,1.4109,1.4109,1.4109,1.4109,1.4109,1.4109,1.4109,1.4109,1.4109,1.4109,1.4109,1.4109]},{"header":{"parameterUnit":"m.s-1","parameterCategory":1,"la1":31.0,"la2":29.5877,"lo1":-88.7671,"lo2":-86.6584,"dy":0.0162,"dx":0.0185,"nx":115,"ny":88,"refTime":"2024-03-20T18:00:00:Z","depth":0,"parameterNumber":3,"parameterNumberName":"V-component_of_WINDS"},"data":[0.0,0.0,0.0,0.0,0.0,0.0,0.0,0.0,0.0,0.0,0.0,0.0,0.0,0.0,0.0,0.0,0.0,0.0,0.0,0.0,0.0,0.0,0.0,0.0,0.0,0.0,0.0,0.0,0.0,0.0,0.0,0.0,0.0,0.0,0.0,0.0,0.0,0.0,0.0,0.0,0.0,0.0,0.0,0.0,0.0,0.0,0.0,0.0,0.0,0.0,0.0,0.0,0.0,0.0,0.0,0.0,0.0,0.0,0.0,0.0,0.0,0.0,0.0,0.0,0.0,0.0,0.0,0.0,0.0,0.0,0.0,0.0,0.0,0.0,0.0,0.0,0.0,0.0,0.0,0.0,0.0,0.0,0.0,0.0,0.0,0.0,0.0,0.0,0.0,0.0,0.0,0.0,0.0,0.0,0.0,0.0,0.0,0.0,0.0,0.0,0.0,0.0,0.0,0.0,0.0,0.0,0.0,0.0,0.0,0.0,0.0,0.0,0.0,0.0,0.0,0.0,0.0,0.0,0.0,0.0,0.0,0.0,0.0,0.0,0.0,0.0,0.0,0.0,0.0,0.0,0.0,0.0,0.0,0.0,0.0,0.0,0.0,0.0,0.0,0.0,0.0,0.0,0.0,0.0,0.0,0.0,0.0,0.0,0.0,0.0,0.0,0.0,0.0,0.0,0.0,0.0,0.0,0.0,0.0,0.0,0.0,0.0,0.0,0.0,0.0,0.0,0.0,0.0,0.0,0.0,0.0,0.0,0.0,0.0,0.0,0.0,0.0,0.0,0.0,0.0,0.0,0.0,0.0,0.0,0.0,0.0,0.0,0.0,0.0,0.0,0.0,0.0,0.0,0.0,0.0,0.0,0.0,0.0,0.0,0.0,0.0,0.0,0.0,0.0,0.0,0.0,0.0,0.0,0.0,0.0,0.0,0.0,0.0,0.0,0.0,0.0,0.0,0.0,0.0,0.0,0.0,0.0,0.0,0.0,0.0,0.0,0.0,0.0,0.0,0.0,0.0,0.0,0.0,0.0,0.0,0.0,0.0,0.0,0.0,0.0,0.0,0.0,0.0,0.0,0.0,0.0,0.0,0.0,0.0,0.0,0.0,0.0,0.0,0.0,0.0,0.0,0.0,0.0,0.0,0.0,0.0,0.0,0.0,0.0,0.0,0.0,0.0,0.0,0.0,0.0,0.0,0.0,0.0,0.0,0.0,0.0,0.0,0.0,0.0,0.0,0.0,0.0,0.0,0.0,0.0,0.0,0.0,0.0,0.0,0.0,0.0,0.0,0.0,0.0,0.0,0.0,0.0,0.0,0.0,0.0,0.0,0.0,0.0,0.0,0.0,0.0,0.0,0.0,0.0,0.0,0.0,0.0,0.0,0.0,0.0,0.0,0.0,0.0,0.0,0.0,0.0,0.0,0.0,0.0,0.0,0.0,0.0,0.0,0.0,0.0,0.0,0.0,0.0,0.0,0.0,0.0,0.0,0.0,0.0,0.0,0.0,0.0,0.0,0.0,0.0,0.0,0.0,0.0,0.0,0.0,0.0,0.0,0.0,0.0,0.0,0.0,0.0,0.0,0.0,0.0,0.0,0.0,0.0,0.0,0.0,0.0,0.0,0.0,0.0,0.0,0.0,0.0,0.0,0.0,0.0,0.0,0.0,0.0,0.0,0.0,0.0,0.0,0.0,0.0,0.0,0.0,0.0,0.0,0.0,0.0,0.0,0.0,0.0,0.0,0.0,0.0,0.0,0.0,0.0,0.0,0.0,0.0,0.0,0.0,0.0,0.0,0.0,0.0,0.0,0.0,0.0,0.0,0.0,0.0,0.0,0.0,0.0,0.0,0.0,0.0,0.0,0.0,0.0,0.0,0.0,0.0,0.0,0.0,0.0,0.0,0.0,0.0,0.0,0.0,0.0,0.0,0.0,0.0,0.0,0.0,0.0,0.0,0.0,0.0,0.0,0.0,0.0,0.0,0.0,0.0,0.0,0.0,0.0,0.0,0.0,0.0,0.0,0.0,0.0,0.0,0.0,0.0,0.0,0.0,0.0,0.0,0.0,0.0,0.0,0.0,0.0,0.0,0.0,0.0,0.0,0.0,0.0,0.0,0.0,0.0,0.0,0.0,0.0,0.0,0.0,0.0,0.0,0.0,0.0,0.0,0.0,0.0,0.0,0.0,0.0,0.0,0.0,0.0,0.0,0.0,0.0,0.0,0.0,0.0,0.0,0.0,0.0,0.0,0.0,0.0,0.0,0.0,0.0,0.0,0.0,0.0,0.0,0.0,0.0,0.0,0.0,0.0,0.0,0.0,0.0,0.0,0.0,0.0,0.0,0.0,0.0,0.0,0.0,0.0,0.0,0.0,0.0,0.0,0.0,0.0,0.0,0.0,0.0,0.0,0.0,0.0,0.0,0.0,0.0,0.0,0.0,0.0,0.0,0.0,0.0,0.0,0.0,0.0,0.0,0.0,0.0,0.0,0.0,0.0,0.0,0.0,0.0,0.0,0.0,0.0,0.0,0.0,0.0,0.0,0.0,0.0,0.0,0.0,0.0,0.0,0.0,0.0,0.0,0.0,0.0,0.0,0.0,0.0,0.0,0.0,0.0,0.0,0.0,0.0,0.0,0.0,0.0,0.0,0.0,0.0,0.0,0.0,0.0,0.0,0.0,0.0,0.0,0.0,0.0,0.0,0.0,0.0,0.0,0.0,0.0,0.0,0.0,0.0,0.0,0.0,0.0,0.0,0.0,0.0,0.0,0.0,0.0,0.0,0.0,0.0,0.0,0.0,0.0,0.0,0.0,0.0,0.0,0.0,0.0,0.0,0.0,0.0,0.0,0.0,0.0,0.0,0.0,0.0,0.0,0.0,0.0,0.0,0.0,0.0,0.0,0.0,0.0,0.0,0.0,0.0,0.0,0.0,0.0,0.0,0.0,0.0,0.0,0.0,0.0,0.0,0.0,0.0,0.0,0.0,0.0,0.0,0.0,0.0,0.0,0.0,0.0,0.0,0.0,0.0,0.0,0.0,0.0,0.0,0.0,0.0,0.0,0.0,0.0,0.0,0.0,0.0,0.0,0.0,0.0,0.0,0.0,0.0,0.0,0.0,0.0,0.0,0.0,0.0,0.0,0.0,0.0,0.0,0.0,0.0,0.0,0.0,0.0,0.0,0.0,0.0,0.0,0.0,0.0,0.0,0.0,0.0,0.0,0.0,0.0,0.0,0.0,0.0,0.0,0.0,0.0,0.0,0.0,0.0,0.0,0.0,0.0,0.0,0.0,0.0,0.0,0.0,0.0,0.0,0.0,0.0,0.0,0.0,0.0,0.0,0.0,0.0,0.0,0.0,0.0,0.0,0.0,0.0,0.0,0.0,0.0,0.0,0.0,0.0,0.0,0.0,0.0,0.0,0.0,0.0,0.0,0.0,0.0,0.0,0.0,0.0,0.0,0.0,0.0,0.0,0.0,0.0,0.0,0.0,0.0,0.0,0.0,0.0,0.0,0.0,0.0,0.0,0.0,0.0,0.0,0.0,0.0,0.0,0.0,0.0,0.0,0.0,0.0,0.0,0.0,0.0,0.0,0.0,0.0,0.0,0.0,0.0,0.0,0.0,0.0,0.0,0.0,0.0,0.0,0.0,0.0,0.0,0.0,0.0,0.0,0.0,0.0,0.0,0.0,0.0,0.0,0.0,0.0,0.0,0.0,0.0,0.0,0.0,0.0,0.0,0.0,0.0,0.0,0.0,0.0,0.0,0.0,0.0,0.0,0.0,0.0,0.0,0.0,0.0,0.0,0.0,0.0,0.0,0.0,0.0,0.0,0.0,0.0,0.0,0.0,0.0,0.0,0.0,0.0,0.0,0.0,0.0,0.0,0.0,0.0,0.0,0.0,0.0,0.0,0.0,0.0,0.0,0.0,0.0,0.0,0.0,0.0,0.0,0.0,0.0,0.0,0.0,0.0,0.0,0.0,0.0,0.0,0.0,0.0,0.0,0.0,0.0,0.0,0.0,0.0,0.0,0.0,0.0,0.0,0.0,0.0,0.0,0.0,0.0,0.0,0.0,0.0,0.0,0.0,0.0,0.0,0.0,0.0,0.0,0.0,0.0,0.0,0.0,0.0,0.0,0.0,0.0,0.0,0.0,0.0,0.0,0.0,0.0,0.0,0.0,0.0,0.0,0.0,0.0,0.0,0.0,0.0,0.0,0.0,0.0,0.0,0.0,0.0,0.0,0.0,0.0,0.0,0.0,0.0,0.0,0.0,0.0,0.8787,0.0,0.0,0.0,0.0,0.0,0.0,0.0,0.0,0.0,0.0,0.0,0.0,0.0,0.0,0.0,0.0,0.0,0.0,0.0,0.0,0.0,0.0,0.0,0.0,0.0,0.0,0.0,0.0,0.0,0.0,0.0,0.0,0.0,0.0,0.0,0.0,0.0,0.0,0.0,0.0,0.0,0.0,0.0,0.0,0.0,0.0,0.0,0.0,0.0,0.0,0.0,0.0,0.0,0.0,0.0,0.0,0.0,0.0,0.0,0.0,0.0,0.0,0.0,0.0,0.0,0.0,0.0,0.0,0.0,0.0,0.0,0.0,0.0,0.0,0.0,0.0,0.0,0.0,0.0,0.0,0.0,0.0,0.0,0.0,0.0,0.0,0.0,0.0,0.0,0.0,0.0,0.0,0.0,0.0,0.0,0.0,0.0,0.0,0.0,0.0,0.0,0.0,0.0,0.0,0.0,0.0,0.0,0.0,0.0,0.0,0.8863,0.8759,0.8787,0.8798,0.8757,0.0,0.0,0.0,0.0,0.0,0.0,0.0,0.0,0.0,0.0,0.0,0.0,0.0,0.0,0.0,0.0,0.0,0.0,0.0,0.0,0.0,0.0,0.0,0.0,0.0,0.0,0.0,0.0,0.0,0.0,0.0,0.0,0.0,0.0,0.0,0.0,0.0,0.0,0.0,0.0,0.0,0.0,0.0,0.0,0.0,0.0,0.0,0.0,0.0,0.0,0.0,0.0,0.0,0.0,0.0,0.0,0.0,0.0,0.0,0.0,0.0,0.0,0.0,0.0,0.0,0.0,0.0,0.0,0.0,0.0,0.0,0.0,0.0,0.0,0.0,0.0,0.0,0.0,0.0,0.0,0.0,0.0,0.0,0.0,0.0,0.0,0.0,0.0,0.0,0.0,0.0,0.0,0.0,0.0,0.0,0.0,0.0,0.0,0.0,0.0,0.0,0.0,0.0,0.0,0.0,0.0,0.0,0.0,0.0,0.0,0.0,0.0,0.8898,0.8913,0.8761,0.0,0.0,0.0,0.0,0.0,0.0,0.0,0.0,0.0,0.0,0.0,0.0,0.0,0.0,0.0,0.0,0.0,0.0,0.0,0.0,0.0,0.0,0.0,0.0,0.0,0.0,0.0,0.0,0.0,0.0,0.0,0.0,0.0,0.0,0.0,0.0,0.0,0.0,0.0,0.0,0.0,0.0,0.0,0.0,0.0,0.0,0.0,0.0,0.0,0.0,0.0,0.0,0.0,0.0,0.0,0.0,0.0,0.0,0.0,0.0,0.0,0.0,0.0,0.0,0.0,0.0,0.0,0.0,0.0,0.0,0.0,0.0,0.0,0.0,0.0,0.0,0.0,0.0,0.0,0.0,0.0,0.0,0.0,0.0,0.0,0.0,0.0,0.0,0.0,0.0,0.0,0.0,0.0,0.0,0.0,0.0,0.0,0.0,0.0,0.0,0.0,0.0,0.0,0.0,0.0,0.0,0.0,0.0,0.0,0.0,0.9384,0.8738,0.9297,0.0,0.8945,0.0,0.0,0.0,0.0,0.0,0.0,0.0,0.0,0.0,0.0,0.0,0.0,0.0,0.0,0.0,0.0,0.0,0.0,0.0,0.0,0.0,0.0,0.0,0.0,0.0,0.0,0.0,0.0,0.0,0.0,0.0,0.0,0.0,0.0,0.0,0.0,0.0,0.0,0.0,0.0,0.0,0.0,0.0,0.0,0.0,0.0,0.0,0.0,0.0,0.0,0.0,0.0,0.0,0.0,0.0,0.0,0.0,0.0,0.0,0.0,0.0,0.0,0.0,0.0,0.0,0.0,0.0,0.0,0.0,0.0,0.0,0.0,0.0,0.0,0.0,0.0,0.0,0.0,0.0,0.0,0.0,0.0,0.0,0.0,0.0,0.0,0.0,0.0,0.0,0.0,0.0,0.0,0.0,0.0,0.0,0.0,0.0,0.0,0.0,0.0,0.0,0.0,0.0,0.0,0.0,0.0,0.0,0.0,0.0,0.0,0.9573,0.9255,0.957,0.9491,0.0,0.0,0.0,0.0,0.0,0.0,0.0,0.0,0.0,0.0,0.0,0.0,0.0,0.0,0.0,0.0,0.0,0.0,0.0,0.0,0.0,0.0,0.0,0.0,0.0,0.0,0.0,0.0,0.0,0.0,0.0,0.0,0.0,0.0,0.0,0.0,0.0,0.0,0.0,0.0,0.0,0.0,0.0,0.0,0.0,0.0,0.0,0.0,0.0,0.0,0.0,0.0,0.0,0.0,0.0,0.0,0.0,0.0,0.0,0.0,0.0,0.0,0.0,0.0,0.0,0.0,0.0,0.0,0.0,0.0,0.0,0.0,0.0,0.0,0.0,0.0,0.0,0.0,0.0,0.0,0.0,0.0,0.0,0.0,0.0,0.0,0.0,0.0,0.0,0.0,0.0,0.0,0.0,0.0,0.0,0.0,0.0,0.0,0.0,0.0,0.0,0.0,0.0,0.0,0.0,0.0,0.0,0.0,0.0,0.0,0.933,0.9624,0.9612,0.9551,0.9357,0.902,0.0,0.0,0.0,0.0,0.0,0.0,0.0,0.0,0.0,0.0,0.0,0.0,0.0,0.0,0.0,0.0,0.0,0.0,0.0,0.0,0.0,0.0,0.0,0.0,0.0,0.0,0.0,0.0,0.0,0.0,0.0,0.0,0.0,0.0,0.0,0.0,0.0,0.0,0.0,0.0,0.0,0.0,0.0,0.0,0.0,0.0,0.0,0.0,0.0,0.0,0.0,0.0,0.0,0.0,0.0,0.0,0.0,0.0,0.0,0.0,0.0,0.0,0.0,0.0,0.0,0.0,0.0,0.0,0.0,0.0,0.0,0.0,0.0,0.0,0.0,0.0,0.0,0.0,0.0,0.0,0.0,0.0,0.0,0.0,0.0,0.0,0.0,0.0,0.0,0.0,0.0,0.0,0.0,0.0,0.0,0.0,0.0,0.0,0.0,0.0,0.0,0.0,0.0,0.0,0.0,0.0,0.0,0.0,0.8635,0.9214,0.9559,0.9592,0.9102,0.8908,0.0,0.0,0.0,0.0,0.0,0.0,0.0,0.0,0.0,0.0,0.0,0.0,0.0,0.0,0.0,0.0,0.0,0.0,0.0,0.0,0.0,0.0,0.0,0.0,0.0,0.0,0.0,0.0,0.0,0.0,0.0,0.0,0.0,0.0,0.0,0.0,0.0,0.0,0.0,0.0,0.0,0.0,0.0,0.0,0.0,0.0,0.0,0.0,0.0,0.0,0.0,0.0,0.0,0.0,0.0,0.0,0.0,0.0,0.0,0.0,0.0,0.0,0.0,0.0,0.0,0.0,0.0,0.0,0.0,0.0,0.0,0.0,0.0,0.0,0.0,0.0,0.0,0.0,0.0,0.0,0.0,0.0,0.0,0.0,0.0,0.0,0.0,0.0,0.0,0.0,0.0,0.0,0.0,0.0,0.0,0.0,0.0,0.0,0.0,0.0,0.0,0.0,0.0,0.0,0.0,0.0,0.0,0.0,0.0,0.854,0.962,0.9998,0.9629,0.995,0.9789,0.0,0.0,0.0,0.0,0.0,0.0,0.0,0.0,0.0,0.0,0.0,0.0,0.0,0.0,0.0,0.0,0.0,0.0,0.0,0.0,0.0,0.0,0.0,0.0,0.0,0.0,0.0,0.0,0.0,0.0,0.0,0.0,0.0,0.0,0.0,0.0,0.0,0.0,0.0,0.0,0.0,0.0,0.0,0.0,0.0,0.0,0.0,0.0,0.0,0.0,0.0,0.0,0.0,0.0,0.0,0.0,0.0,0.0,0.0,0.0,0.0,0.0,0.0,0.0,0.0,0.0,0.0,0.0,0.0,0.0,0.0,0.0,0.0,0.0,0.0,0.0,0.0,0.0,0.0,0.0,0.0,0.0,0.0,0.0,0.0,0.0,0.0,0.0,0.0,0.0,0.0,0.0,0.0,0.0,0.0,0.0,0.0,0.0,0.0,0.0,0.0,0.0,0.0,0.0,0.0,0.0,0.0,0.0,0.0,0.8686,0.0,1.0109,0.9941,1.0317,1.0165,0.0,0.0,0.0,0.0,0.0,0.0,0.0,0.0,0.0,0.0,0.0,0.0,0.0,0.0,0.0,0.0,0.0,0.0,0.0,0.0,0.0,0.0,0.0,0.0,0.0,0.0,0.0,0.0,0.0,0.0,0.0,0.0,0.0,0.0,0.0,0.0,0.0,0.0,0.0,0.0,0.0,0.0,0.0,0.0,0.0,0.0,0.0,0.0,0.0,0.0,0.0,0.0,0.0,0.0,0.0,0.0,0.0,0.0,0.0,0.0,0.0,0.0,0.0,0.0,0.0,0.0,0.0,0.0,0.0,0.0,0.0,0.0,0.0,0.0,0.0,0.0,0.0,0.0,0.0,0.0,0.0,0.0,0.0,0.0,0.0,0.0,0.0,0.0,0.0,0.0,0.0,0.0,0.0,0.0,0.0,0.0,0.0,0.0,0.0,0.0,0.0,0.0,0.0,0.0,0.0,0.0,0.0,0.0,0.8701,0.918,0.9382,0.9881,1.0535,1.015,0.9928,0.0,0.0,0.0,0.0,0.0,0.0,0.0,0.0,0.0,0.0,0.0,0.0,0.0,0.0,0.0,0.0,0.0,0.0,0.0,0.0,0.0,0.0,0.0,0.0,0.0,0.0,0.0,0.0,0.0,0.0,0.0,0.0,0.0,0.0,0.0,0.0,0.0,0.0,0.0,0.0,0.0,0.0,0.0,0.0,0.0,0.0,0.0,0.0,0.0,0.0,0.0,0.0,0.0,0.0,0.0,0.0,0.0,0.0,0.0,0.0,0.0,0.0,0.0,0.0,0.0,0.0,0.0,0.0,0.0,0.0,0.0,0.0,0.0,0.0,0.0,0.0,0.0,0.0,0.0,0.0,0.0,0.0,0.0,0.0,0.0,0.0,0.0,0.0,0.0,0.0,0.0,0.0,0.0,0.0,0.0,0.0,0.0,0.0,0.0,0.0,0.0,0.0,0.0,0.0,0.0,0.0,0.0,0.0,0.0,0.9891,1.0468,1.0691,1.0567,1.1005,1.0879,0.0,0.0,0.0,0.0,0.0,0.0,0.0,0.0,0.0,0.0,0.0,0.0,0.0,0.0,0.0,0.0,0.0,0.0,0.0,0.0,0.0,0.0,0.0,0.0,0.0,0.0,0.0,0.0,0.0,0.0,0.0,0.0,0.0,0.0,0.0,0.0,0.0,0.0,0.0,0.0,0.0,0.0,0.0,0.0,0.0,0.0,0.0,0.0,0.0,0.0,0.0,0.0,0.0,0.0,0.0,0.0,0.0,0.0,0.0,0.0,0.0,0.0,0.0,0.0,0.0,0.0,0.0,0.0,0.0,0.0,0.0,0.0,0.0,0.0,0.0,0.0,0.0,0.0,0.0,0.0,0.0,0.0,0.0,0.0,0.0,0.0,0.0,0.0,0.0,0.0,0.0,0.0,0.0,0.0,0.0,0.0,0.0,0.0,0.0,0.0,0.0,0.0,0.0,0.0,0.0,0.0,0.0,0.0,0.0,1.129,1.159,1.1722,1.1657,1.2047,1.181,1.0865,0.0,0.0,0.0,0.0,0.0,0.0,0.0,0.0,0.0,0.0,0.0,0.0,0.0,0.0,0.0,0.0,0.0,0.0,0.0,0.0,0.0,0.0,0.0,0.0,0.0,0.0,0.0,0.0,0.0,0.0,0.0,0.0,0.0,0.0,0.0,0.0,0.0,0.0,0.0,0.0,0.0,0.0,0.0,0.0,0.0,0.0,0.0,0.0,0.0,0.0,0.0,0.0,0.0,0.0,0.0,0.0,0.0,0.0,0.0,0.0,0.0,0.0,0.0,0.0,0.0,0.0,0.0,0.0,0.0,0.0,0.0,0.0,0.0,0.0,0.0,0.0,0.0,0.0,0.0,0.0,0.0,0.0,0.0,0.0,0.0,0.0,0.0,0.0,0.0,0.0,0.0,0.0,0.0,0.0,0.0,0.0,0.0,0.0,0.0,0.0,0.0,0.0,0.0,0.0,0.0,0.0,0.0,0.0,1.3141,1.2706,1.2858,1.36,1.3197,1.2727,0.0,0.0,0.0,0.0,0.0,0.0,0.0,0.0,0.0,0.0,0.0,0.0,0.0,0.0,0.0,0.0,0.0,0.0,0.0,0.0,0.0,0.0,0.0,0.0,0.0,0.0,0.0,0.0,0.0,0.0,0.0,0.0,0.0,0.0,0.0,0.0,0.0,0.0,0.0,0.0,0.0,0.0,0.0,0.0,0.0,0.0,0.0,0.0,0.0,0.0,0.0,0.0,0.0,0.0,0.0,0.0,0.0,0.0,0.0,0.0,0.0,0.0,0.0,0.0,0.0,0.0,0.0,0.0,0.0,0.0,0.0,0.0,0.0,0.0,0.0,0.0,0.0,0.0,0.0,0.0,0.0,0.0,0.0,0.0,0.0,0.0,0.0,0.0,0.0,0.0,0.0,0.0,0.0,0.0,0.0,0.0,0.0,0.0,0.0,0.0,0.0,0.0,0.0,0.0,0.0,0.0,0.0,0.0,0.0,1.3815,1.423,1.4401,1.4338,1.3931,1.3449,0.0,0.0,0.0,0.0,0.0,0.0,0.0,0.0,0.0,0.0,0.0,0.0,0.0,0.0,0.0,0.0,0.0,0.0,0.0,0.0,0.0,0.0,0.0,0.0,0.0,0.0,0.0,0.0,0.0,0.0,0.0,0.0,0.0,0.0,0.0,0.0,0.0,0.0,0.0,0.0,0.0,0.0,0.0,0.0,0.0,0.0,0.0,0.0,0.0,0.0,0.0,0.0,0.0,0.0,0.0,0.0,0.0,0.0,0.0,0.0,0.0,0.0,0.0,0.0,0.0,0.0,0.0,0.0,0.0,0.0,0.0,0.0,0.0,0.0,0.0,0.0,0.0,0.0,0.0,0.0,0.0,0.0,0.0,0.0,0.0,0.0,0.0,0.0,0.0,0.0,0.0,0.0,0.0,0.0,0.0,0.0,0.0,0.0,0.0,0.0,0.0,0.0,0.0,0.0,0.0,0.0,0.0,0.0,1.3758,1.4432,1.5248,1.563,1.5511,1.4837,1.4214,0.0,0.0,0.0,0.0,0.0,0.0,0.0,0.0,0.0,0.0,0.0,0.0,0.0,0.0,0.0,0.0,0.0,0.0,0.0,0.0,0.0,0.0,0.0,0.0,0.0,0.0,0.0,0.0,0.0,0.0,0.0,0.0,0.0,0.0,0.0,0.0,0.0,0.0,0.0,0.0,0.0,0.0,0.0,0.0,0.0,0.0,0.0,0.0,0.0,0.0,0.0,0.0,0.0,0.0,0.0,0.0,0.0,0.0,0.0,0.0,0.0,0.0,0.0,0.0,0.0,0.0,0.0,0.0,0.0,0.0,0.0,0.0,0.0,0.0,0.0,0.0,0.0,0.0,0.0,0.0,0.0,0.0,0.0,0.0,0.0,0.0,0.0,0.0,0.0,0.0,0.0,0.0,0.0,0.0,0.0,0.0,0.0,0.0,0.0,0.0,0.0,0.0,0.0,0.0,0.0,0.0,0.0,0.0,1.4266,1.5002,1.5863,1.6519,1.6885,1.5748,1.4936,0.0,0.0,0.0,0.0,0.0,0.0,0.0,0.0,0.0,0.0,0.0,0.0,0.0,0.0,0.0,0.0,0.0,0.0,0.0,0.0,0.0,0.0,0.0,0.0,0.0,0.0,0.0,0.0,0.0,0.0,0.0,0.0,0.0,0.0,0.0,0.0,0.0,0.0,0.0,0.0,0.0,0.0,0.0,0.0,0.0,0.0,0.0,0.0,0.0,0.0,0.0,0.0,0.0,0.0,0.0,0.0,0.0,0.0,0.0,0.0,0.0,0.0,0.0,0.0,0.0,0.0,0.0,0.0,0.0,0.0,0.0,0.0,0.0,0.0,0.0,0.0,0.0,0.0,0.0,0.0,0.0,0.0,0.0,0.0,0.0,0.0,0.0,0.0,0.0,0.0,0.0,0.0,0.0,0.0,0.0,0.0,0.0,0.0,0.0,0.0,0.0,0.0,0.0,0.0,0.0,0.0,0.0,0.0,1.4565,1.5725,1.6223,1.6922,1.7873,1.6129,1.524,0.0,0.0,0.0,0.0,0.0,0.0,0.0,0.0,0.0,0.0,0.0,0.0,0.0,0.0,0.0,0.0,0.0,0.0,0.0,0.0,0.0,0.0,0.0,0.0,0.0,0.0,0.0,0.0,0.0,0.0,0.0,0.0,0.0,0.0,0.0,0.0,0.0,0.0,0.0,0.0,0.0,0.0,0.0,0.0,0.0,0.0,0.0,0.0,0.9308,0.0,0.0,0.0,0.0,0.0,0.0,0.0,0.0,0.0,0.0,0.0,0.0,0.0,0.0,0.0,0.0,0.0,0.0,0.0,0.0,0.0,0.0,0.0,0.0,0.0,0.0,0.0,0.0,0.0,0.0,0.0,0.0,0.0,0.0,0.0,0.0,0.0,0.0,0.0,0.0,0.0,0.0,0.0,0.0,0.0,0.0,0.0,0.0,0.0,0.0,0.0,0.0,0.0,0.0,0.0,0.0,0.0,0.0,0.0,1.5107,1.6463,1.6876,1.746,1.8173,1.6437,1.5539,0.0,0.0,0.0,0.0,0.0,0.0,0.0,0.0,0.0,0.0,0.0,0.0,0.0,0.0,0.0,0.0,0.0,0.0,0.0,0.0,0.0,0.0,0.0,0.0,0.0,0.0,0.0,0.0,0.0,0.0,0.0,0.0,0.0,0.0,0.0,0.0,0.0,0.0,0.0,0.0,0.0,0.0,0.0,0.0,0.0,0.0,0.0,0.0,0.0,0.0,0.0,0.0,0.0,0.0,0.0,0.0,0.0,0.0,0.0,0.0,0.0,0.0,0.0,0.0,0.0,0.0,0.0,0.0,0.0,0.0,0.0,0.0,0.0,0.0,0.0,0.0,0.0,0.0,0.0,0.0,0.0,0.0,0.0,0.0,0.0,0.0,0.0,0.0,0.0,0.0,0.0,0.0,0.0,0.0,0.0,0.0,0.0,0.0,0.0,0.0,0.0,0.0,0.0,0.0,0.0,0.0,0.0,1.4671,1.584,1.7246,1.7611,1.8034,1.8561,1.6733,1.5785,1.5938,0.0,0.0,0.0,0.0,0.0,0.0,0.0,0.0,0.0,0.0,0.0,0.0,0.0,0.0,0.0,0.0,0.0,0.0,0.0,0.0,0.0,0.0,0.0,0.0,0.0,0.0,0.0,0.0,0.0,0.0,0.0,0.0,0.0,0.0,0.0,0.0,0.0,0.0,0.9342,1.0307,0.0,0.0,0.0,0.0,0.0,0.0,0.0,0.0,1.0584,0.0,0.0,0.0,0.0,0.0,0.0,0.0,0.0,0.0,0.0,0.0,0.0,0.0,0.0,0.0,0.0,0.0,0.0,0.0,0.0,0.0,0.0,0.0,0.0,0.0,0.0,0.0,0.0,0.0,0.0,0.0,0.0,0.0,0.0,0.0,0.0,0.0,0.0,0.0,0.0,0.0,0.0,0.0,0.0,0.0,0.0,0.0,0.0,0.0,0.0,0.0,0.0,0.0,0.0,0.0,0.0,1.3988,1.5358,1.6776,1.8211,1.8126,1.8522,1.945,1.7115,1.5919,1.6176,0.0,0.0,0.0,0.0,0.0,0.0,0.0,0.0,0.0,0.0,0.0,0.0,0.0,0.0,0.0,0.0,0.0,0.0,0.0,0.0,0.0,0.0,0.0,0.0,0.0,0.0,0.0,0.0,0.0,0.0,0.0,0.0,0.0,0.0,0.0,0.0,0.0,0.0,0.0,1.0477,1.1102,0.0,0.0,0.0,0.0,0.0,0.0,0.0,0.0,1.1133,0.0,0.0,0.0,0.0,0.0,0.0,0.0,0.0,0.0,0.0,0.0,0.0,0.0,0.0,0.0,0.0,0.0,0.0,0.0,0.0,0.0,0.0,0.0,0.0,0.0,0.0,0.0,0.0,0.0,0.0,0.0,0.0,0.0,0.0,0.0,0.0,0.0,0.0,0.0,0.0,0.0,0.0,0.0,0.0,0.0,0.0,0.0,0.0,0.0,0.0,0.0,0.0,0.0,0.0,0.0,1.4176,1.5937,1.7482,1.8725,1.8748,1.9151,1.986,1.7345,1.605,0.0,0.0,0.0,0.0,0.0,0.0,0.0,0.0,0.0,0.0,0.0,0.0,0.0,0.0,0.0,0.0,0.0,0.0,0.0,0.0,0.0,0.0,0.0,0.0,0.0,0.0,0.0,0.0,0.0,0.0,0.0,0.0,0.0,0.0,0.0,0.0,0.0,0.0,0.0,0.0,1.0902,1.136,1.1602,0.0,0.0,0.0,0.0,0.0,0.0,1.1702,1.1686,0.0,0.0,0.0,0.0,0.0,0.0,0.0,0.0,0.0,0.0,0.0,0.0,0.0,0.0,0.0,0.0,0.0,0.0,0.0,0.0,0.0,0.0,0.0,0.0,0.0,0.0,0.0,0.0,0.0,0.0,0.0,0.0,0.0,0.0,0.0,0.0,0.0,0.0,0.0,0.0,0.0,0.0,0.0,0.0,0.0,0.0,0.0,0.0,0.0,0.0,0.0,0.0,0.0,0.0,0.0,1.4504,1.6585,1.8203,1.9239,1.9402,1.9697,2.0074,1.7505,1.6154,0.0,0.0,0.0,0.0,0.0,0.0,0.0,0.0,0.0,0.0,0.0,0.0,0.0,0.0,0.0,0.0,0.0,0.0,0.0,0.0,0.0,0.0,0.0,0.0,0.0,0.0,0.0,0.0,0.0,0.0,0.0,0.0,0.0,0.0,0.0,0.0,0.0,0.0,0.0,0.0,0.0,1.1726,1.1718,1.1765,0.0,0.0,0.0,0.0,1.2234,1.2196,0.0,0.0,0.0,0.0,0.0,0.0,0.0,0.0,0.0,0.0,0.0,0.0,0.0,0.0,0.0,0.0,0.0,0.0,0.0,0.0,0.0,0.0,0.0,0.0,0.0,0.0,0.0,0.0,0.0,0.0,0.0,0.0,0.0,0.0,0.0,0.0,0.0,0.0,0.0,0.0,0.0,0.0,0.0,0.0,0.0,0.0,0.0,0.0,0.0,0.0,0.0,0.0,0.0,0.0,0.0,0.0,1.5408,1.7509,1.916,2.017,1.9856,1.9875,2.0239,1.7512,1.6124,0.0,0.0,0.0,0.0,0.0,0.0,0.0,0.0,0.0,0.0,0.0,0.0,0.0,0.0,0.0,0.0,0.0,0.0,0.0,0.0,0.0,0.0,0.0,0.0,0.0,0.0,0.0,0.0,0.0,0.0,0.0,0.0,0.0,0.0,0.0,0.0,0.0,0.0,0.0,0.0,0.0,1.2129,1.2131,1.254,1.2828,0.0,0.0,1.2726,1.2719,1.2678,0.0,0.0,0.0,0.0,0.0,0.0,0.0,0.0,0.0,0.0,0.0,0.0,0.0,0.0,0.0,0.0,0.0,0.0,0.0,0.0,0.0,0.0,0.0,0.0,0.0,0.0,0.0,0.0,0.0,0.0,0.0,0.0,0.0,0.0,0.0,0.0,0.0,0.0,0.0,0.0,0.0,0.0,0.0,0.0,0.0,0.0,0.0,0.0,0.0,0.0,0.0,0.0,0.0,0.0,0.0,1.4861,1.5649,1.7791,1.9434,2.0462,2.0053,2.0006,2.0411,1.7629,1.6206,0.0,0.0,0.0,0.0,0.0,0.0,0.0,0.0,0.0,0.0,0.0,0.0,0.0,0.0,0.0,0.0,0.0,0.0,0.0,0.0,0.0,0.0,0.0,0.0,0.0,0.0,0.0,0.0,0.0,0.0,0.0,0.0,0.0,0.0,0.0,0.0,0.0,0.0,0.0,0.0,0.0,0.0,1.2484,1.2704,0.0,0.0,0.0,1.3677,1.3715,0.0,0.0,0.0,0.0,0.0,0.0,0.0,0.0,0.0,0.0,0.0,0.0,0.0,0.0,0.0,0.0,0.0,0.0,0.0,0.0,0.0,0.0,0.0,0.0,0.0,0.0,0.0,0.0,0.0,0.0,0.0,0.0,0.0,0.0,0.0,0.0,0.0,0.0,0.0,0.0,0.0,0.0,0.0,0.0,0.0,0.0,0.0,0.0,0.0,0.0,0.0,0.0,0.0,0.0,0.0,0.0,0.0,1.6329,1.8125,1.9671,2.0865,2.0311,2.0156,2.0454,1.7921,0.0,0.0,0.0,0.0,0.0,0.0,0.0,0.0,0.0,0.0,0.0,0.0,0.0,0.0,0.0,0.0,0.0,0.0,0.0,0.0,0.0,0.0,0.0,0.0,0.0,0.0,0.0,0.9379,0.0,0.0,0.0,0.0,0.0,0.0,0.0,0.0,0.0,0.0,0.0,0.0,0.0,0.0,1.2706,1.3169,1.3392,1.3674,0.0,0.0,1.4676,1.4773,1.4686,1.4316,0.0,0.0,0.0,0.0,0.0,0.0,0.0,0.0,0.0,0.0,0.0,0.0,0.0,0.0,0.0,0.0,0.0,0.0,0.0,0.0,0.0,0.0,0.0,0.0,0.0,0.0,0.0,0.0,0.0,0.0,0.0,0.0,0.0,0.0,0.0,0.0,0.0,0.0,0.0,0.0,0.0,0.0,0.0,0.0,0.0,0.0,0.0,0.0,0.0,0.0,0.0,0.0,0.0,0.0,0.0,1.7964,1.8805,2.0052,2.18,2.0767,2.0304,2.0547,1.8455,1.7025,0.0,0.0,0.0,0.0,0.0,0.0,0.0,0.0,0.0,0.0,0.0,0.0,0.0,0.0,0.0,0.0,0.0,0.0,0.0,0.0,0.0,0.0,0.0,0.0,0.0,0.0,0.0,0.0,0.0,0.0,0.0,0.0,0.0,0.0,0.0,0.0,0.0,0.0,0.0,0.0,0.0,1.428,1.4377,1.5123,1.5717,0.0,0.0,1.5655,1.577,1.5481,1.5065,1.455,0.0,0.0,0.0,0.0,0.0,0.0,0.0,0.0,0.0,0.0,0.0,0.0,0.0,0.0,0.0,0.0,0.0,0.0,0.0,0.0,0.0,0.0,0.0,0.0,0.0,0.0,0.0,0.0,0.0,0.0,0.0,0.0,0.0,0.0,0.0,0.0,0.0,0.0,0.0,0.0,0.0,0.0,0.0,0.0,0.0,0.0,0.0,0.0,0.0,0.0,0.0,0.0,0.0,1.5906,1.8166,1.8957,2.019,2.1872,2.0814,2.0317,2.0587,1.8523,1.7325,0.0,0.0,0.0,0.0,0.0,0.0,0.0,0.0,0.0,0.0,0.0,0.0,0.0,0.0,0.0,0.0,0.0,0.0,0.0,0.0,0.0,0.0,0.0,0.0,0.0,0.0,0.0,0.0,1.1273,1.1494,1.1852,0.0,0.0,0.0,0.0,0.0,0.0,0.0,0.0,0.0,0.0,1.4632,1.5273,1.5636,0.0,0.0,1.6317,1.6327,1.6553,1.6205,1.5658,1.4901,1.4447,0.0,0.0,0.0,0.0,0.0,0.0,0.0,0.0,0.0,0.0,0.0,0.0,0.0,0.0,0.0,0.0,0.0,0.0,0.0,0.0,0.0,0.0,0.0,0.0,0.0,0.0,0.0,0.0,0.0,0.0,0.0,0.0,0.0,0.0,0.0,0.0,0.0,0.0,0.0,0.0,0.0,0.0,0.0,0.0,0.0,0.0,0.0,0.0,0.0,0.0,0.0,0.0,1.6364,1.8594,1.92,2.0352,2.2117,2.1171,2.0666,2.0642,1.9037,1.7999,0.0,0.0,0.0,0.0,0.0,0.0,0.0,0.0,0.0,0.0,0.0,0.0,0.0,0.0,0.0,0.0,0.0,0.0,0.0,0.0,0.0,0.0,0.0,0.0,0.0,0.0,0.0,0.0,1.1645,1.1731,1.2143,0.0,0.0,0.0,0.0,0.0,0.0,0.0,0.0,0.0,0.0,1.5464,1.6167,1.6275,1.6451,1.6873,1.6897,1.6956,1.7229,1.6729,1.6187,1.581,0.0,0.0,0.0,0.0,0.0,0.0,0.0,0.0,0.0,0.0,0.0,0.0,0.0,0.0,0.0,0.0,0.0,0.0,0.0,0.0,0.0,0.0,0.0,0.0,0.0,0.0,0.0,0.0,0.0,0.0,1.5515,0.0,0.0,0.0,0.0,0.0,0.0,0.0,0.0,0.0,0.0,0.0,0.0,0.0,0.0,0.0,0.0,0.0,0.0,0.0,0.0,0.0,0.0,0.0,1.9521,1.9651,2.0585,2.2395,2.1933,2.1406,2.0901,2.02,1.9156,1.7742,0.0,0.0,0.0,0.0,0.0,0.0,0.0,0.0,0.0,0.0,0.0,0.0,0.0,0.0,0.0,0.0,0.0,0.0,0.0,0.0,0.0,0.0,0.0,0.0,0.0,0.0,1.2271,1.2215,1.2174,0.0,0.0,0.0,0.0,0.0,0.0,0.0,0.0,0.0,0.0,1.6142,1.7044,1.7075,1.7282,1.748,1.7625,1.7554,1.7574,1.7831,1.7059,1.6689,0.0,0.0,0.0,0.0,0.0,0.0,0.0,0.0,0.0,0.0,0.0,0.0,0.0,0.0,0.0,0.0,0.0,0.0,0.0,0.0,0.0,0.0,0.0,0.0,0.0,0.0,0.0,1.5595,1.5595,0.0,0.0,0.0,0.0,0.0,0.0,0.0,0.0,0.0,0.0,0.0,1.8882,1.8639,0.0,0.0,0.0,0.0,0.0,0.0,0.0,0.0,0.0,0.0,0.0,0.0,1.7378,1.9614,1.9841,2.0787,2.2557,2.2105,2.1545,2.0994,2.0359,1.9262,1.77,0.0,0.0,0.0,0.0,0.0,0.0,0.0,0.0,0.0,0.0,0.0,0.0,0.0,0.0,0.0,0.0,0.0,0.0,0.0,0.0,0.0,0.0,0.0,0.0,0.0,1.2226,0.0,0.0,0.0,0.0,0.0,0.0,0.0,0.0,0.0,0.0,0.0,1.6218,1.677,1.716,1.7477,1.7614,1.7703,1.7713,0.0,0.0,0.0,0.0,0.0,0.0,0.0,0.0,0.0,0.0,0.0,0.0,0.0,0.0,1.8208,1.6648,1.6354,1.6298,1.6101,0.0,0.0,0.0,0.0,0.0,0.0,0.0,0.0,0.0,0.0,0.0,0.0,0.0,0.0,0.0,0.0,1.7129,0.0,0.0,0.0,0.0,0.0,0.0,0.0,0.0,2.0257,2.0927,2.117,2.092,2.0809,0.0,2.0538,1.927,0.0,0.0,0.0,0.0,0.0,0.0,0.0,0.0,1.802,1.9765,2.0268,2.1242,2.2706,2.255,2.2127,2.1535,2.0601,1.9411,1.8003,1.7563,1.7049,0.0,0.0,0.0,0.0,0.0,0.0,0.0,0.0,0.0,0.0,0.0,0.0,0.0,0.0,0.0,0.0,0.0,0.0,0.0,0.0,0.0,0.0,0.0,1.276,0.0,0.0,0.0,0.0,0.0,0.0,0.0,0.0,0.0,1.6841,1.7008,1.7279,1.7858,1.794,1.7963,1.8088,0.0,0.0,0.0,0.0,0.0,0.0,0.0,1.8513,1.8936,1.8576,1.8468,1.9199,1.9698,2.0137,2.0435,0.0,0.0,1.8105,1.7776,1.7687,1.7447,1.7309,1.7185,1.7043,1.7105,1.7105,0.0,0.0,0.0,0.0,0.0,0.0,0.0,0.0,2.0035,2.0025,0.0,2.0018,0.0,0.0,0.0,0.0,0.0,0.0,0.0,0.0,2.203,2.2757,2.334,2.2706,2.2378,2.232,2.1688,2.0909,2.0054,1.8702,0.0,0.0,0.0,0.0,0.0,0.0,1.9073,1.9956,2.0916,2.1927,2.2979,2.3277,2.3118,2.247,2.0978,1.9716,1.8725,1.7988,1.745,1.7271,1.6455,0.0,0.0,0.0,0.0,0.0,0.0,0.0,0.0,0.0,0.0,0.0,0.0,0.0,0.0,0.0,0.0,0.0,0.0,0.0,0.0,1.366,0.0,0.0,0.0,0.0,0.0,0.0,0.0,0.0,0.0,0.0,1.6989,1.7743,1.8288,1.8255,0.0,0.0,0.0,0.0,1.8254,1.824,1.8761,1.9242,1.9479,1.9602,1.9949,2.0905,0.0,0.0,2.1315,2.1468,2.1482,2.1345,2.1339,2.0989,2.0076,1.983,1.9565,1.8925,1.87,1.8564,1.8365,1.8593,1.8854,2.2431,0.0,0.0,0.0,0.0,2.1238,2.1434,2.1637,2.163,2.1644,2.1644,2.1654,0.0,0.0,0.0,0.0,0.0,0.0,2.2779,2.2894,2.3607,2.4105,2.4368,2.4171,2.4069,2.4086,2.3879,2.3367,2.2641,2.2204,2.1,1.9045,0.0,0.0,0.0,0.0,2.0003,2.0918,2.1436,2.2174,2.3199,2.3474,2.33,2.2651,2.1636,2.089,2.0455,2.0179,1.9707,1.9007,1.8163,0.0,0.0,0.0,0.0,0.0,0.0,0.0,0.0,0.0,0.0,0.0,0.0,0.0,0.0,0.0,0.0,0.0,0.0,0.0,1.3897,1.4386,1.4489,0.0,0.0,0.0,0.0,0.0,0.0,0.0,0.0,0.0,1.8188,1.8369,1.8632,0.0,0.0,1.8846,1.8659,1.8966,1.916,1.9055,0.0,0.0,0.0,2.0513,2.0781,2.1048,2.1817,2.253,2.284,2.3295,2.3611,2.3548,2.3163,2.2724,2.2332,2.1428,2.0699,2.0321,2.0149,1.997,1.9817,1.9692,1.9533,2.6281,2.4919,2.4,2.3622,2.3639,2.3927,2.4045,2.4052,2.4052,2.3876,2.3598,2.3622,2.3197,2.251,2.251,0.0,0.0,0.0,2.5013,2.5434,2.6153,2.6406,2.6227,2.6218,2.5909,2.5325,2.5325,2.493,2.422,2.4213,2.3463,2.1966,0.0,0.0,2.0056,2.0629,2.1282,2.1996,2.2835,2.3474,2.3833,2.3819,2.3471,2.2754,2.2248,2.1757,2.1305,2.1207,2.0901,2.0314,1.9429,1.8625,0.0,0.0,0.0,0.0,0.0,0.0,0.0,0.0,0.0,0.0,0.0,1.3472,0.0,0.0,0.0,0.0,1.4106,1.4488,1.4952,1.5239,0.0,0.0,0.0,0.0,0.0,0.0,0.0,1.7421,1.8207,1.8894,1.9411,1.9462,1.9426,1.9417,1.9494,1.9483,1.931,0.0,2.0167,2.0092,2.0683,2.1172,2.1244,2.1616,2.2012,2.2402,2.3201,2.393,2.4291,2.4689,2.4913,2.4894,2.4611,2.4306,2.4227,2.3249,2.226,2.1801,2.16,2.1437,2.1185,2.0874,2.06,2.93,2.9121,2.6962,2.5973,2.5939,2.6598,2.6894,2.6886,2.6869,2.6488,2.5896,2.5871,2.5464,2.4802,2.4768,0.0,2.6029,2.6764,2.757,2.8438,2.9128,2.9118,2.8553,2.8553,2.7801,2.6434,2.6442,2.6071,2.5455,2.5421,2.5344,2.5164,2.2952,2.1407,2.0721,2.2017,2.285,2.3123,2.4716,2.5265,2.4759,2.4267,2.3641,2.2926,2.286,2.2441,2.1643,2.1544,2.1421,2.121,2.0375,1.9514,1.8652,0.0,0.0,0.0,0.0,0.0,0.0,0.0,0.0,0.0,0.0,0.0,0.0,0.0,0.0,0.0,1.5316,0.0,1.6328,1.6269,0.0,0.0,0.0,1.7265,1.7925,1.788,1.8021,1.8612,0.0,0.0,2.0563,0.0,2.0544,1.9849,2.0082,2.0299,2.0299,2.0784,2.1191,2.117,2.1701,2.2126,2.2232,2.2692,2.3308,2.413,2.4608,2.4903,2.5498,2.5648,2.5689,2.5678,2.5644,2.5558,2.5561,2.4871,2.4218,2.3154,2.2912,2.2711,2.2248,2.2028,2.1791,3.1065,3.0872,3.0217,2.9268,2.8214,2.8383,2.8468,2.8451,2.8468,2.8341,2.8197,2.8197,2.7809,2.7173,2.7223,2.7416,2.7746,2.8467,2.9041,2.9457,2.9622,2.9737,2.9771,2.9761,2.9585,2.9242,2.9216,2.9115,2.8895,2.8895,2.829,2.7159,2.6534,2.5478,2.4005,2.4296,2.4638,2.4958,2.551,2.5601,2.5157,2.4451,2.3992,2.3805,2.3777,2.3631,2.3308,2.3293,2.2686,2.1431,2.1087,2.0247,1.8745,1.7783,0.0,0.0,0.0,0.0,0.0,0.0,0.0,0.0,0.0,1.4508,1.5086,0.0,1.5105,0.0,1.5877,1.6817,1.7854,1.7874,0.0,0.0,1.7861,1.7859,1.7979,1.8367,1.8579,1.8488,1.9486,2.0399,2.0881,2.1246,2.1386,2.1217,2.1178,2.1183,2.1133,2.1642,2.2033,2.2077,2.2558,2.2974,2.2955,2.3165,2.3607,2.4432,2.5,2.5588,2.6243,2.6363,2.6363,2.633,2.5917,2.5597,2.5515,2.5115,2.4647,2.3957,2.3332,2.2836,2.2555,2.2312,2.2055,3.2849,3.2653,3.2165,3.1481,3.0649,3.0193,2.9993,3.0023,3.0023,2.9864,2.9605,2.9264,2.8935,2.8639,2.8665,2.8964,2.9461,2.9885,3.0411,3.1028,3.1054,3.0975,3.087,3.0853,3.0701,3.0371,3.0389,3.0366,3.0312,3.033,2.9877,2.9057,2.8687,2.8017,2.706,2.6283,2.6002,2.6309,2.6171,2.6014,2.5795,2.4722,2.4133,2.4133,2.4133,2.4112,2.3996,2.3991,2.3368,2.2058,2.1602,2.0753,1.9396,1.8396,1.7614,0.0,0.0,0.0,0.0,0.0,0.0,0.0,0.0,0.0,0.0,0.0,1.6536,0.0,1.738,1.7901,1.8451,1.8431,1.847,1.8677,1.8597,1.8639,1.8895,1.9208,1.9321,1.909,2.0053,2.0955,2.1495,2.1914,2.2258,2.2488,2.247,2.2325,2.2111,2.25,2.288,2.2895,2.3177,2.3429,2.3363,2.344,2.3829,2.4832,2.5349,2.5887,2.6854,2.7048,2.7033,2.7003,2.67,2.6388,2.6285,2.5506,2.4838,2.4429,2.3485,2.2738,2.2601,2.2333,2.203,3.4392,3.4181,3.3356,3.2969,3.2785,3.1823,3.1392,3.1315,3.1334,3.106,3.0547,2.9906,2.966,2.9747,2.9756,3.0257,3.1097,3.1114,3.1668,3.2629,3.2664,3.2388,3.1918,3.1934,3.1583,3.0987,3.0969,3.0979,3.0961,3.0961,3.0918,3.0768,3.0105,2.9686,2.9491,2.7991,2.7214,2.7246,2.6696,2.6388,2.6342,2.4959,2.4194,2.4194,2.4194,2.4175,2.4108,2.4108,2.3685,2.2772,2.2038,2.1236,2.0291,1.9413,1.8524,0.0,1.7416,0.0,0.0,0.0,0.0,0.0,0.0,0.0,0.0,1.7885,1.8276,1.9267,1.9159,1.898,1.8795,1.8726,1.8865,1.9365,1.9327,1.9506,2.0122,2.0174,2.0127,2.0104,2.0665,2.1418,2.2374,2.2683,2.3032,2.3415,2.3479,2.3295,2.2962,2.3236,2.3528,2.3584,2.3584,2.3577,2.3562,2.3573,2.3988,2.5139,2.5528,2.6022,2.7183,2.751,2.757,2.7557,2.7426,2.7327,2.7389,2.6035,2.5012,2.4805,2.3483,2.2422,2.2477,2.2266,2.1973,3.4781,3.4589,3.4226,3.3731,3.3103,3.2739,3.2153,3.1462,3.153,3.1548,3.1539,3.144,3.1487,3.1602,3.1646,3.1873,3.2284,3.2284,3.2522,3.2932,3.2995,3.3029,3.3069,3.3143,3.31,3.2962,3.2937,3.2926,3.2867,3.2867,3.2542,3.1902,3.1747,3.1041,2.9865,0.0,0.0,0.0,2.6821,2.619,2.5598,2.469,2.4194,2.4194,2.4194,0.0,2.4175,2.417,2.3789,2.2918,2.2665,0.0,0.0,0.0,0.0,0.0,0.0,0.0,0.0,0.0,0.0,0.0,1.9332,1.9274,1.9511,1.9399,1.9531,2.0035,1.9963,2.0015,2.032,2.0203,2.0125,2.0172,2.0128,2.0297,2.0843,2.0907,2.0941,2.1121,2.188,2.2707,2.3415,2.3516,2.3471,2.3591,2.3595,2.355,2.343,2.3505,2.3584,2.3584,2.3584,2.3584,2.3584,2.3584,2.3853,2.4631,2.5274,2.5872,2.6644,2.7285,2.7585,2.76,2.7501,2.7363,2.7229,2.6237,2.516,2.4688,2.3186,2.2055,2.2231,2.2137,2.1924,3.6319,0.0,3.5568,3.5106,0.0,3.4168,3.3454,3.2586,3.2076,3.1921,3.2046,3.2153,3.2258,3.2353,3.2403,3.2588,3.2858,3.2858,3.2993,3.3241,3.3286,3.3408,3.3541,3.3584,3.3626,3.3636,3.3654,3.3622,3.3587,3.3605,3.3386,3.3003,3.2591,3.1984,3.1188,3.0385,2.9418,2.8255,2.7123,2.6366,2.597,2.4819,2.4194,2.4194,0.0,0.0,0.0,0.0,0.0,0.0,0.0,0.0,0.0,0.0,0.0,2.0655,2.0436,2.028,2.0214,2.0431,2.0758,2.113,2.1806,2.1894,2.1157,2.1325,2.1622,2.1928,2.1624,2.1504,2.1794,2.1743,2.1629,2.1504,2.1459,2.1554,2.1784,2.1815,2.1892,2.2179,2.2614,2.3223,2.3896,2.3822,2.3707,2.3696,2.3627,2.3595,2.3584,2.3584,2.3584,2.3584,2.3584,2.3584,2.3584,2.3584,2.3823,2.4485,2.5169,2.5812,2.6494,2.7138,2.7585,2.7587,2.7437,2.7197,2.671,2.5777,2.4813,2.4067,2.2843,2.1916,2.1971,2.1888,2.1734,3.7863,3.7614,3.6899,3.6515,3.6328,3.5616,3.4852,3.4087,0.0,0.0,0.0,3.2988,3.3063,3.3136,3.3076,3.3146,3.3391,3.3262,3.3418,3.3774,3.3788,3.3939,3.4179,3.4193,3.4167,3.4067,3.4056,3.3982,3.3847,3.3829,3.3847,3.3773,3.3174,3.275,3.2471,3.1084,2.996,2.9129,2.7618,2.6741,2.657,2.5309,2.4612,2.4612,2.4483,2.442,2.4415,2.4268,2.3887,2.3194,2.3041,2.2653,2.1873,2.1629,2.1401,2.1132,2.0887,2.068,2.0624,2.1226,2.1894,2.2641,2.3942,2.4097,2.2692,2.3134,2.3561,2.3753,2.3209,2.2908,2.3001,2.2968,2.2871,2.2713,2.2651,2.2664,2.278,2.2727,2.2843,2.3196,2.3303,2.3519,2.4038,2.3956,2.3818,2.3792,2.3707,2.3616,2.3595,2.3584,2.3584,2.3584,2.3584,2.3584,2.3584,2.3584,2.3823,2.4287,2.5049,2.5794,2.6348,2.7063,2.754,2.7585,2.7384,2.6992,2.6316,2.5365,2.4355,2.3614,2.2632,2.1866,2.1807,2.17,2.1568,3.8172,3.8025,3.7832,3.7347,3.6734,3.6542,3.6097,3.5443,3.4313,3.4259,3.4958,3.5057,3.5146,3.5235,3.455,3.4357,3.4502,3.3911,3.4025,0.0,3.4913,3.534,3.6012,3.6086,3.5751,3.513,3.5068,3.4699,3.4028,3.3972,3.3972,3.3954,3.3862,3.3456,3.2736,3.1771,3.09,3.0084,2.8476,2.7291,2.6607,2.6387,2.6282,2.624,2.5571,2.5227,2.5214,2.4566,2.4153,2.4033,2.3891,2.3714,2.3464,2.324,2.3046,2.278,2.2495,2.2299,2.22,2.2761,2.3417,2.4152,2.4974,2.5061,2.4197,2.4183,2.4167,2.3992,2.3769,2.3527,2.3419,2.3271,2.3144,2.3068,2.29,2.2995,2.355,2.3524,2.3674,2.4237,2.424,2.4128,2.424,2.4109,2.3925,2.3839,2.3803,2.3728,2.3649,2.3584,2.3584,2.3584,2.3584,2.3584,2.3584,2.3584,2.367,2.3704,2.4807,2.5644,2.5779,2.6824,2.7525,2.7585,2.7418,2.7011,2.6322,2.5484,2.4466,2.3516,2.2644,2.2093,2.1902,2.1722,2.1566,3.8449,3.8372,3.8358,3.8132,3.7741,3.7317,3.7242,3.7331,3.6454,3.5898,3.5727,3.5805,3.5879,3.5951,3.5663,3.5614,3.5749,3.542,3.5492,3.5917,3.598,3.6243,3.6624,3.6694,3.6571,3.6286,3.6267,3.5832,3.5037,3.4969,3.4728,3.4319,3.4203,3.374,3.2944,3.2477,3.1838,3.0942,2.9296,2.8075,2.7268,2.6833,2.6607,2.6583,2.5828,2.5384,2.5384,2.4617,2.4194,2.4194,2.4079,2.3966,2.386,2.3645,2.3389,2.3168,2.3282,2.3275,2.3105,2.4033,2.4738,2.5092,2.5778,2.6057,2.5686,2.5653,2.5555,2.5321,2.5151,2.4977,2.4817,2.4608,2.4418,2.4362,2.4232,2.4284,2.4525,2.4501,2.4544,2.4808,2.4706,2.4574,2.4574,2.4338,2.4135,2.4073,2.3988,2.3897,2.3829,2.3818,2.376,2.3638,2.3584,2.3584,2.3595,2.3584,2.3584,2.3584,2.4732,2.5495,2.5674,2.6692,2.7465,2.7542,2.7235,2.6589,2.5881,2.5018,2.4099,2.3313,2.269,2.228,2.2137,2.1973,2.1712,3.9314,3.9269,3.9274,3.9274,3.9189,3.8464,3.856,3.9113,3.841,3.7625,3.6877,3.6805,3.6829,3.6895,3.6846,3.686,3.6929,3.6769,3.6832,3.7075,3.7094,3.7256,3.7516,3.7522,3.7488,3.7425,3.7418,3.6966,3.6221,3.6128,3.567,3.4854,3.4496,3.4017,3.3357,3.3257,3.2765,3.1825,3.052,2.9353,2.8356,2.7543,2.7139,2.7084,2.6355,2.5925,2.5912,2.5167,2.4722,2.4735,2.4619,2.452,2.4423,2.421,2.3963,2.3806,2.4023,2.4181,2.4193,2.505,2.5717,2.5887,2.6403,2.6691,2.6708,2.6708,2.664,2.6469,2.6245,2.611,2.5897,2.5756,2.5647,2.5527,2.5441,2.5329,2.5359,2.5291,2.5198,2.5188,2.5019,2.4902,2.4832,2.4605,2.44,2.4297,2.4135,2.402,2.4003,2.3993,2.3893,2.375,2.3638,2.3627,2.3674,2.3707,2.3707,2.3696,2.4807,2.5516,2.5868,2.6753,2.7415,2.7375,2.6887,2.6163,2.5384,2.4634,2.3841,2.3122,2.2726,2.2566,2.2454,2.2243,2.1937,4.1204,4.1237,4.1212,4.1323,4.1181,4.0432,4.0235,4.0329,3.9657,3.9327,3.9221,3.9021,3.8936,3.8916,3.8309,3.8028,3.8016,3.7377,3.751,3.819,3.8234,3.8664,3.9306,3.9387,3.9059,3.8459,3.8371,3.7966,3.7198,3.7076,3.659,3.5688,3.4929,3.4539,3.436,3.4228,3.3724,3.2879,3.2527,3.1587,3.0044,2.9194,2.8785,2.8761,2.7989,2.7572,2.7462,2.6814,2.6368,2.6368,2.6261,2.618,2.6039,2.5864,2.5625,2.5374,2.5189,2.5245,2.5619,2.5683,2.601,2.6672,2.6716,2.6725,2.6716,2.67,2.6666,2.6581,2.6452,2.6329,2.6169,2.6036,2.5936,2.587,2.5735,2.5673,2.5663,2.5598,2.5558,2.5558,2.5368,2.5227,2.5078,2.4886,2.4651,2.439,2.425,2.4135,2.4077,2.4056,2.4056,2.3935,2.3782,2.375,2.3882,2.3961,2.3925,2.4056,2.5064,2.5663,2.5948,2.6666,2.7585,2.6837,2.6566,2.5965,2.5125,2.443,2.4035,2.3277,2.2971,2.2926,2.2658,2.2486,2.2208,4.1691,4.1722,4.1817,4.1865,4.1837,4.1545,4.1474,4.1544,4.1298,4.1229,4.1351,4.1247,4.0624,3.9599,3.9265,3.9163,3.9178,3.8892,3.8933,3.9271,3.929,3.9512,3.9851,3.9876,3.9702,3.9474,3.9455,3.9005,3.8233,3.7656,3.715,3.6695,3.5898,3.545,3.5354,3.4783,3.4235,3.3779,3.3178,3.2477,3.1642,3.0393,2.9482,2.8968,2.8209,2.7811,2.7719,2.7029,2.6607,2.6583,2.6522,2.6458,2.635,2.6168,2.5943,2.576,2.5757,2.6058,2.6619,2.6537,2.6618,2.695,2.6917,2.6875,2.6875,2.6833,2.6792,2.6767,2.6649,2.6538,2.645,2.6277,2.6163,2.6127,2.6055,2.6001,2.5975,2.5965,2.5928,2.5846,2.5717,2.559,2.5394,2.5136,2.4886,2.4645,2.4544,2.4482,2.4374,2.4354,2.4354,2.4333,2.4214,2.4089,2.4056,2.404,2.4035,2.4177,2.4763,2.5352,2.5527,2.6057,2.6593,2.6277,2.5964,2.5556,2.4867,2.4224,2.3766,2.3297,2.3187,2.3153,2.2941,2.2862,2.2643,4.2641,4.2696,4.2755,4.2812,4.2844,4.2642,4.2614,4.267,4.2532,4.2517,4.2642,4.2676,4.1952,4.0767,4.0634,4.0659,4.0672,4.0438,4.0354,4.0326,4.0136,4.0029,4.0104,4.0104,4.0142,4.0172,4.0158,3.9829,3.9157,3.8318,3.789,3.7703,3.6947,3.6484,3.6299,3.5482,3.4934,3.4672,3.3857,3.3183,3.2668,3.1575,3.0429,2.9384,2.8552,2.8117,2.8112,2.7561,2.7268,2.7262,2.7229,2.7167,2.7093,2.6914,2.6705,2.6471,2.655,2.68,2.7289,2.7184,2.7097,2.7047,2.7048,2.7024,2.6999,2.6949,2.7036,2.7257,2.7343,2.7317,2.6623,2.6486,2.6382,2.6365,2.6303,2.6277,2.6284,2.6277,2.6232,2.6143,2.6054,2.5917,2.5703,2.5441,2.5182,2.4976,2.4932,2.4866,2.4741,2.47,2.47,2.471,2.466,2.4518,2.4245,2.4266,2.4245,2.4341,2.48,2.5264,2.5162,2.5681,2.5857,2.5781,2.5284,2.4867,2.4504,2.398,2.3704,2.3607,2.3498,2.3363,2.3231,2.3183,2.3083,4.4618,4.4632,4.4719,4.4655,4.4706,4.4007,4.3716,4.3705,4.3119,4.2833,4.2919,4.2957,4.2856,4.2756,4.2694,4.2665,4.2507,4.1767,4.1423,4.1351,4.0662,4.0331,4.0394,4.0394,4.0385,4.0367,4.0348,4.0278,4.0121,3.9359,3.8898,3.878,3.7956,3.7462,3.7254,3.6468,3.5963,3.5651,3.4815,3.3918,3.312,3.2826,3.1862,3.0337,2.9378,2.8956,2.895,2.8908,2.8858,2.8871,2.8785,2.8793,2.8729,2.8591,2.8307,2.7983,2.7727,2.7597,2.7562,2.7458,2.7341,2.7222,2.7251,2.7138,2.7175,2.7177,2.7459,2.799,2.8682,2.8449,2.7071,2.6893,2.6731,2.6604,2.6527,2.6535,2.6485,2.6477,2.6485,2.6425,2.6321,2.6145,2.5908,2.5698,2.5508,2.5352,2.5285,2.5201,2.5045,2.4995,2.4995,2.4995,2.4976,2.4896,2.465,2.4615,2.4645,2.4688,2.4963,2.549,2.5625,2.5678,2.5518,2.5364,2.5101,2.4728,2.4227,2.3976,2.3897,2.3807,2.37,2.3577,2.3527,2.3385,2.3282,4.5028,4.5125,4.5148,4.5181,4.5181,4.4918,4.482,4.4804,4.459,4.4485,4.4513,4.4546,4.4573,4.4619,4.4607,4.3966,4.289,4.2517,4.2143,4.1678,4.1333,4.0916,4.0426,4.0407,4.0407,4.0407,4.0407,4.0383,4.0347,4.0046,3.9899,3.9696,3.8935,3.846,3.8256,3.749,3.6707,3.6068,3.5588,3.4931,3.3935,3.3391,3.268,3.1923,3.0556,2.9834,2.9834,2.9304,2.8987,2.8987,2.8987,2.8976,2.8881,2.8743,2.8523,2.8253,2.806,2.7886,2.7755,2.7652,2.7585,2.7589,2.7993,2.82,2.8183,2.8233,2.8505,2.9084,2.9584,2.9385,2.8707,2.8286,2.8012,2.7546,2.7375,2.7129,2.675,2.6632,2.6606,2.6546,2.6426,2.6251,2.6154,2.5974,2.5809,2.5712,2.5621,2.552,2.5416,2.5378,2.5394,2.54,2.54,2.5365,2.5272,2.5035,2.4912,2.4894,2.5037,2.507,2.5171,2.516,2.5019,2.505,2.4858,2.4733,2.4302,2.4119,2.4051,2.3978,2.3882,2.385,2.3833,2.3689,2.3603,4.5248,4.5315,4.5315,4.5355,4.5409,4.5409,4.5419,4.5429,4.5448,4.5495,4.5541,4.5546,4.5564,4.559,4.5594,4.4987,4.3815,4.3499,4.3053,4.2516,4.1978,4.1436,4.0895,4.0569,4.0438,4.0438,4.0415,4.0419,4.0434,4.0441,4.0432,4.0351,3.975,3.9443,3.9282,3.8465,3.7609,3.7017,3.6422,3.5665,3.4918,3.414,3.3627,3.3228,3.2004,3.1041,3.0744,3.0115,2.9811,2.9793,2.9775,2.9733,2.9667,2.9532,2.936,2.917,2.9074,2.8909,2.877,2.8672,2.862,2.8591,2.9057,2.9352,2.9312,2.9451,2.9772,3.0191,3.0706,3.0786,3.0404,3.016,2.9624,2.8655,2.8125,2.7716,2.7216,2.6944,2.6801,2.6733,2.6564,2.6461,2.6418,2.6268,2.6127,2.6028,2.593,2.5875,2.5809,2.5782,2.5798,2.5789,2.5798,2.5779,2.5689,2.5527,2.5352,2.5307,2.5184,2.507,2.4936,2.4851,2.4791,2.4751,2.4706,2.4625,2.4503,2.4302,2.4209,2.4172,2.4119,2.4062,2.4035,2.3993,2.3902,4.54,4.5405,4.5405,4.541,4.5438,4.5476,4.5499,4.5508,4.5549,4.5581,4.5586,4.559,4.5586,4.5594,4.5594,4.5513,4.5254,4.4615,4.4192,4.3938,4.265,4.1953,4.1742,4.0996,4.0558,4.05,4.0489,4.0489,4.05,4.0483,4.0502,4.0474,4.0375,4.0217,4.0273,3.9406,3.8917,3.8375,3.7167,3.6249,3.5919,3.51,3.4584,3.4362,3.3547,3.2678,3.1749,3.1481,3.1304,3.1335,3.1305,3.1347,3.1113,3.1025,3.1043,3.0792,3.077,3.07,3.0578,3.0452,3.0272,3.0205,3.0343,3.0384,3.0378,3.0645,3.0987,3.1335,3.1872,3.2263,3.2048,3.1891,3.1175,2.9625,2.8784,2.8357,2.7947,2.7409,2.7,2.6959,2.6783,2.6708,2.6683,2.6572,2.6434,2.6348,2.6286,2.6259,2.6179,2.6152,2.6188,2.6196,2.6143,2.6099,2.6054,2.6007,2.5877,2.5754,2.5584,2.5428,2.5301,2.5214,2.5136,2.5088,2.4985,2.4916,2.4836,2.466,2.4559,2.4503,2.4421,2.4369,2.4286,2.426,2.42,4.5514,4.5546,4.5531,4.5546,4.5531,4.5564,4.5573,4.5568,4.559,4.5594,4.5594,4.5594,4.5594,4.5594,4.5594,4.5594,4.5575,4.5287,4.4878,4.4297,4.3739,4.3181,4.2604,4.1812,4.1089,4.0569,4.0492,4.0492,4.0492,4.05,4.0492,4.0503,4.0486,4.0453,4.0417,4.0111,3.969,3.8938,3.7918,3.6983,3.6226,3.5405,3.4917,3.4704,3.4437,3.4046,3.3579,3.2335,3.1645,3.155,3.1477,3.1434,3.1327,3.1271,3.12,3.1093,3.1039,3.0957,3.0853,3.0829,3.084,3.0805,3.1185,3.1409,3.1431,3.1915,3.2262,3.237,3.2571,3.2596,3.2497,3.2413,3.1768,3.0464,3.0058,2.9334,2.8338,2.7526,2.7059,2.6941,2.6908,2.6883,2.6859,2.6792,2.6742,2.67,2.6606,2.6503,2.6477,2.6442,2.6399,2.6399,2.639,2.6566,2.6713,2.6884,2.6943,2.672,2.6452,2.6251,2.6037,2.592,2.5779,2.5632,2.55,2.5386,2.5292,2.5209,2.5204,2.4994,2.496,2.4816,2.4626,2.4663,2.4822,4.5564,4.5594,4.5594,4.5594,4.5594,4.5594,4.5594,4.5594,4.5594,4.5594,4.5594,4.5594,4.5594,4.5594,4.5594,4.5594,4.5594,4.5594,4.5302,4.4763,4.4374,4.4008,4.347,4.2677,4.1812,4.1123,4.0993,4.08,4.0492,4.0492,4.0492,4.0508,4.0503,4.0487,4.0507,4.0462,4.0117,3.9521,3.8446,3.753,3.6784,3.5747,3.5069,3.4941,3.4912,3.4819,3.4535,3.3416,3.2707,3.2538,3.2441,3.2341,3.225,3.2256,3.2191,3.2105,3.2078,3.2049,3.1917,3.1986,3.1875,3.1934,3.2307,3.2557,3.257,3.3002,3.3147,3.3119,3.3008,3.2898,3.2802,3.2739,3.2326,3.1677,3.1089,3.0187,2.876,2.7722,2.7237,2.7144,2.7128,2.712,2.7096,2.7006,2.6974,2.6941,2.6842,2.6742,2.6759,2.6725,2.6801,2.6944,2.7155,2.734,2.7506,2.773,2.798,2.7749,2.7468,2.7316,2.7137,2.7125,2.7035,2.6925,2.6799,2.674,2.6644,2.6445,2.6334,2.6004,2.5765,2.5928,2.6014,2.5816,2.5889,4.5594,4.5594,4.5594,4.5594,4.5594,4.5594,4.5594,4.5594,4.5594,4.5594,4.5594,4.5594,4.5594,4.5594,4.5594,4.5594,4.5594,4.5594,4.5575,4.5302,4.484,4.4374,4.4085,4.3451,4.262,4.1793,4.1716,4.1292,4.0531,4.0492,4.0492,4.0492,4.0492,4.0492,4.05,4.0507,4.0463,4.0167,3.8753,3.7849,3.7613,3.6135,3.5256,3.5106,3.5088,3.5007,3.4772,3.4507,3.4345,3.4165,3.3801,3.3611,3.3735,3.3788,3.3583,3.3485,3.3643,3.3511,3.3528,3.3318,3.3347,3.3308,3.3355,3.3598,3.345,3.3404,3.3448,3.3433,3.3356,3.3244,3.3142,3.3073,3.2943,3.2803,3.1839,3.0579,2.9115,2.8165,2.7674,2.7438,2.7404,2.7434,2.7427,2.7285,2.7173,2.7143,2.7105,2.709,2.722,2.7341,2.7503,2.7742,2.8023,2.8133,2.8325,2.8685,2.8918,2.8887,2.863,2.8493,2.8149,2.8044,2.8002,2.7942,2.7964,2.7974,2.7813,2.7502,2.739,2.7223,2.7229,2.7435,2.7246,2.6919,2.6883,4.5594,4.5594,4.5594,4.5594,4.5594,4.5594,4.5594,4.5594,4.5594,4.5594,4.5594,4.5594,4.5594,4.5594,4.5594,4.5594,4.5594,4.5594,4.5594,4.5575,4.5402,4.4859,4.4417,4.409,4.322,4.2043,4.1869,4.1354,4.055,4.0492,4.0492,4.0492,4.0492,4.0492,4.0489,4.05,4.0496,4.0265,3.8831,3.7932,3.7632,3.622,3.535,3.5249,3.5189,3.51,3.4936,3.4684,3.4456,3.4215,3.4011,3.3913,3.3868,3.3822,3.3782,3.378,3.3773,3.3746,3.3684,3.3664,3.3643,3.3605,3.3619,3.3598,3.3598,3.3591,3.3577,3.3563,3.3527,3.3495,3.3412,3.3368,3.3319,3.3086,3.2239,3.1148,3.0076,2.9137,2.8355,2.7673,2.7587,2.7682,2.7766,2.7719,2.7567,2.7533,2.7575,2.7653,2.7968,2.8052,2.826,2.8716,2.8998,2.9048,2.9208,2.9594,2.9844,2.9944,2.9841,2.9768,2.9219,2.8657,2.8581,2.8491,2.8685,2.8738,2.8489,2.8202,2.824,2.8444,2.8262,2.8229,2.7906,2.7599,2.7805,4.5644,4.5644,4.5646,4.565,4.565,4.5629,4.5644,4.564,4.5599,4.5594,4.5594,4.5594,4.5594,4.5594,4.5594,4.5594,4.5594,4.5594,4.5594,4.5594,4.5575,4.5302,4.4936,4.4821,4.397,4.2504,4.2331,4.1643,4.0704,4.0492,4.0492,4.0492,4.0492,4.0492,4.0492,4.0492,4.0492,4.0204,3.8896,3.7977,3.7824,3.6298,3.5513,3.5343,3.5277,3.517,3.4982,3.4746,3.4501,3.4245,3.4061,3.3959,3.3895,3.3862,3.3822,3.3814,3.3807,3.3768,3.3753,3.3746,3.3726,3.371,3.3696,3.3684,3.3684,3.3684,3.3678,3.3678,3.3657,3.3615,3.3591,3.3556,3.3499,3.3368,3.2823,3.2024,3.1087,2.9879,2.8816,2.8081,2.7828,2.7972,2.8165,2.8287,2.8316,2.8353,2.8636,2.8847,2.91,2.9049,2.921,2.9747,3.0032,3.0064,3.0215,3.0551,3.0577,3.0678,3.0611,3.0615,3.0225,2.9532,2.9595,2.96,2.9568,2.9496,2.934,2.9337,2.9569,2.9603,2.9284,2.9111,2.8961,2.8643,2.8801,4.5686,4.569,4.5692,4.5684,4.5696,4.5683,4.5678,4.5669,4.5631,4.5594,4.5594,4.5594,4.5594,4.5594,4.5594,4.5594,4.5594,4.5594,4.5594,4.5594,4.5594,4.5518,4.5479,4.5417,4.4513,4.3201,4.3066,4.2031,4.0896,4.0492,4.0492,4.0492,4.0492,4.0492,4.0492,4.0492,4.0492,4.0242,3.9065,3.82,3.7788,3.6554,3.5706,3.5405,3.5327,3.5198,3.5038,3.484,3.4623,3.4251,3.4161,3.4049,3.3934,3.3908,3.3862,3.3827,3.3807,3.3807,3.3788,3.38,3.38,3.3793,3.3793,3.3807,3.3793,3.3787,3.3787,3.378,3.3728,3.3694,3.3655,3.3588,3.3382,3.3274,3.3274,3.2776,3.1881,3.056,2.934,2.844,2.8412,2.8575,2.8849,2.9114,2.944,2.9364,2.9609,2.9852,3.0076,3.0133,3.0472,3.1026,3.1133,3.1112,3.1306,3.1531,3.1393,3.1318,3.1183,3.1123,3.1072,3.0724,3.0858,3.0836,3.0443,3.0404,3.0542,3.0657,3.0721,3.0603,3.0159,3.0356,3.0515,3.0033,2.9935,4.5692,4.5692,4.568,4.5684,4.568,4.5679,4.5682,4.5682,4.5631,4.5594,4.5594,4.5594,4.5594,4.5594,4.5594,4.5594,4.5594,4.5594,4.5594,4.5594,4.5594,4.5594,4.5594,4.5594,4.4686,4.3489,4.3104,4.2166,4.0916,4.055,4.0492,4.0492,4.0492,4.0492,4.0492,4.0492,4.0492,4.0319,3.9473,3.8642,3.8007,3.7061,3.6147,3.561,3.5377,3.5237,3.5084,3.4903,3.47,3.4467,3.4275,3.413,3.3998,3.3927,3.3887,3.3834,3.3807,3.3807,3.3807,3.3807,3.3807,3.3807,3.3807,3.3807,3.3807,3.3807,3.3807,3.3807,3.3768,3.3743,3.3626,3.3161,3.2877,3.269,3.2275,3.1815,3.147,3.1497,3.0846,3.0234,3.0082,3.0573,3.1016,3.0572,3.0603,3.0482,3.0628,3.085,3.1036,3.1211,3.1523,3.1961,3.1846,3.1716,3.1695,3.1818,3.166,3.1566,3.149,3.1433,3.1375,3.1308,3.123,3.119,3.1103,3.1131,3.1089,3.1092,3.0981,3.0988,3.0955,3.0915,3.0855,3.08,3.0729,4.5746,4.5742,4.5742,4.5761,4.5754,4.5719,4.5691,4.5679,4.564,4.5594,4.5594,4.5594,4.5594,4.5594,4.5594,4.5594,4.5594,4.5594,4.5594,4.5594,4.5594,4.5594,4.5594,4.5513,4.4898,4.3739,4.3258,4.2316,4.1354,4.0704,4.0492,4.0492,4.0492,4.0492,4.0492,4.0492,4.0492,4.0342,3.9723,3.9031,3.855,3.7754,3.6893,3.6083,3.5591,3.5246,3.5158,3.4983,3.4834,3.4645,3.445,3.4227,3.4042,3.3966,3.3895,3.3827,3.3807,3.3807,3.3807,3.3807,3.3807,3.3807,3.3807,3.3807,3.3807,3.3807,3.3807,3.3807,3.377,3.3678,3.3293,3.2956,3.249,3.1982,3.1621,3.1321,3.135,3.1588,3.1965,3.1576,3.1381,3.1473,3.1583,3.1667,3.1649,3.1501,3.204,3.2274,3.2211,3.2347,3.2301,3.2493,3.2375,3.224,3.21,3.1983,3.1738,3.1653,3.1559,3.1519,3.1469,3.1395,3.1337,3.1298,3.1249,3.119,3.1151,3.119,3.119,3.1131,3.1082,3.1062,3.1032,3.0962,3.0895,4.5798,4.5814,4.5807,4.5803,4.5786,4.5739,4.5677,4.568,4.5629,4.5594,4.5594,4.5594,4.5594,4.5594,4.5594,4.5594,4.5594,4.5594,4.5594,4.5594,4.5594,4.5594,4.5594,4.5513,4.5263,4.4451,4.3758,4.2816,4.1793,4.1104,4.0743,4.0569,4.0492,4.0492,4.0492,4.0492,4.0492,4.04,3.9935,3.9415,3.9188,3.8507,3.7781,3.6925,3.6093,3.563,3.5481,3.5224,3.495,3.4809,3.4634,3.4363,3.4136,3.3998,3.394,3.382,3.3807,3.3807,3.3807,3.3807,3.3807,3.3807,3.3807,3.3807,3.3807,3.3807,3.3807,3.3807,3.377,3.3495,3.2736,3.2387,3.1965,3.1384,3.1133,3.1042,3.1054,3.1076,3.1921,3.2786,3.2506,3.2391,3.2469,3.2545,3.2534,3.262,3.3163,3.3488,3.3356,3.3211,3.3034,3.2868,3.2695,3.2396,3.2232,3.2046,3.182,3.1736,3.1643,3.1614,3.1583,3.1509,3.1435,3.1349,3.13,3.1242,3.122,3.121,3.121,3.12,3.1181,3.1131,3.1112,3.1102,3.1055,4.5877,4.5867,4.5837,4.5809,4.5792,4.5727,4.5684,4.5686,4.5635,4.5594,4.5594,4.5594,4.5594,4.5594,4.5594,4.5594,4.5594,4.5594,4.5594,4.5594,4.5594,4.5594,4.5594,4.5594,4.546,4.5205,4.4494,4.3374,4.2254,4.1619,4.1162,4.0666,4.0492,4.0492,4.0492,4.0492,4.0492,4.0492,4.0262,3.9938,3.9473,3.9088,3.8623,3.7758,3.6914,3.6401,3.6077,3.5516,3.4995,3.4817,3.471,3.4517,3.4269,3.4099,3.3953,3.3835,3.3814,3.3807,3.3807,3.3807,3.3807,3.3807,3.3807,3.3807,3.3807,3.3807,3.3807,3.3807,3.3752,3.3476,3.2674,3.2112,3.1292,3.0577,2.9965,2.961,2.9806,3.0638,3.1701,3.269,3.2953,3.3216,3.3171,3.317,3.3166,3.3125,3.3396,3.3605,3.352,3.3404,3.3293,3.3132,3.2969,3.2606,3.2275,3.2082,3.1875,3.1819,3.1746,3.1744,3.1688,3.1625,3.1551,3.1492,3.1406,3.1312,3.1281,3.1269,3.1249,3.1286,3.123,3.12,3.121,3.122,3.1173,4.5934,4.5899,4.583,4.5806,4.58,4.5738,4.5679,4.5693,4.5635,4.5594,4.5594,4.5594,4.5594,4.5594,4.5594,4.5594,4.5594,4.5594,4.5594,4.5594,4.5594,4.5594,4.5594,4.5594,4.5594,4.5475,4.5071,4.4316,4.3081,4.2158,4.1619,4.12,4.0781,4.0492,4.0492,4.0492,4.0492,4.0492,4.0477,4.0323,3.9877,3.9569,3.9031,3.8577,3.7801,3.7126,3.6562,3.6194,3.5541,3.5073,3.4825,3.461,3.4386,3.4197,3.403,3.39,3.3834,3.3807,3.3807,3.3807,3.3807,3.3807,3.3807,3.3807,3.3807,3.3807,3.3807,3.3807,3.377,3.3476,3.2681,3.1886,3.1072,3.0283,2.9543,2.9335,2.9763,3.076,3.1659,3.2516,3.3096,3.3475,3.3628,3.3663,3.3723,3.3739,3.3737,3.3684,3.365,3.3577,3.3462,3.3256,3.3073,3.2747,3.2387,3.2179,3.1984,3.1911,3.1829,3.1827,3.18,3.1718,3.1699,3.1679,3.1559,3.1418,3.1397,3.1385,3.1373,3.1354,3.1363,3.1346,3.1337,3.1327,3.1271,4.5952,4.5861,4.5828,4.5796,4.5773,4.5734,4.5693,4.5661,4.5631,4.5594,4.5594,4.5594,4.5594,4.5594,4.5594,4.5594,4.5594,4.5594,4.5594,4.5594,4.5594,4.5594,4.5594,4.5594,4.5594,4.5594,4.5532,4.5128,4.3989,4.2831,4.21,4.1523,4.0916,4.0492,4.0492,4.0492,4.0492,4.0492,4.0492,4.0492,4.0323,3.9919,3.9554,3.9457,3.8654,3.7886,3.7433,3.6967,3.6313,3.5677,3.5235,3.4941,3.4549,3.4322,3.4154,3.3972,3.3862,3.3834,3.3807,3.3807,3.3807,3.3807,3.3807,3.3807,3.3807,3.3807,3.3807,3.3807,3.3788,3.3458,3.2693,3.2045,3.1347,3.0632,3.0038,2.9763,3.0448,3.1207,3.1825,3.2614,3.333,3.3678,3.377,3.3788,3.378,3.378,3.376,3.3753,3.3719,3.3684,3.3552,3.3338,3.3104,3.2812,3.2532,3.231,3.2153,3.2037,3.1929,3.1839,3.1829,3.1818,3.1791,3.1763,3.1688,3.1568,3.1547,3.149,3.146,3.145,3.1488,3.1471,3.1423,3.1395,3.1349,4.5944,4.5814,4.5806,4.5766,4.5702,4.5705,4.5676,4.5603,4.5599,4.5594,4.5594,4.5594,4.5594,4.5594,4.5594,4.5594,4.5594,4.5594,4.5594,4.5594,4.5594,4.5594,4.5594,4.5594,4.5594,4.5594,4.5594,4.509,4.4374,4.3451,4.2543,4.1889,4.1143,4.0492,4.0492,4.0492,4.0492,4.0492,4.0492,4.0492,4.0473,4.0358,4.0304,4.0069,3.9581,3.8969,3.8574,3.8012,3.7268,3.6453,3.6202,3.5684,3.4908,3.4512,3.4293,3.4111,3.3966,3.3873,3.3827,3.3807,3.3807,3.3807,3.3807,3.3807,3.3807,3.3807,3.3807,3.3807,3.3807,3.3532,3.2919,3.2534,3.2008,3.1531,3.0968,3.0944,3.1354,3.1641,3.2247,3.2706,3.3421,3.366,3.3807,3.3807,3.3807,3.3807,3.3807,3.3793,3.3773,3.3726,3.3636,3.3419,3.3203,3.2906,3.269,3.2473,3.231,3.2179,3.2037,3.1921,3.1911,3.1893,3.1819,3.1783,3.1727,3.1681,3.1625,3.1568,3.1519,3.1519,3.1566,3.1538,3.1481,3.1462,3.1426,4.5867,4.58,4.5754,4.5738,4.5701,4.5652,4.5631,4.5599,4.5594,4.5594,4.5594,4.5594,4.5594,4.5594,4.5594,4.5594,4.5594,4.5594,4.5594,4.5594,4.5594,4.5594,4.5594,4.5594,4.5594,4.5594,4.5575,4.5494,4.4821,4.4167,4.3355,4.2523,4.1681,4.095,4.0723,4.0531,4.0492,4.0492,4.0492,4.0492,4.0492,4.0492,4.0492,4.0492,4.0131,3.9731,3.9269,3.8931,3.8172,3.7415,3.7126,3.6587,3.5771,3.5311,3.5021,3.4227,3.4093,3.3953,3.3834,3.3814,3.3807,3.3807,3.3807,3.3807,3.3807,3.3807,3.3807,3.3807,3.3807,3.3605,3.3213,3.2846,3.2497,3.2118,3.1831,3.1898,3.2045,3.2284,3.2681,3.3091,3.3446,3.3667,3.3807,3.3807,3.3807,3.3807,3.3807,3.3807,3.3773,3.3732,3.3622,3.3484,3.3268,3.3037,3.2842,3.2648,3.249,3.2353,3.2197,3.2099,3.2037,3.1983,3.1938,3.1893,3.1848,3.1784,3.1719,3.1681,3.166,3.166,3.167,3.1642,3.1614,3.1549,3.1511,4.5783,4.5772,4.5722,4.5693,4.5665,4.5622,4.5594,4.5594,4.5594,4.5594,4.5594,4.5594,4.5594,4.5594,4.5594,4.5594,4.5594,4.5594,4.5594,4.5594,4.5594,4.5594,4.5594,4.5594,4.5594,4.5594,4.5594,4.5532,4.5379,4.4917,4.4205,4.3412,4.2547,4.1893,4.132,4.1012,4.0858,4.0492,4.0492,4.0492,4.0492,4.0492,4.0492,4.0492,4.0435,4.0208,3.97,3.955,3.9064,3.8303,3.8041,3.7528,3.6627,3.6284,3.5734,3.501,3.4643,3.4295,3.4017,3.382,3.3814,3.3807,3.3807,3.3807,3.3807,3.3807,3.3807,3.3807,3.3807,3.3807,3.3697,3.3213,3.3048,3.2773,3.2504,3.2614,3.2717,3.2901,3.3091,3.3385,3.3648,3.3703,3.3807,3.3807,3.3807,3.3807,3.3807,3.3807,3.378,3.3746,3.3664,3.3556,3.3419,3.323,3.3078,3.2892,3.2715,3.2541,3.2387,3.2293,3.2249,3.2153,3.2073,3.202,3.1993,3.1939,3.1902,3.1847,3.18,3.1763,3.1735,3.1763,3.1754,3.1681,3.1589,4.5694,4.5713,4.5705,4.5657,4.5618,4.5594,4.5594,4.5594,4.5594,4.5594,4.5594,4.5594,4.5594,4.5594,4.5594,4.5594,4.5594,4.5594,4.5594,4.5594,4.5594,4.5594,4.5594,4.5594,4.5594,4.5594,4.5594,4.5594,4.5575,4.546,4.4878,4.4224,4.3412,4.3085,4.2585,4.195,4.1431,4.1031,4.0896,4.0723,4.0666,4.0631,4.0593,4.0512,4.0492,4.0454,4.0416,4.0284,3.9956,3.9054,3.8959,3.8469,3.7599,3.7306,3.6677,3.5875,3.5485,3.5076,3.4551,3.3996,3.3814,3.3807,3.3807,3.3807,3.3807,3.3807,3.3807,3.3807,3.3807,3.3807,3.3807,3.3733,3.3525,3.3403,3.3183,3.3256,3.3348,3.344,3.3605,3.3752,3.3807,3.3807,3.3807,3.3807,3.3807,3.3807,3.3807,3.3807,3.38,3.3766,3.3707,3.3636,3.3556,3.3441,3.3371,3.3191,3.2971,3.2812,3.2673,3.2574,3.2507,3.2387,3.2293,3.2223,3.2179,3.2135,3.2073,3.201,3.1938,3.1846,3.1809,3.1847,3.1827,3.1727,3.1671,4.5684,4.564,4.564,4.5627,4.5594,4.5594,4.5594,4.5594,4.5594,4.5594,4.5594,4.5594,4.5594,4.5594,4.5594,4.5594,4.5594,4.5594,4.5594,4.5594,4.5594,4.5594,4.5594,4.5594,4.5594,4.5594,4.5594,4.5594,4.5594,4.5594,4.5479,4.4917,4.4224,4.3547,4.3085,4.2854,4.2393,4.2181,4.197,4.1873,4.1335,4.1258,4.107,4.0535,4.0492,4.0492,4.0492,4.05,4.0272,4.0031,3.9853,3.9211,3.8547,3.8286,3.7659,3.6784,3.6488,3.6075,3.5395,3.4599,3.3879,3.3814,3.3807,3.3844,3.3899,3.3807,3.3807,3.3807,3.3807,3.3807,3.3807,3.3807,3.3752,3.3807,3.3807,3.3807,3.3807,3.3807,3.3954,3.4027,3.3899,3.3807,3.3807,3.3807,3.3807,3.3807,3.3807,3.3807,3.38,3.3787,3.3753,3.3707,3.3629,3.3563,3.3495,3.3364,3.3218,3.3081,3.294,3.2852,3.2781,3.2691,3.26,3.2489,3.2396,3.2335,3.2275,3.2179,3.2082,3.1992,3.1956,3.1939,3.1893,3.1801,3.1755,4.564,4.5594,4.5594,4.5594,4.5594,4.5594,4.5594,4.5594,4.5594,4.5594,4.5594,4.5594,4.5594,4.5594,4.5594,4.5594,4.5594,4.5594,4.5594,4.5594,4.5594,4.5594,4.5594,4.5594,4.5594,4.5594,4.5594,4.5594,4.5594,4.5594,4.5537,4.5364,4.5013,4.4397,4.4051,4.3566,4.3355,4.3143,4.3028,4.287,4.2196,4.2158,4.1773,4.1104,4.0969,4.0743,4.0608,4.0504,4.0476,4.0389,4.0273,3.9973,3.9538,3.9088,3.859,3.795,3.7441,3.7212,3.6484,3.5658,3.4661,3.4809,3.4339,3.4266,3.4112,3.3972,3.3807,3.3807,3.3807,3.3807,3.3807,3.3807,3.3807,3.3807,3.3807,3.3807,3.3807,3.3825,3.4064,3.4241,3.4204,3.4357,3.4761,3.4816,3.4321,3.4156,3.3807,3.3807,3.3807,3.3793,3.378,3.376,3.3726,3.3661,3.3577,3.3534,3.3459,3.3323,3.3203,3.3145,3.306,3.2965,3.2862,3.2755,3.2647,3.2573,3.2531,3.2488,3.2335,3.2153,3.2117,3.2064,3.2019,3.1938,3.1893,4.5594,4.5594,4.5594,4.5594,4.5594,4.5594,4.5594,4.5594,4.5594,4.5594,4.5594,4.5594,4.5594,4.5594,4.5594,4.5594,4.5594,4.5594,4.5594,4.5594,4.5594,4.5594,4.5594,4.5594,4.5594,4.5594,4.5594,4.5594,4.5594,4.5594,4.5594,4.5594,4.5402,4.5306,4.5379,4.4667,4.3912,4.3278,4.3297,4.3258,4.3085,4.3062,4.2581,4.1985,4.1581,4.1258,4.0893,4.055,4.0476,4.0449,4.042,4.0226,4.0015,3.9869,3.9395,3.868,3.841,3.7907,3.7057,3.6581,3.6314,3.5943,3.528,3.5025,3.4846,3.4442,3.399,3.4137,3.3874,3.3825,3.3807,3.3807,3.3807,3.3844,3.3862,3.4045,3.4082,3.4394,3.4743,3.4938,3.503,3.5224,3.5782,3.5954,3.5183,3.4633,3.4027,3.3899,3.41,3.4039,3.4117,3.3982,3.3968,3.3739,3.3684,3.3746,3.368,3.3545,3.3433,3.3345,3.3289,3.3206,3.3088,3.3003,3.2948,3.29,3.2866,3.285,3.2647,3.2438,3.2232,3.2153,3.2108,3.2125,3.2124,4.5594,4.5594,4.5594,4.5594,4.5594,4.5594,4.5594,4.5594,4.5594,4.5594,4.5594,4.5594,4.5594,4.5594,4.5594,4.5594,4.5594,4.5594,4.5594,4.5594,4.5594,4.5594,4.5594,4.5594,4.5594,4.5594,4.5594,4.5594,4.5594,4.5594,4.5594,4.5594,4.5594,4.5594,4.5532,4.5225,4.4955,4.4821,4.4744,4.4532,4.3974,4.3855,4.3508,4.2701,4.2196,4.1754,4.1335,4.0954,4.0607,4.0526,4.0501,4.035,4.0234,4.0142,3.9905,3.951,3.9341,3.9174,3.8714,3.8337,3.7634,3.6879,3.6193,3.5912,3.5796,3.5312,3.4919,3.4534,3.4222,3.4082,3.3807,3.3825,3.3862,3.3965,3.4112,3.4534,3.4809,3.5349,3.5752,3.5833,3.5917,3.5991,3.6358,3.678,3.6248,3.5973,3.5532,3.5282,3.5374,3.4901,3.4704,3.4454,3.4282,3.397,3.3787,3.3892,3.3933,3.3858,3.3675,3.3527,3.3462,3.339,3.3443,3.3412,3.3313,3.3239,3.3427,3.3509,3.3055,3.2755,3.2828,3.258,3.237,3.2432,3.2503,4.5627,4.5594,4.5594,4.5594,4.5594,4.5594,4.5594,4.5594,4.5594,4.5594,4.5594,4.5594,4.5594,4.5594,4.5594,4.5594,4.5594,4.5594,4.5594,4.5594,4.5594,4.5594,4.5594,4.5594,4.5594,4.5594,4.5594,4.5594,4.5594,4.5594,4.5594,4.5594,4.5594,4.5594,4.5575,4.5537,4.5518,4.5417,4.5321,4.5205,4.4878,4.4643,4.4359,4.3624,4.3047,4.2604,4.21,4.1511,4.0895,4.0831,4.0622,4.0388,4.0296,4.021,4.0147,4.0041,3.9911,3.9773,3.9486,3.9333,3.8542,3.7747,3.7151,3.6829,3.6629,3.6104,3.5752,3.5341,3.4908,3.4761,3.464,3.4578,3.4578,3.4724,3.4926,3.5378,3.5587,3.6108,3.6475,3.6567,3.6732,3.6806,3.6982,3.7221,3.7312,3.7221,3.711,3.6835,3.6494,3.591,3.5426,3.5206,3.4846,3.4491,3.4241,3.4094,3.4128,3.4142,3.4039,3.3917,3.3608,3.3545,3.3683,3.3887,3.396,3.4082,3.4255,3.4215,3.4024,3.3928,3.3948,3.3528,3.2823,3.2828,3.3025,4.5672,4.5599,4.5594,4.5594,4.5594,4.5594,4.5594,4.5594,4.5594,4.5594,4.5594,4.5594,4.5594,4.5594,4.5594,4.5594,4.5594,4.5594,4.5594,4.5594,4.5594,4.5594,4.5594,4.5594,4.5594,4.5594,4.5594,4.5594,4.5594,4.5594,4.5594,4.5594,4.5594,4.5594,4.5594,4.5594,4.5594,4.5594,4.5575,4.5498,4.5321,4.5398,4.4994,4.4432,4.4028,4.3605,4.3038,4.2302,4.1876,4.1483,4.0951,4.0591,4.0348,4.0263,4.0225,4.0152,4.0015,3.9859,3.9717,3.9587,3.9421,3.8736,3.8212,3.7875,3.7499,3.7048,3.6692,3.6541,3.6305,3.6221,3.6134,3.6042,3.595,3.606,3.6127,3.6292,3.6347,3.6677,3.7026,3.7246,3.7467,3.7661,3.8065,3.8285,3.7991,3.8046,3.7881,3.7624,3.7221,3.6696,3.6285,3.6138,3.5697,3.5128,3.489,3.489,3.4883,3.5068,3.4672,3.4479,3.4103,3.4075,3.4493,3.4794,3.4819,3.4922,3.5088,3.5233,3.5312,3.5199,3.4943,3.4366,3.3647,3.3625,3.3817,4.5657,4.5594,4.5594,4.5594,4.5594,4.5594,4.5594,4.5594,4.5594,4.5594,4.5594,4.5594,4.5594,4.5594,4.5594,4.5594,4.5594,4.5594,4.5594,4.5594,4.5594,4.5594,4.5594,4.5594,4.5594,4.5594,4.5594,4.5594,4.5594,4.5594,4.5594,4.5594,4.5594,4.5594,4.5594,4.5594,4.5594,4.5594,4.5594,4.5594,4.5594,4.5594,4.5321,4.5128,4.4624,4.4259,4.3842,4.3073,4.2684,4.2414,4.1689,4.1236,4.1156,4.0635,4.0258,4.0196,4.0106,3.9994,3.9873,3.9804,3.9676,3.9489,3.9031,3.887,3.856,3.8136,3.7676,3.7529,3.7565,3.7502,3.7043,3.6819,3.6772,3.6798,3.6938,3.7151,3.7243,3.7477,3.7808,3.7918,3.8138,3.8212,3.8663,3.8644,3.8414,3.8589,3.8571,3.8259,3.7973,3.7441,3.7173,3.7008,3.6824,3.6303,3.6138,3.6101,3.6028,3.5929,3.5495,3.5257,3.532,3.5372,3.5618,3.578,3.5883,3.5879,3.5857,3.6057,3.6311,3.596,3.5659,3.5069,3.4615,3.4597,3.4838,4.5682,4.562,4.5618,4.5594,4.5594,4.5594,4.5594,4.5594,4.5594,4.5594,4.5594,4.5594,4.5594,4.5594,4.5594,4.5594,4.5594,4.5594,4.5594,4.5594,4.5594,4.5594,4.5594,4.5594,4.5594,4.5594,4.5594,4.5594,4.5594,4.5594,4.5594,4.5594,4.5594,4.5594,4.5594,4.5594,4.5594,4.5594,4.5594,4.5594,4.5594,4.5594,4.5594,4.5498,4.4955,4.4831,4.4636,4.3901,4.3506,4.3263,4.2537,4.1853,4.1519,4.0764,4.0296,4.0239,4.0176,4.0098,4.0012,3.9922,3.9823,3.9689,3.9539,3.9389,3.9148,3.8788,3.852,3.8351,3.8587,3.8606,3.7976,3.7439,3.74,3.736,3.7665,3.7981,3.8198,3.8414,3.8534,3.8608,3.8644,3.8626,3.8699,3.8699,3.8699,3.8699,3.8699,3.8589,3.8424,3.8175,3.7991,3.7918,3.7808,3.7606,3.7422,3.711,3.689,3.6615,3.62,3.609,3.634,3.6351,3.6288,3.6611,3.7018,3.7014,3.7029,3.7124,3.7258,3.6869,3.6679,3.6542,3.6065,3.5596,3.6002,4.568,4.5673,4.5631,4.5594,4.5594,4.5594,4.5594,4.5594,4.5594,4.5594,4.5594,4.5594,4.5594,4.5594,4.5594,4.5594,4.5594,4.5594,4.5594,4.5594,4.5594,4.5594,4.5594,4.5594,4.5594,4.5594,4.5594,4.5594,4.5594,4.5594,4.5594,4.5594,4.5594,4.5594,4.5594,4.5594,4.5594,4.5594,4.5594,4.5594,4.5594,4.5594,4.5594,4.5594,4.5528,4.5496,4.5273,4.482,4.4265,4.3943,4.3383,4.2531,4.1552,4.096,4.0592,4.0277,4.0239,4.0191,4.0142,4.0041,3.9954,3.9837,3.9735,3.9642,3.9446,3.919,3.8945,3.8933,3.9072,3.9061,3.856,3.8326,3.8267,3.8188,3.8302,3.8438,3.8511,3.862,3.8626,3.8699,3.8699,3.8699,3.8699,3.8699,3.8699,3.8699,3.8699,3.8699,3.8663,3.8579,3.856,3.8524,3.8395,3.823,3.8175,3.7863,3.7588,3.7257,3.6934,3.6916,3.7184,3.7055,3.6842,3.7305,3.7811,3.8178,3.8317,3.8184,3.7957,3.7799,3.7726,3.8024,3.7656,3.6869,3.6967,4.568,4.5678,4.5631,4.5594,4.5594,4.5594,4.5594,4.5594,4.5594,4.5594,4.5594,4.5594,4.5594,4.5594,4.5594,4.5594,4.5594,4.5594,4.5594,4.5594,4.5594,4.5594,4.5594,4.5594,4.5594,4.5594,4.5594,4.5594,4.5594,4.5594,4.5594,4.5594,4.5594,4.5594,4.5594,4.5594,4.5594,4.5594,4.5594,4.5594,4.5594,4.5594,4.5594,4.5594,4.559,4.5568,4.5408,4.528,4.5093,4.4944,4.4157,4.3009,4.1609,4.1361,4.0917,4.0435,4.0425,4.0363,4.0291,4.0204,4.0072,3.9975,3.9889,3.9815,3.9671,3.9413,3.9321,3.9375,3.9395,3.933,3.9251,3.9154,3.9036,3.8943,3.8848,3.8822,3.8769,3.8735,3.8707,3.8699,3.8699,3.8699,3.8699,3.8699,3.8699,3.8699,3.8699,3.8699,3.8699,3.8644,3.8644,3.8634,3.8652,3.8571,3.8571,3.8479,3.8138,3.8138,3.7936,3.7955,3.7984,3.7863,3.7734,3.812,3.8553,3.8689,3.8699,3.8626,3.8461,3.8322,3.8322,3.8414,3.8487,3.7905,3.8077,4.5692,4.5683,4.562,4.5594,4.5594,4.5594,4.5594,4.5594,4.5594,4.5594,4.5594,4.5594,4.5594,4.5594,4.5594,4.5594,4.5594,4.5594,4.5594,4.5594,4.5594,4.5594,4.5594,4.5594,4.5594,4.5594,4.5594,4.5594,4.5594,4.5594,4.5594,4.5594,4.5594,4.5594,4.5594,4.5594,4.5594,4.5594,4.5594,4.5594,4.5594,4.5594,4.5594,4.5594,4.5586,4.5544,4.5504,4.5453,4.5419,4.5135,4.4424,4.3825,4.2789,4.2335,4.1915,4.1495,4.1184,4.0798,4.0712,4.053,4.0329,4.024,4.005,4.0011,3.9943,3.9725,3.9594,3.9629,3.9582,3.9533,3.9414,3.931,3.9163,3.9052,3.8957,3.8888,3.8784,3.8704,3.8699,3.8699,3.8699,3.8699,3.8699,3.8699,3.8699,3.8699,3.8699,3.8699,3.8699,3.8699,3.8699,3.8699,3.8699,3.8699,3.8644,3.8644,3.8571,3.8644,3.8699,3.8553,3.8351,3.8516,3.8663,3.867,3.867,3.8681,3.8699,3.8699,3.8699,3.856,3.8579,3.8644,3.8699,3.8699,3.8637,4.5677,4.568,4.5625,4.5594,4.5594,4.5594,4.5594,4.5594,4.5594,4.5594,4.5594,4.5594,4.5594,4.5594,4.5594,4.5594,4.5594,4.5594,4.5594,4.5594,4.5594,4.5594,4.5594,4.5594,4.5594,4.5594,4.5594,4.5594,4.5594,4.5594,4.5594,4.5594,4.5594,4.5594,4.5594,4.5594,4.5594,4.5594,4.5594,4.5594,4.5594,4.5594,4.5594,4.5594,4.559,4.5568,4.5504,4.5457,4.5429,4.5173,4.4716,4.4174,4.372,4.3171,4.2832,4.2431,4.1972,4.1724,4.1562,4.117,4.0907,4.0649,4.0394,4.0288,4.0297,4.0121,3.9981,3.989,3.9849,3.9735,3.9619,3.9446,3.9298,3.9163,3.9057,3.8932,3.8818,3.8715,3.8707,3.8707,3.8699,3.8699,3.8699,3.8699,3.8699,3.8699,3.8699,3.8699,3.8699,3.8699,3.8699,3.8699,3.8699,3.8699,3.8699,3.8699,3.8699,3.8699,3.8699,3.8699,3.8699,3.8699,3.8699,3.8699,3.8699,3.8699,3.8699,3.8699,3.8699,3.8699,3.8699,3.8699,3.8699,3.8699,3.8699,4.5664,4.5635,4.5599,4.5594,4.5594,4.5594,4.5594,4.5594,4.5594,4.5594,4.5594,4.5594,4.5594,4.5594,4.5594,4.5594,4.5594,4.5594,4.5594,4.5594,4.5594,4.5594,4.5594,4.5594,4.5594,4.5594,4.5594,4.5594,4.5594,4.5594,4.5594,4.5594,4.5594,4.5594,4.5594,4.5594,4.5594,4.5594,4.5594,4.5594,4.5594,4.5594,4.5594,4.5594,4.5594,4.5559,4.5528,4.5509,4.5472,4.5341,4.5147,4.4662,4.4284,4.3935,4.361,4.3228,4.2775,4.2603,4.2345,4.2106,4.1867,4.1847,4.1598,4.1167,4.1,4.0627,4.0484,4.033,4.0241,4.0032,3.9891,3.9625,3.9446,3.9277,3.9147,3.8957,3.8807,3.8742,3.8715,3.8707,3.8699,3.8699,3.8699,3.8699,3.8699,3.8699,3.8699,3.8699,3.8699,3.8699,3.8699,3.8699,3.8699,3.8699,3.8699,3.8699,3.8699,3.8699,3.8699,3.8699,3.8699,3.8699,3.8699,3.8699,3.8699,3.8699,3.8699,3.8699,3.8699,3.8699,3.8699,3.8699,3.8699,3.8699,3.8699]}]]